     2              OBSERVATION DATA    GPS                 RINEX VERSION / TYPE
teqc 2000Feb29 20030210 22:43:55UTC                         PGM / RUN BY / DATE
                                                            COMMENT
L2: 1 -> 1; 150 -> 5; 250 -> 9                              COMMENT
L2: 1 -> 1; 150 -> 5; 250 -> 9                              COMMENT
L2: 1 -> 1; 150 -> 5; 250 -> 9                              COMMENT
L2: 1 -> 1; 150 -> 5; 250 -> 9                              COMMENT
L2: 1 -> 1; 150 -> 5; 250 -> 9                              COMMENT
Original Marker Name: CP12                                  COMMENT
Campaign Name: Northern Baja California                     COMMENT
4-Character Station Name: CP12                              COMMENT
6-Character Antenna Code: DMRCHT                            COMMENT
Vertical Measurement Point: BCR                             COMMENT
Vertical Offset to Rinex Ref. Point: 0.0348                 COMMENT
Radial Measurement Point: ECF                               COMMENT
Radial Offset to Rinex Ref. Point: 0.1897                   COMMENT
Antenna Height from Field Measurement: 1.2931 m             COMMENT
Additional Antenna Identification Info.:                    COMMENT
Turborogue and Ashtech Choke Ring                           COMMENT
Original XYZ: -2291075.0252 -4871885.1827 3408513.1926      COMMENT
New XYZ position is based on association with SCEC monument COMMENT
E1C9A1I6+0011. Position of that monument is believed to be  COMMENT
valid to within 1 m horizontally; vertical accuracy         COMMENT
should be no worse than 3-times this value.                 COMMENT
                                                            COMMENT
Revised Rinex header created by UCSD GPS archive for        COMMENT
GSAC on 17-Jul-2003 (2003:198) 20:54:32 GMT                 COMMENT
For assistance contact dagnew@ucsd.edu                      COMMENT
or anderson@python.ucsd.edu                                 COMMENT
                                                            COMMENT
PRIETO EDM ARRAY NO 12                                      MARKER NAME
JGG CICESE (ENSENADA)                                       OBSERVER / AGENCY
734 ASHTECH Z-XII3 CC00                                     REC # / TYPE / VERS
003 DORNE-MARGOL. TYPE T                                    ANT # / TYPE
 -2283977.0826 -4902361.8106  3369607.4097                  APPROX POSITION XYZ
        1.2443        0.0000        0.0000                  ANTENNA: DELTA H/E/N
     1     1     0                                          WAVELENGTH FACT L1/2
     7    C1    L1    L2    P1    P2    S1    S2            # / TYPES OF OBSERV
     0                                                      INTERVAL
  2002    12    10    21    13    0.000000                  TIME OF FIRST OBS
  2002    12    10    23    59   30.000000                  TIME OF LAST OBS
                                                            END OF HEADER
 02 12 10 21 13  0.0000000  0  4G27G 7G 8G11
  22931216.383      106281.44749     74871.43945  22931215.980    22931228.208
       219.000         153.000
  20665503.068     -124822.05649    -88254.96548  20665516.970    20665525.749
       245.000         215.000
  21454847.812       66349.36049     45751.95047  21454847.338    21454856.615
       238.000         196.000
  23887712.168        9805.88149      6735.78345  23887712.181    23887723.300
       220.000         155.000
 02 12 10 21 13 30.0000000  0  7G29G28G27G26G 7G 8G11
  22313904.761      -63040.21049    -46684.72446  22313904.725    22313914.767
       229.000         182.000
  21290608.415      -70039.48149    -51651.69747  21290607.929    21290615.278
       243.000         206.000
  22941008.228      157736.44949    114966.09145  22941007.411    22941020.370
       219.000         158.000
  22631473.690      -97448.16149    -72192.08246  22631473.947    22631484.365
       230.000         178.000
  20655235.562     -178777.55249   -130298.18648  20655249.798    20655258.327
       245.000         216.000
  21460300.032       94999.50549     68076.65547  21460299.454    21460309.048
       238.000         197.000
  23888604.416       14495.45949     10389.99245  23888604.363    23888615.534
       221.000         159.000
 02 12 10 21 14  0.0000000  0  8G29G28G27G 4G26G 7G 8G11
  22174328.247     -796522.23249   -618229.16846  22174328.072    22174338.032
       229.000         182.000
  21150468.933     -806477.12349   -625499.21147  21150468.325    21150475.954
       244.000         207.000
  22815075.153     -504045.57349   -400708.38845  22815075.092    22815087.226
       217.000         158.000
  24431661.647    -1285640.22649   -971596.37144  24431659.034    24431675.715
       206.000         130.000
  22489740.118     -842265.64649   -652569.33746  22489740.587    22489750.297
       230.000         179.000
  20509268.454     -945840.60749   -728009.63048  20509282.469    20509291.146
       245.000         216.000
  21330048.569     -589476.64649   -465281.45847  21330047.815    21330057.488
       238.000         197.000
  23753805.235     -693877.87249   -541589.21545  23753806.012    23753817.082
       220.000         160.000
 02 12 10 21 14 30.0000000  0  8G29G28G27G 4G26G 7G 8G11
  22178361.366     -775328.57649   -601714.65346  22178361.840    22178371.257
       230.000         182.000
  21153867.304     -788618.29549   -611583.24547  21153866.773    21153874.537
       244.000         206.000
  22832710.110     -411373.45249   -328496.50645  22832709.484    22832722.381
       216.000         158.000
  24411718.122    -1390439.06149  -1053257.49845  24411717.020    24411733.670
       206.000         133.000
  22491620.581     -832383.41249   -644868.89246  22491620.795    22491630.631
       230.000         179.000
  20506894.436     -958316.02149   -737730.70548  20506908.413    20506917.240
       245.000         216.000
  21343386.211     -519386.70449   -410666.00347  21343385.881    21343395.142
       238.000         196.000
  23762607.877     -647621.14849   -505545.01345  23762607.559    23762619.284
       220.000         161.000
 02 12 10 21 15  0.0000000  0  8G29G28G27G 4G26G 7G 8G11
  22182493.138     -753617.05249   -584796.59546  22182492.590    22182503.072
       230.000         182.000
  21157292.397     -770619.27849   -597558.03647  21157292.081    21157299.663
       244.000         207.000
  22850401.659     -318403.83149   -256052.81445  22850401.766    22850414.349
       217.000         158.000
  24391759.454    -1495319.50249  -1134982.20445  24391758.097    24391774.929
       208.000         137.000
  22493604.487     -821959.14149   -636746.07646  22493604.162    22493614.706
       230.000         179.000
  20504602.290     -970361.21749   -747116.54548  20504616.320    20504624.974
       245.000         216.000
  21356801.838     -448887.09849   -355731.32447  21356801.204    21356811.022
       237.000         196.000
  23771500.428     -600891.37549   -469132.20245  23771501.292    23771511.415
       221.000         161.000
 02 12 10 21 15 30.0000000  0  8G29G28G27G 4G26G 7G 8G11
  22186722.137     -731393.34749   -567479.43546  22186721.792    22186732.573
       230.000         182.000
  21160743.446     -752484.02149   -583426.66747  21160743.052    21160750.581
       244.000         206.000
  22868148.783     -225142.73349   -183381.99445  22868147.741    22868162.071
       216.000         157.000
  24371785.269    -1600283.17549  -1216771.75445  24371783.825    24371800.688
       208.000         138.000
  22495690.352     -810997.82849   -628204.78146  22495690.867    22495700.196
       231.000         179.000
  20502391.103     -981981.00449   -756170.89848  20502405.140    20502413.626
       245.000         216.000
  21370294.433     -377983.25949   -300481.66447  21370293.933    21370303.588
       237.000         196.000
  23780481.873     -553694.03249   -432355.03245  23780482.205    23780494.038
       221.000         161.000
 02 12 10 21 16  0.0000000  0  8G29G28G27G 4G26G 7G 8G11
  22191048.584     -708657.77549   -549763.43246  22191048.067    22191058.678
       228.000         182.000
  21164220.651     -734211.28649   -569188.17247  21164220.285    21164227.853
       245.000         206.000
  22885951.334     -131590.48549   -110484.32145  22885952.175    22885963.035
       214.000         157.000
  24351795.962    -1705325.98349  -1298622.92845  24351795.493    24351811.254
       209.000         139.000
  22497878.488     -799499.10649   -619244.72946  22497878.303    22497888.487
       231.000         179.000
  20500260.987     -993174.87649   -764893.37048  20500275.115    20500283.679
       245.000         216.000
  21383864.058     -306674.69049   -244916.62747  21383863.589    21383873.517
       237.000         196.000
  23789552.355     -506028.79649   -395213.28545  23789552.216    23789563.203
       220.000         161.000
 02 12 10 21 16 30.0000000  0  8G29G28G27G 4G26G 7G 8G11
  22195472.141     -685411.07849   -531649.14246  22195472.014    22195481.662
       229.000         181.000
  21167724.219     -715800.19049   -554841.86547  21167723.840    21167731.313
       244.000         206.000
  22903809.086      -37748.03049    -37360.50745  22903809.912    22903822.154
       214.000         157.000
  24331792.345    -1810444.52349  -1380533.08745  24331791.211    24331807.318
       210.000         140.000
  22500168.752     -787463.53049   -609866.34846  22500168.388    22500178.606
       230.000         179.000
  20498211.901    -1003942.96049   -773284.05948  20498225.854    20498234.641
       245.000         216.000
  21397510.623     -234961.93649   -189036.64247  21397510.292    21397519.576
       237.000         196.000
  23798711.633     -457896.38949   -357707.49145  23798711.385    23798722.763
       221.000         160.000
 02 12 10 21 17  0.0000000  0  8G29G28G27G 4G26G 7G 8G11
  22199992.887     -661654.66149   -513137.66946  22199993.934    22200002.225
       230.000         181.000
  21171254.156     -697250.38149   -540387.47247  21171253.776    21171261.464
       244.000         206.000
  22921721.730       56382.73749     35987.96945  22921721.163    22921735.058
       213.000         157.000
  24311774.896    -1915636.08549  -1462500.13545  24311774.249    24311790.216
       213.000         141.000
  22502560.962     -774891.98349   -600070.33546  22502561.361    22502571.264
       229.000         179.000
  20496243.715    -1014285.97449   -781343.52748  20496257.686    20496266.421
       245.000         216.000
  21411233.916     -162845.99049   -132842.48447  21411233.771    21411243.378
       237.000         195.000
  23807959.583     -409298.09349   -319838.68345  23807958.543    23807970.228
       221.000         160.000
 02 12 10 21 17 30.0000000  0  8G29G28G27G 4G26G 7G 8G11
  22204610.140     -637392.11249   -494231.80646  22204610.258    22204619.658
       230.000         181.000
  21174810.066     -678564.23949   -525826.84447  21174809.554    21174817.445
       244.000         206.000
  22939688.493      150798.37349    109558.42545  22939687.815    22939701.134
       214.000         157.000
  24291743.631    -2020899.91649  -1544523.46945  24291743.286    24291758.296
       211.000         141.000
  22505054.613     -761787.63149   -589859.14146  22505055.005    22505064.449
       230.000         179.000
  20494355.843    -1024206.81649   -789074.02748  20494369.953    20494378.493
       245.000         216.000
  21425033.322      -90330.01849    -76336.61047  21425033.188    21425042.589
       237.000         195.000
  23817295.671     -360236.85049   -281609.12745  23817296.449    23817306.960
       221.000         160.000
 02 12 10 21 18  0.0000000  0  8G29G28G27G 4G26G 7G 8G11
  22209323.493     -612623.86949   -474931.88946  22209323.205    22209333.200
       228.000         181.000
  21178392.182     -659740.06049   -511158.65347  21178391.685    21178399.429
       244.000         206.000
  22957709.466      245498.29649    183350.40045  22957709.119    22957722.835
       216.000         158.000
  24271699.178    -2126231.99649  -1626599.97345  24271698.563    24271713.602
       211.000         140.000
  22507649.761     -748150.51649   -579232.79646  22507649.528    22507659.083
       229.000         179.000
  20492548.452    -1033704.83849   -796475.05948  20492562.534    20492571.132
       245.000         216.000
  21438908.837      -17414.02349    -19519.03047  21438908.243    21438918.425
       236.000         195.000
  23826719.832     -310713.02549   -243019.12945  23826718.986    23826731.512
       219.000         159.000
 02 12 10 21 18 30.0000000  0  8G29G28G27G 4G26G 7G 8G11
  22214132.495     -587351.98549   -455239.53546  22214132.296    22214142.801
       229.000         181.000
  21182000.499     -640778.45749   -496383.37947  21182000.226    21182007.736
       244.000         206.000
  22975784.128      340480.30149    257362.17545  22975783.876    22975797.798
       215.000         159.000
  24251642.318    -2231630.24449  -1708728.02145  24251642.567    24251657.229
       208.000         141.000
  22510345.838     -733982.05149   -568192.43146  22510346.012    22510356.461
       230.000         179.000
  20490821.182    -1042781.58949   -803547.83048  20490835.340    20490843.980
       245.000         216.000
  21452860.224       55900.62549     37609.18347  21452860.134    21452869.812
       236.000         195.000
  23836231.620     -260728.47049   -204070.14145  23836231.370    23836243.447
       220.000         158.000
 02 12 10 21 19  0.0000000  0  8G29G28G27G 4G26G 7G 8G11
  22219037.112     -561577.80049   -435155.77546  22219037.291    22219046.900
       228.000         181.000
  21185635.035     -621678.81349   -481500.54147  21185634.670    21185641.901
       244.000         206.000
  22993912.140      435742.92849    331592.61545  22993912.056    22993924.925
       216.000         159.000
  24231573.447    -2337091.58849  -1790905.20345  24231572.392    24231589.098
       209.000         138.000
  22513142.937     -719283.19349   -556738.76246  22513143.525    22513153.665
       230.000         179.000
  20489174.061    -1051437.40449   -810292.59648  20489188.100    20489196.791
       245.000         216.000
  21466887.260      129612.81349     95047.17347  21466886.883    21466896.823
       237.000         194.000
  23845830.931     -210284.34449   -164763.05845  23845831.175    23845842.384
       218.000         158.000
 02 12 10 21 19 30.0000000  0  8G29G28G27G 4G26G 7G 8G11
  22224037.190     -535302.49549   -414681.52946  22224038.009    22224046.530
       230.000         181.000
  21189295.894     -602440.77949   -466509.86247  21189295.586    21189303.206
       244.000         206.000
  23012093.324      531284.67149    406040.56445  23012093.779    23012106.524
       217.000         159.000
  24211493.136    -2442612.74049  -1873129.00145  24211491.723    24211507.846
       210.000         138.000
  22516040.906     -704054.87149   -544872.51646  22516040.989    22516051.932
       230.000         179.000
  20487606.900    -1059672.90349   -816709.84748  20487620.875    20487629.474
       245.000         216.000
  21480989.833      203721.89549    152794.43547  21480989.570    21480999.471
       236.000         194.000
  23855517.417     -159381.30949   -125098.38145  23855517.079    23855529.226
       217.000         156.000
 02 12 10 21 20  0.0000000  0  8G29G28G27G 4G26G 7G 8G11
  22229132.243     -508528.69649   -393818.85846  22229132.022    22229141.709
       229.000         181.000
  21192983.078     -583064.70649   -451411.62047  21192982.793    21192990.287
       244.000         206.000
  23030327.135      627103.19649    480704.17245  23030327.396    23030340.289
       217.000         159.000
  24191401.559    -2548191.77449  -1955397.91145  24191399.782    24191415.975
       210.000         136.000
  22519039.177     -688298.88849   -532595.11546  22519039.034    22519050.110
       230.000         179.000
  20486119.479    -1067489.43449   -822800.62848  20486133.455    20486142.101
       245.000         216.000
  21495167.586      278226.07749    210849.56847  21495167.325    21495176.996
       236.000         194.000
  23865290.802     -108021.38049    -85077.70145  23865290.823    23865302.055
       217.000         155.000
 02 12 10 21 20 30.0000000  0  8G29G28G27G 4G26G 7G 8G11
  22234321.952     -481256.56649   -372567.86846  22234321.969    22234331.704
       229.000         180.000
  21196696.766     -563549.28949   -436204.79847  21196696.293    21196704.033
       244.000         206.000
  23048613.549      723198.12649    555583.16845  23048614.077    23048627.141
       217.000         159.000
  24171299.914    -2653824.63249  -2037708.76045  24171299.987    24171315.892
       208.000         136.000
  22522137.815     -672015.28049   -519906.56146  22522138.018    22522148.180
       230.000         179.000
  20484711.824    -1074886.81749   -828564.79948  20484725.869    20484734.398
       245.000         216.000
  21509420.528      353125.33049    269212.55147  21509420.058    21509430.223
       236.000         193.000
  23875151.113      -56204.75249    -44701.17545  23875150.457    23875161.909
       216.000         155.000
 02 12 10 21 21  0.0000000  0  8G29G28G27G 4G26G 7G 8G11
  22239606.016     -453488.69349   -350930.57946  22239605.751    22239615.769
       229.000         180.000
  21200436.873     -543895.19149   -420889.91047  21200436.353    21200444.247
       244.000         206.000
  23066952.040      819566.67149    630675.36545  23066951.542    23066964.626
       216.000         159.000
  24151188.606    -2759509.17849  -2120059.92545  24151186.761    24151202.918
       209.000         135.000
  22525336.413     -655205.99049   -506808.39446  22525337.104    22525346.458
       230.000         179.000
  20483383.583    -1081866.58149   -834003.54848  20483397.639    20483406.211
       245.000         216.000
  21523748.234      428417.72649    327881.87447  21523748.039    21523757.831
       236.000         193.000
  23885097.964       -3933.52149     -3970.41545  23885096.882    23885109.081
       216.000         154.000
 02 12 10 21 21 30.0000000  0  8G29G28G27G 4G26G 7G 8G11
  22244984.075     -425227.12249   -328908.59646  22244983.938    22244994.171
       229.000         180.000
  21204203.327     -524102.57149   -405467.08347  21204202.856    21204210.456
       244.000         206.000
  23085342.159      916206.81649    705979.21045  23085341.321    23085355.292
       215.000         157.000
  24131067.797    -2865243.16749  -2202449.61945  24131067.749    24131081.854
       207.000         137.000
  22528634.925     -637872.67649   -493301.90046  22528635.150    22528644.706
       231.000         179.000
  20482134.629    -1088429.98149   -839117.85948  20482148.733    20482157.267
       245.000         216.000
  21538150.477      504101.62849    386856.27647  21538150.399    21538160.163
       235.000         193.000
  23895131.012       48790.68249     37113.29545  23895132.194    23895142.935
       217.000         153.000
 02 12 10 21 22  0.0000000  0  8G29G28G27G 4G26G 7G 8G11
  22250455.787     -396473.77849   -306503.41546  22250456.080    22250465.523
       228.000         180.000
  21207996.114     -504171.32849   -389936.24047  21207995.590    21208003.591
       244.000         205.000
  23103783.556     1013116.52349    781493.09545  23103783.653    23103796.669
       216.000         157.000
  24110938.032    -2971023.83249  -2284875.67645  24110936.446    24110952.633
       210.000         137.000
  22532033.030     -620016.91449   -479388.30946  22532033.118    22532042.652
       230.000         179.000
  20480964.693    -1094577.97249   -843908.47648  20480978.823    20480987.344
       245.000         216.000
  21552626.965      580175.68249    446134.69347  21552626.567    21552636.373
       235.000         193.000
  23905250.127      101966.19149     78548.66645  23905249.920    23905261.605
       215.000         153.000
 02 12 10 21 22 30.0000000  0  8G29G28G27G 4G26G 7G 8G11
  22256020.646     -367230.10649   -283716.15446  22256020.258    22256030.899
       227.000         180.000
  21211815.330     -484101.19249   -374297.16447  21211814.796    21211822.435
       244.000         205.000
  23122276.073     1110294.26949    857215.83745  23122276.681    23122288.843
       215.000         156.000
  24090800.120    -3076847.93649  -2367335.61345  24090798.697    24090814.119
       213.000         140.000
  22535530.100     -601639.68549   -465068.35546  22535529.358    22535540.651
       230.000         179.000
  20479873.653    -1100311.51849   -848376.14448  20479887.609    20479896.187
       245.000         216.000
  21567177.533      656638.85549    505716.32247  21567177.444    21567187.460
       236.000         193.000
  23915454.794      155591.61249    120334.61145  23915454.435    23915465.968
       214.000         153.000
 02 12 10 21 23  0.0000000  0  8G29G28G27G 4G26G 7G 8G11
  22261678.449     -337497.95749   -260548.26246  22261678.750    22261688.167
       230.000         180.000
  21215661.062     -463891.88149   -358549.64547  21215660.414    21215668.208
       244.000         205.000
  23140819.138     1207738.23449    933146.02045  23140819.384    23140833.074
       215.000         155.000
  24070654.458    -3182712.93849  -2449827.45245  24070653.483    24070668.690
       213.000         139.000
  22539126.084     -582742.33349   -450343.12446  22539125.998    22539136.429
       230.000         179.000
  20478861.304    -1105631.31849   -852521.41648  20478875.270    20478883.929
       245.000         216.000
  21581801.887      733489.93349    565600.21247  21581801.380    21581811.767
       236.000         192.000
  23925744.800      209665.51349    162470.02545  23925745.441    23925756.667
       216.000         152.000
 02 12 10 21 23 30.0000000  0  8G29G28G27G 4G26G 7G 8G11
  22267429.090     -307278.75049   -237000.84046  22267429.459    22267438.707
       229.000         180.000
  21219533.372     -443542.92149   -342693.30347  21219532.923    21219540.739
       243.000         205.000
  23159412.656     1305446.88149   1009282.45745  23159413.502    23159424.912
       215.000         153.000
  24050501.634    -3288615.47349  -2532348.56945  24050500.565    24050514.724
       210.000         137.000
  22542820.882     -563325.80749   -435213.34446  22542820.940    22542830.524
       229.000         178.000
  20477927.590    -1110537.97349   -856344.75348  20477941.626    20477950.250
       245.000         216.000
  21596499.900      810727.99849    625785.65247  21596499.604    21596509.908
       235.000         192.000
  23936120.014      264186.98749    204954.19645  23936119.219    23936131.338
       214.000         151.000
 02 12 10 21 24  0.0000000  0  8G29G28G27G 4G26G 7G 8G11
  22273272.030     -276574.33849   -213075.34146  22273271.815    22273282.329
       229.000         180.000
  21223432.284     -423053.91249   -326727.83447  21223431.934    21223439.449
       243.000         205.000
  23178056.232     1403418.65649   1085623.95145  23178056.935    23178069.657
       214.000         151.000
  24030342.083    -3394552.65149  -2614896.66645  24030341.081    24030356.034
       210.000         137.000
  22546614.232     -543391.38749   -419680.01146  22546614.753    22546624.583
       230.000         179.000
  20477072.352    -1115032.29549   -859846.79448  20477086.228    20477094.993
       245.000         216.000
  21611271.277      888351.81049    686271.66947  21611271.068    21611281.009
       236.000         192.000
  23946580.008      319154.49749    247785.91845  23946579.608    23946591.215
       211.000         149.000
 02 12 10 21 24 30.0000000  0  8G29G28G27G 4G26G 7G 8G11
  22279206.806     -245386.37349   -188773.04146  22279206.986    22279216.888
       228.000         180.000
  21227357.886     -402424.60249   -310653.03747  21227357.296    21227365.046
       243.000         205.000
  23196749.438     1501651.73949   1162169.00645  23196749.624    23196762.043
       212.000         148.000
  24010176.694    -3500521.48849  -2697469.49045  24010176.141    24010190.741
       208.000         137.000
  22550505.863     -522940.57049   -403744.25946  22550506.839    22550516.722
       229.000         178.000
  20476295.385    -1119115.26649   -863028.30148  20476309.286    20476318.038
       245.000         216.000
  21626115.873      966360.23549    747057.38847  21626115.712    21626125.494
       235.000         192.000
  23957124.769      374566.91949    290964.33845  23957125.167    23957135.589
       214.000         148.000
 02 12 10 21 25  0.0000000  0  8G29G28G27G 4G26G 7G 8G11
  22285233.310     -213716.72349   -164095.41646  22285234.073    22285242.531
       229.000         179.000
  21231310.213     -381654.93449   -294468.87647  21231309.820    21231317.712
       243.000         205.000
  23215492.116     1600144.16149   1238916.17145  23215491.839    23215505.891
       213.000         148.000
  23990005.621    -3606519.26649  -2780064.84245  23990005.265    23990018.110
       206.000         135.000
  22554495.560     -501974.67249   -387407.19946  22554495.817    22554505.428
       230.000         178.000
  20475596.538    -1122787.80749   -865889.99248  20475610.560    20475619.271
       245.000         216.000
  21641033.346     1044751.92049    808141.75447  21641033.055    21641043.125
       235.000         191.000
  23967753.763      430422.40649    334487.99345  23967753.949    23967766.741
       213.000         147.000
 02 12 10 21 25 30.0000000  0  8G29G28G27G 4G26G 7G 8G11
  22291351.103     -181568.09649   -139044.54346  22291351.189    22291360.958
       228.000         179.000
  21235289.169     -360745.41549   -278175.73547  21235288.756    21235296.365
       243.000         205.000
  23234283.717     1698893.37249   1315863.42745  23234283.160    23234298.180
       212.000         148.000
  23969829.655    -3712543.68549  -2862680.97245  23969828.693    23969844.239
       204.000         135.000
  22558582.905     -480495.97149   -370670.54046  22558582.708    22558592.985
       229.000         178.000
  20474975.416    -1126051.76649   -868433.31348  20474989.420    20474998.031
       245.000         216.000
  21656023.396     1123524.83949    869523.17647  21656023.067    21656033.299
       235.000         191.000
  23978466.698      486718.78249    378355.20645  23978467.003    23978478.102
       212.000         146.000
 02 12 10 21 26  0.0000000  0  8G29G28G27G 4G26G 7G 8G11
  22297559.619     -148941.85949   -113621.52446  22297560.010    22297569.537
       228.000         179.000
  21239294.912     -339695.10049   -261772.88247  21239294.522    21239302.216
       243.000         205.000
  23253123.834     1797898.19949   1393009.86445  23253123.378    23253137.676
       209.000         147.000
  23949649.255    -3818591.53549  -2945315.39045  23949647.504    23949663.144
       209.000         137.000
  22562767.553     -458505.34749   -353534.96246  22562767.271    22562777.488
       229.000         178.000
  20474431.979    -1128907.53649   -870658.55648  20474446.016    20474454.704
       245.000         216.000
  21671085.815     1202678.08749    931200.96747  21671085.090    21671095.433
       235.000         191.000
  23989263.283      543455.08949    422565.20645  23989263.788    23989275.837
       212.000         145.000
 02 12 10 21 26 30.0000000  0  8G29G28G27G 4G26G 7G 8G11
  22303858.819     -115839.52149    -87827.51646  22303858.740    22303869.690
       228.000         179.000
  21243327.531     -318503.72049   -245260.11347  21243326.971    21243334.679
       243.000         205.000
  23272012.162     1897156.82049   1470354.04245  23272011.202    23272026.589
       210.000         146.000
  23929464.860    -3924659.64149  -3027965.59145  23929463.857    23929478.807
       207.000         138.000
  22567049.260     -436004.07349   -336001.47746  22567048.997    22567059.666
       231.000         178.000
  20473966.094    -1131355.78449   -872566.25148  20473980.019    20473988.597
       245.000         216.000
  21686220.397     1282210.60649    993174.29447  21686219.932    21686230.055
       235.000         191.000
  24000143.405      600629.97449    467116.98145  24000144.276    24000154.216
       213.000         145.000
 02 12 10 21 27  0.0000000  0  8G29G28G27G 4G26G 7G 8G11
  22310248.185      -82263.47849    -61664.38046  22310248.067    22310258.133
       228.000         179.000
  21247386.952     -297171.24849   -228637.40447  21247386.670    21247394.239
       243.000         204.000
  23290948.516     1996667.10349   1547894.32545  23290947.982    23290961.615
       210.000         146.000
  23909277.194    -4030745.20749  -3110629.43645  23909276.912    23909290.226
       207.000         140.000
  22571427.980     -412993.96149   -318071.50646  22571427.976    22571438.066
       230.000         178.000
  20473577.471    -1133397.91649   -874157.49148  20473591.458    20473600.115
       245.000         216.000
  21701426.913     1362120.79849   1055441.90447  21701426.815    21701436.626
       234.000         191.000
  24011106.569      658241.65649    512009.10645  24011105.498    24011118.202
       212.000         144.000
 02 12 10 21 27 30.0000000  0  8G29G28G27G 4G26G 7G 8G11
  22316727.254      -48215.94349    -35133.85346  22316726.971    22316737.756
       227.000         179.000
  21251473.262     -275697.59149   -211904.67747  21251472.722    21251480.504
       243.000         204.000
  23309932.315     2096426.99149   1625629.12045  23309932.879    23309946.960
       209.000         146.000
  23889086.833    -4136845.78949  -3193304.93945  23889086.190    23889100.692
       210.000         143.000
  22575903.146     -389476.73449   -299746.37446  22575902.828    22575913.604
       229.000         178.000
  20473265.913    -1135035.14049   -875433.21648  20473279.883    20473288.489
       245.000         216.000
  21716704.908     1442406.98549   1118002.49547  21716704.658    21716714.723
       235.000         190.000
  24022152.646      716288.35349    557240.20545  24022152.160    24022163.942
       215.000         144.000
 02 12 10 21 28  0.0000000  0  8G29G28G27G 4G26G 7G 8G11
  22323295.750      -13698.28649     -8236.99746  22323295.694    22323305.450
       227.000         179.000
  21255586.565     -254082.13149   -195061.45847  21255586.264    21255593.922
       244.000         204.000
  23328963.377     2196435.05149   1703557.27945  23328963.435    23328977.858
       212.000         147.000
  23868894.161    -4242957.80049  -3275989.38845  23868893.729    23868907.877
       209.000         145.000
  22580474.613     -365453.46249   -281026.92746  22580474.873    22580485.005
       229.000         178.000
  20473031.285    -1136268.05449   -876393.88748  20473045.206    20473053.791
       245.000         216.000
  21732054.339     1523068.20549   1180855.32147  21732053.882    21732064.285
       234.000         190.000
  24033281.294      774769.03449    602809.49545  24033281.535    24033293.795
       211.000         144.000
 02 12 10 21 28 30.0000000  0  8G29G28G27G 4G26G 7G 8G11
  22329953.177       21287.01549     19024.25646  22329952.975    22329963.353
       228.000         178.000
  21259726.820     -232325.05649   -178107.88647  21259726.278    21259733.886
       243.000         204.000
  23348041.204     2296688.92249   1781676.98145  23348040.308    23348055.346
       211.000         148.000
  23848699.767    -4349078.83649  -3358680.86545  23848698.240    23848712.957
       211.000         146.000
  22585142.118     -340926.12149   -261914.70146  22585142.281    22585151.579
       230.000         178.000
  20472873.336    -1137098.09449   -877040.62948  20472887.245    20472895.920
       245.000         216.000
  21747474.821     1604102.90649   1243999.16947  21747474.577    21747484.631
       234.000         190.000
  24044491.974      833681.47849    648715.24045  24044491.525    24044503.606
       211.000         143.000
 02 12 10 21 29  0.0000000  0  8G29G28G27G 4G26G 7G 8G11
  22336699.490       56738.51049     46648.77746  22336700.314    22336708.911
       228.000         178.000
  21263894.118     -210425.62749   -161043.39647  21263893.693    21263901.423
       243.000         204.000
  23367165.595     2397187.30849   1859987.22745  23367166.557    23367180.123
       214.000         149.000
  23828504.421    -4455205.32949  -3441376.62245  23828504.010    23828518.494
       213.000         149.000
  22589905.217     -315895.83949   -242410.57546  22589904.784    22589915.219
       228.000         178.000
  20472791.879    -1137525.95149   -877373.98248  20472805.911    20472814.435
       245.000         216.000
  21762966.123     1685510.03449   1307433.20947  21762965.932    21762976.359
       233.000         189.000
  24055784.636      893024.48849    694956.48845  24055785.186    24055797.663
       212.000         142.000
 02 12 10 21 29 30.0000000  0  8G29G28G27G 4G26G 7G 8G11
  22343533.861       92653.26549     74634.28746  22343534.053    22343544.360
       228.000         178.000
  21268088.426     -188384.50749   -143868.49347  21268088.029    21268095.939
       243.000         204.000
  23386335.960     2497927.11749   1938485.59445  23386336.666    23386350.680
       212.000         151.000
  23808308.394    -4561335.39149  -3524075.16145  23808308.041    23808322.060
       216.000         152.000
  22594763.480     -290365.22749   -222516.57346  22594763.850    22594773.472
       228.000         178.000
  20472786.633    -1137553.52749   -877395.42148  20472800.515    20472809.047
       245.000         216.000
  21778527.806     1767287.02649   1371155.46647  21778527.559    21778537.933
       235.000         189.000
  24067158.733      952795.49049    741531.25745  24067158.653    24067170.947
       212.000         141.000
 02 12 10 21 30  0.0000000  0  8G29G28G27G 4G26G 7G 8G11
  22350456.099      129029.66349    102979.51046  22350455.871    22350465.971
       227.000         178.000
  21272309.846     -166200.69949   -126582.40747  21272309.437    21272317.253
       243.000         204.000
  23405552.050     2598907.37949   2017171.31645  23405552.403    23405566.375
       212.000         152.000
  23788112.437    -4667465.59049  -3606773.82445  23788111.443    23788125.702
       217.000         153.000
  22599716.857     -264335.17249   -202233.39846  22599716.572    22599727.031
       229.000         178.000
  20472857.439    -1137181.22049   -877105.26548  20472871.356    20472879.897
       245.000         216.000
  21794159.821     1849433.53749   1435165.66147  21794159.457    21794170.041
       233.000         189.000
  24078614.137     1012993.71849    788438.93645  24078612.973    24078625.034
       212.000         141.000
 02 12 10 21 30 30.0000000  0  8G29G28G27G 4G26G 7G 8G11
  22357466.177      165867.95949    131684.65046  22357466.488    22357475.584
       228.000         178.000
  21276558.924     -143871.82249   -109183.28347  21276558.515    21276566.052
       243.000         204.000
  23424813.812     2700128.09449   2096044.41145  23424814.099    23424828.258
       213.000         153.000
  23767917.408    -4773590.57049  -3689468.44645  23767916.824    23767931.157
       217.000         154.000
  22604765.350     -237805.24949   -181560.72646  22604764.867    22604775.467
       228.000         178.000
  20473004.541    -1136408.07349   -876502.76948  20473018.524    20473026.950
       245.000         216.000
  21809862.224     1931949.83149   1499463.99247  21809862.077    21809872.259
       233.000         188.000
  24090150.981     1073619.66349    835679.91745  24090150.606    24090162.657
       213.000         143.000
 02 12 10 21 31  0.0000000  0  8G29G28G27G 4G26G 7G 8G11
  22364563.259      203162.74249    160745.50546  22364563.565    22364573.590
       228.000         178.000
  21280835.001     -121400.88449    -91673.46147  21280834.695    21280842.306
       243.000         204.000
  23444120.429     2801584.19849   2175100.90145  23444119.804    23444134.440
       212.000         153.000
  23747723.289    -4879710.71949  -3772159.27945  23747722.864    23747736.247
       215.000         155.000
  22609907.903     -210780.39449   -160502.38946  22609908.256    22609918.426
       228.000         177.000
  20473227.080    -1135238.52149   -875591.38748  20473240.970    20473249.643
       245.000         216.000
  21825634.187     2014831.52049   1564047.05147  21825634.098    21825644.220
       233.000         188.000
  24101768.298     1134668.32849    883250.28445  24101768.373    24101780.209
       216.000         145.000
 02 12 10 21 31 30.0000000  0  8G29G28G27G 4G26G 7G 8G11
  22371746.828      240912.41149    190160.80346  22371746.832    22371757.201
       228.000         178.000
  21285138.274      -98787.17149    -74052.38747  21285137.826    21285145.536
       243.000         204.000
  23463471.548     2903274.09249   2254339.58745  23463471.497    23463485.831
       211.000         153.000
  23727530.684    -4985822.81449  -3854843.86945  23727530.193    23727544.701
       216.000         155.000
  22615144.618     -183261.85949   -139059.38446  22615144.851    22615154.514
       229.000         178.000
  20473524.953    -1133673.10349   -874371.54048  20473539.054    20473547.286
       245.000         216.000
  21841475.416     2098077.37349   1628913.86947  21841475.071    21841485.420
       233.000         188.000
  24113465.747     1196138.36349    931148.99745  24113466.035    24113477.435
       215.000         147.000
 02 12 10 21 32  0.0000000  0  8G29G28G27G 4G26G 7G 8G11
  22379016.697      279115.19449    219929.19446  22379016.259    22379026.313
       228.000         178.000
  21289468.863      -76029.82149    -56319.38047  21289468.538    21289475.876
       243.000         204.000
  23482866.772     3005196.24549   2333759.25045  23482866.480    23482881.107
       212.000         152.000
  23707340.341    -5091923.26249  -3937519.37145  23707339.261    23707354.048
       213.000         153.000
  22620474.929     -155250.84249   -117232.60846  22620474.771    22620485.050
       228.000         177.000
  20473898.038    -1131712.52649   -872843.77548  20473911.966    20473920.440
       245.000         216.000
  21857385.775     2181686.52549   1694063.78247  21857385.627    21857395.623
       233.000         188.000
  24125243.024     1258028.19249    979374.80345  24125243.232    24125254.659
       215.000         147.000
 02 12 10 21 32 30.0000000  0  8G29G28G27G 4G26G 7G 8G11
  22386372.256      317769.24049    250049.19246  22386372.387    22386381.914
       227.000         177.000
  21293826.907      -53128.26849    -38474.01047  21293826.411    21293834.064
       243.000         204.000
  23502305.990     3107348.99849   2413358.59945  23502306.222    23502320.498
       213.000         152.000
  23687152.722    -5198008.95149  -4020183.36545  23687153.155    23687165.203
       214.000         150.000
  22625898.517     -126748.93249    -95023.32446  22625897.807    22625910.108
       227.000         177.000
  20474346.125    -1129357.74349   -871008.84648  20474360.215    20474368.560
       245.000         216.000
  21873365.023     2265657.59749   1759495.71246  21873365.044    21873374.492
       233.000         187.000
  24137099.975     1320336.57449   1027926.75245  24137099.993    24137111.490
       216.000         147.000
 02 12 10 21 33  0.0000000  0  8G29G28G27G 4G26G 7G 8G11
  22393813.354      356872.60149    280519.31846  22393813.236    22393823.400
       227.000         177.000
  21298212.376      -30082.45349    -20516.22347  21298211.895    21298219.613
       243.000         204.000
  23521788.700     3209730.45749   2493136.15945  23521789.254    23521803.351
       212.000         151.000
  23666968.465    -5304076.66249  -4102833.35045  23666967.439    23666982.393
       211.000         149.000
  22631415.296      -97757.66749    -72432.73246  22631415.517    22631425.999
       228.000         178.000
  20474869.038    -1126609.77149   -868867.53348  20474882.993    20474891.416
       245.000         216.000
  21889412.845     2349989.14949   1825208.53946  21889412.545    21889422.912
       233.000         187.000
  24149036.294     1383062.06149   1076803.69545  24149035.750    24149047.088
       215.000         147.000
 02 12 10 21 33 30.0000000  0  8G29G28G27G 4G26G 7G 8G11
  22401339.511      396422.84349    311337.65846  22401340.515    22401349.987
       228.000         177.000
  21302625.464       -6891.74349     -2445.53247  21302625.080    21302632.694
       243.000         204.000
  23541314.564     3312338.49949   2573090.30545  23541313.598    23541329.626
       210.000         149.000
  23646788.253    -5410123.53249  -4185467.10045  23646788.049    23646800.650
       212.000         147.000
  22637024.908      -68278.92649    -49462.29146  22637025.383    22637034.893
       228.000         178.000
  20475466.532    -1123469.81249   -866420.78248  20475480.480    20475488.968
       245.000         216.000
  21905529.001     2434679.76749   1891201.14846  21905528.788    21905539.323
       233.000         187.000
  24161051.512     1446202.83749   1126004.22545  24161051.192    24161063.699
       214.000         149.000
 02 12 10 21 34  0.0000000  0  8G29G28G27G 4G26G 7G 8G11
  22408950.437      436418.09749    342502.76146  22408949.937    22408960.704
       226.000         177.000
  21307066.114       16444.13449     15738.27447  21307065.605    21307073.285
       243.000         204.000
  23560883.204     3415171.54049   2653219.74145  23560882.101    23560898.495
       210.000         148.000
  23626612.708    -5516146.23649  -4268082.02645  23626612.586    23626626.090
       212.000         146.000
  22642727.046      -38314.27149    -26113.21446  22642727.496    22642738.072
       229.000         178.000
  20476138.463    -1119938.80449   -863669.31948  20476152.465    20476160.797
       245.000         217.000
  21921713.233     2519727.95949   1957472.38946  21921713.024    21921723.512
       233.000         187.000
  24173145.547     1509757.01949   1175526.88845  24173146.079    24173157.437
       217.000         149.000
 02 12 10 21 34 30.0000000  0  8G29G28G27G 4G26G 7G 8G11
  22416645.460      476855.68749    374012.54146  22416645.309    22416655.746
       227.000         177.000
  21311534.420       39925.17449     34035.19847  21311533.982    21311541.538
       243.000         204.000
  23580494.143     3518227.03649   2733522.52245  23580495.003    23580508.072
       207.000         145.000
  23606442.148    -5622142.39749  -4350676.25645  23606441.561    23606455.028
       210.000         145.000
  22648521.253       -7866.05849     -2387.34146  22648520.955    22648531.784
       228.000         177.000
  20476884.423    -1116018.61049   -860614.59748  20476898.408    20476906.783
       245.000         216.000
  21937965.131     2605131.87949   2024020.81946  21937964.773    21937975.295
       232.000         187.000
  24185317.839     1573722.61049   1225370.12245  24185317.203    24185330.267
       217.000         149.000
 02 12 10 21 35  0.0000000  0  8G29G28G27G 4G26G 7G 8G11
  22424424.194      517733.09749    405865.03446  22424424.024    22424433.907
       226.000         177.000
  21316030.420       63551.71549     52445.50147  21316030.119    21316037.538
       243.000         204.000
  23600146.961     3621502.80749   2813996.94345  23600146.039    23600162.530
       205.000         142.000
  23586277.232    -5728109.00049  -4433247.47145  23586276.441    23586289.674
       210.000         144.000
  22654406.875       23063.76049     21713.79746  22654407.470    22654417.375
       227.000         177.000
  20477704.277    -1111710.26249   -857257.41548  20477718.251    20477726.696
       245.000         217.000
  21954284.395     2690889.71149   2090845.02546  21954283.676    21954293.738
       232.000         186.000
  24197568.105     1638097.85349   1275532.54845  24197568.492    24197580.086
       216.000         149.000
 02 12 10 21 35 30.0000000  0  8G29G28G27G 4G26G 7G 8G11
  22432286.353      559048.73449    438059.00446  22432286.501    22432296.182
       227.000         177.000
  21320554.224       87324.24649     70969.56247  21320553.838    21320561.488
       243.000         204.000
  23619841.432     3724997.28349   2894641.77345  23619841.714    23619855.281
       205.000         140.000
  23566118.581    -5834042.73049  -4515793.06045  23566119.085    23566131.336
       212.000         143.000
  22660384.059       54473.72449     46189.08746  22660383.953    22660394.412
       228.000         177.000
  20478597.787    -1107014.66949   -853598.48648  20478611.692    20478620.308
       245.000         217.000
  21970670.747     2777000.29949   2157944.10846  21970670.541    21970680.987
       232.000         186.000
  24209896.085     1702881.28249   1326013.03945  24209896.108    24209907.333
       217.000         149.000
 02 12 10 21 36  0.0000000  0  8G29G28G27G 4G26G 7G 8G11
  22440231.398      600800.03549    470592.44846  22440231.301    22440240.629
       226.000         177.000
  21325105.789      111242.79949     89607.40547  21325105.107    21325112.984
       243.000         203.000
  23639577.237     3828708.22949   2975455.28545  23639576.572    23639591.570
       203.000         137.000
  23545966.644    -5939940.93049  -4598310.93545  23545966.916    23545980.111
       213.000         144.000
  22666452.242       86361.77549     71036.90446  22666452.292    22666462.320
       228.000         177.000
  20479564.715    -1101933.44849   -849639.06848  20479578.613    20479587.033
       245.000         216.000
  21987123.869     2863461.78149   2225316.60446  21987123.211    21987133.807
       233.000         185.000
  24222301.255     1768070.44249   1376809.69245  24222301.220    24222313.447
       217.000         150.000
 02 12 10 21 36 30.0000000  0  8G29G28G27G 4G26G 7G 8G11
  22448258.945      642984.74149    503463.61746  22448258.394    22448268.860
       227.000         177.000
  21329685.220      135307.92649    108359.47047  21329684.587    21329692.169
       244.000         203.000
  23659353.680     3932633.65449   3056435.92645  23659353.430    23659369.235
       206.000         138.000
  23525822.178    -6045800.52149  -4680798.74845  23525822.242    23525835.321
       214.000         146.000
  22672610.966      118726.07949     96255.82646  22672611.348    22672621.618
       227.000         177.000
  20480604.833    -1096467.52449   -845379.87748  20480618.743    20480627.331
       245.000         217.000
  22003643.515     2950272.78249   2292961.46146  22003643.215    22003653.532
       232.000         185.000
  24234783.367     1833663.95649   1427921.40245  24234783.858    24234794.907
       217.000         150.000
 02 12 10 21 37  0.0000000  0  8G29G28G27G 4G26G 7G 8G11
  22456368.625      685600.92049    536670.99746  22456368.440    22456379.044
       227.000         177.000
  21334292.682      159520.16049    127226.15747  21334292.217    21334299.621
       243.000         203.000
  23679170.663     4036771.80549   3137582.33145  23679171.780    23679185.006
       208.000         139.000
  23505685.709    -6151617.80749  -4763253.60145  23505685.543    23505699.361
       215.000         148.000
  22678860.067      151564.98649    121844.57846  22678860.132    22678870.611
       227.000         177.000
  20481717.953    -1090617.88649   -840821.69048  20481731.932    20481740.458
       245.000         216.000
  22020229.445     3037431.97649   2360877.63246  22020228.933    22020239.845
       232.000         185.000
  24247342.075     1899659.96949   1479346.77045  24247342.584    24247352.861
       217.000         150.000
 02 12 10 21 37 30.0000000  0  8G29G28G27G 4G26G 7G 8G11
  22464559.832      728645.83249    570212.45746  22464559.399    22464570.271
       226.000         177.000
  21338928.136      183879.60049    146207.55447  21338927.518    21338935.276
       243.000         203.000
  23699027.786     4141120.50149   3218892.82245  23699028.264    23699040.653
       208.000         138.000
  23485557.677    -6257390.33849  -4845673.56345  23485557.117    23485570.235
       217.000         150.000
  22685198.935      184876.31149    147801.44246  22685198.704    22685209.482
       227.000         177.000
  20482903.818    -1084386.09549   -835965.72148  20482917.761    20482926.360
       245.000         217.000
  22036881.237     3124937.40149   2429063.59446  22036880.875    22036891.843
       231.000         185.000
  24259977.037     1966056.79849   1531084.47445  24259977.067    24259988.615
       215.000         150.000
 02 12 10 21 38  0.0000000  0  8G29G28G27G 4G26G 7G 8G11
  22472832.179      772117.31549    604086.31046  22472831.992    22472842.047
       226.000         177.000
  21343591.672      208386.77549    165304.06547  21343591.119    21343598.977
       243.000         203.000
  23718924.528     4245677.70749   3300365.77745  23718924.890    23718938.352
       210.000         139.000
  23465438.960    -6363114.67549  -4928055.96645  23465438.585    23465452.800
       217.000         153.000
  22691627.295      218658.31549    174125.07146  22691627.663    22691637.692
       227.000         177.000
  20484162.179    -1077773.20349   -830812.78948  20484176.020    20484184.732
       245.000         217.000
  22053598.575     3212787.44249   2497518.08046  22053598.292    22053608.648
       231.000         184.000
  24272687.836     2032852.37049   1583132.89545  24272688.088    24272700.091
       216.000         150.000
 02 12 10 21 38 30.0000000  0  8G29G28G27G 4G26G 7G 8G11
  22481185.330      816013.35549    638290.98946  22481184.989    22481196.168
       226.000         176.000
  21348283.428      233042.13649    184516.03947  21348282.871    21348290.563
       243.000         203.000
  23738860.520     4350441.56349   3381999.75445  23738860.699    23738875.208
       209.000         139.000
  23445329.881    -6468787.96649  -5010398.60045  23445330.006    23445343.368
       219.000         154.000
  22698145.223      252909.19649    200814.06646  22698145.121    22698155.825
       226.000         177.000
  20485492.852    -1070780.40449   -825363.82848  20485506.859    20485515.383
       244.000         217.000
  22070381.273     3300980.80349   2566240.09146  22070381.513    22070391.654
       230.000         184.000
  24285474.323     2100045.23049   1635490.89845  24285474.116    24285487.329
       214.000         149.000
 02 12 10 21 39  0.0000000  0  8G29G28G27G 4G26G 7G 8G11
  22489618.737      860331.01549    672824.21146  22489618.091    22489629.790
       225.000         176.000
  21353003.366      257845.58849    203843.41447  21353003.014    21353010.642
       243.000         203.000
  23758835.477     4455409.64349   3463792.87045  23758834.611    23758850.075
       211.000         140.000
  23425231.036    -6574407.32249  -5092699.20645  23425230.990    23425243.759
       217.000         156.000
  22704751.683      287626.55049    227866.52646  22704751.348    22704762.276
       226.000         177.000
  20486895.507    -1063409.27549   -819620.06148  20486909.528    20486917.938
       245.000         217.000
  22087228.973     3389515.45049   2635228.04546  22087228.530    22087239.251
       231.000         183.000
  24298335.912     2167632.79549   1688156.44745  24298335.183    24298347.961
       216.000         149.000
 02 12 10 21 39 30.0000000  0  8G29G28G27G 4G26G 7G 8G11
  22498131.975      905068.42449    707684.49346  22498132.137    22498142.032
       226.000         176.000
  21357751.669      282798.13549    223286.95747  21357751.157    21357758.962
       244.000         203.000
  23778849.023     4560580.45549   3545743.95745  23778849.205    23778865.212
       211.000         141.000
  23405143.053    -6679969.39349  -5174955.16345  23405142.257    23405155.541
       218.000         157.000
  22711446.646      322808.75549    255281.22546  22711446.853    22711457.043
       228.000         177.000
  20488370.000    -1055660.75849   -813582.23148  20488383.967    20488392.379
       245.000         217.000
  22104141.343     3478390.14349   2704480.95046  22104140.602    22104151.698
       230.000         183.000
  24311272.343     2235613.81449   1741128.61345  24311272.186    24311285.325
       214.000         148.000
 02 12 10 21 40  0.0000000  0  8G29G28G27G 4G26G 7G 8G11
  22506724.515      950222.31449    742869.31846  22506724.429    22506735.152
       226.000         176.000
  21362528.197      307898.84449    242845.95447  21362527.810    21362535.366
       243.000         203.000
  23798900.494     4665950.58349   3627850.34245  23798900.164    23798915.127
       212.000         144.000
  23385066.414    -6785472.20749  -5257164.94645  23385065.816    23385079.520
       219.000         157.000
  22718229.443      358452.60149    283055.64246  22718229.447    22718239.561
       228.000         177.000
  20489915.813    -1047537.31149   -807252.24548  20489929.877    20489938.193
       245.000         217.000
  22121117.850     3567601.99449   2773996.59246  22121117.489    22121128.598
       231.000         183.000
  24324282.928     2303985.13449   1794404.90045  24324282.190    24324295.105
       215.000         147.000
 02 12 10 21 40 30.0000000  0  8G29G28G27G 4G26G 7G 8G11
  22515395.945      995791.06849    778377.40446  22515396.405    22515406.905
       226.000         175.000
  21367333.204      333149.21049    262521.57147  21367332.703    21367340.319
       243.000         203.000
  23818989.655     4771519.04849   3710111.29845  23818990.366    23819005.460
       210.000         143.000
  23365001.830    -6890911.60349  -5339325.30445  23365002.026    23365014.761
       216.000         157.000
  22725100.060      394557.26349    311189.13046  22725099.911    22725110.079
       228.000         177.000
  20491533.000    -1039039.06949   -800630.20948  20491547.017    20491555.329
       245.000         217.000
  22138158.439     3657150.40849   2843774.49046  22138158.112    22138168.936
       230.000         183.000
  24337367.816     2372745.96949   1847984.74245  24337367.051    24337380.496
       217.000         146.000
 02 12 10 21 41  0.0000000  0  8G29G28G27G 4G26G 7G 8G11
  22524145.943     1041772.15049    814206.80146  22524145.818    22524156.491
       225.000         175.000
  21372166.744      358549.53249    282314.03047  21372166.317    21372173.948
       243.000         203.000
  23839116.150     4877283.62149   3792525.03645  23839116.213    23839132.261
       212.000         144.000
  23344949.805    -6996284.85749  -5421434.10545  23344949.208    23344962.274
       216.000         157.000
  22732057.902      431120.42349    339679.89146  22732057.884    22732068.529
       227.000         177.000
  20493221.165    -1030167.53849   -793717.29548  20493235.149    20493243.472
       245.000         217.000
  22155262.699     3747033.59349   2913813.24246  22155262.321    22155273.258
       230.000         182.000
  24350526.362     2441894.11649   1901866.38745  24350525.542    24350537.599
       214.000         144.000
 02 12 10 21 41 30.0000000  0  8G29G28G27G 4G26G 7G 8G11
  22532973.859     1088163.20549    850355.64446  22532974.017    22532984.446
       224.000         175.000
  21377028.862      384100.20349    302223.64247  21377028.471    21377036.269
       243.000         203.000
  23859279.659     4983242.40349   3875090.11745  23859279.505    23859294.945
       213.000         146.000
  23324911.039    -7101588.44649  -5503488.63445  23324911.560    23324922.638
       217.000         157.000
  22739102.482      468140.26749    368526.51246  22739103.156    22739113.100
       227.000         177.000
  20494980.172    -1020923.87349   -786514.41048  20494994.211    20495002.640
       245.000         217.000
  22172430.407     3837250.03349   2984111.67546  22172430.266    22172440.707
       230.000         182.000
  24363758.292     2511427.92149   1956048.54945  24363758.051    24363770.840
       212.000         143.000
 02 12 10 21 42  0.0000000  0  8G29G28G27G 4G26G 7G 8G11
  22541879.400     1134962.13049    886822.30546  22541879.891    22541889.706
       226.000         174.000
  21381919.702      409801.68849    322250.76947  21381919.255    21381926.807
       243.000         203.000
  23879479.665     5089393.44749   3957805.01345  23879480.240    23879495.172
       211.000         146.000
  23304886.098    -7206819.30849  -5585486.48945  23304885.813    23304898.729
       217.000         158.000
  22746233.793      505614.68649    397727.34746  22746233.780    22746243.572
       229.000         177.000
  20496809.723    -1011309.31049   -779022.51148  20496823.664    20496832.167
       245.000         216.000
  22189661.209     3927798.08849   3054668.50746  22189661.497    22189671.357
       230.000         181.000
  24377063.140     2581345.37949   2010529.65145  24377061.012    24377076.156
       209.000         143.000
 02 12 10 21 42 30.0000000  0  8G29G28G27G 4G26G 7G 8G11
  22550862.152     1182165.98749    923604.51746  22550862.423    22550872.136
       226.000         175.000
  21386839.223      435654.15049    342395.54247  21386838.910    21386846.538
       243.000         203.000
  23899715.841     5195734.36949   4040667.86245  23899716.381    23899732.001
       209.000         146.000
  23284875.490    -7311974.72149  -5667425.54145  23284875.056    23284887.909
       216.000         158.000
  22753451.081      543541.34949    427280.57546  22753450.894    22753461.091
       227.000         176.000
  20498709.593    -1001325.42349   -771242.82948  20498723.539    20498731.996
       245.000         216.000
  22206954.725     4018675.81849   3125482.22046  22206954.785    22206965.385
       230.000         181.000
  24390440.588     2651644.25049   2065307.93145  24390440.330    24390452.412
       212.000         142.000
 02 12 10 21 43  0.0000000  0  8G29G28G27G 4G26G 7G 8G11
  22559921.299     1229772.29849    960700.31646  22559920.922    22559931.557
       224.000         174.000
  21391787.668      461658.24349    362658.46647  21391787.314    21391794.887
       243.000         203.000
  23919987.795     5302263.15549   4123677.08945  23919987.327    23920001.996
       206.000         145.000
  23264879.964    -7417051.28849  -5749303.16345  23264879.169    23264891.633
       216.000         157.000
  22760753.888      581918.26949    457184.67146  22760753.628    22760763.785
       227.000         175.000
  20500679.464     -990973.53249   -763176.38948  20500693.475    20500701.840
       245.000         216.000
  22224310.688     4109881.50049   3196551.49546  22224310.760    22224321.549
       229.000         181.000
  24403890.224     2722322.56349   2120381.88545  24403889.619    24403903.551
       209.000         144.000
 02 12 10 21 43 30.0000000  0  8G29G28G27G 4G26G 7G 8G11
  22569056.654     1277779.10049    998108.17846  22569057.247    22569067.346
       224.000         174.000
  21396765.055      487814.54649    383039.99447  21396764.648    21396772.423
       243.000         202.000
  23940295.080     5408978.04449   4206831.32145  23940294.429    23940310.791
       205.000         142.000
  23244900.007    -7522045.82449  -5831116.84945  23244900.101    23244912.804
       215.000         157.000
  22768142.029      620743.62149    487438.17646  22768143.003    22768152.738
       227.000         175.000
  20502719.221     -980254.56549   -754823.91948  20502733.083    20502741.578
       245.000         216.000
  22241728.684     4201413.53649   3267875.05746  22241728.462    22241739.087
       230.000         181.000
  24417411.845     2793379.08449   2175750.51245  24417411.698    24417424.050
       211.000         146.000
 02 12 10 21 44  0.0000000  0  9G29G28G27G 4G26G 9G 7G 8G11
  22578267.106     1326180.34149   1035823.39846  22578267.441    22578276.518
       225.000         173.000
  21401770.791      514119.78549    403537.58347  21401770.133    21401777.994
       243.000         202.000
  23960636.727     5515873.23949   4290126.04345  23960635.797    23960652.273
       206.000         142.000
  23224935.572    -7626958.71049  -5912866.92145  23224935.662    23224948.181
       216.000         156.000
  22775614.550      660011.71549    518036.68846  22775614.070    22775625.078
       227.000         175.000
  24350048.797    -5857735.92949  -4527619.26845  24350048.932    24350062.751
       209.000         141.000
  20504827.860     -969173.50849   -746189.29748  20504841.823    20504850.202
       245.000         216.000
  22259207.881     4293266.93549   3339449.03246  22259207.052    22259218.101
       229.000         181.000
  24431004.370     2864807.87049   2231409.22045  24431004.138    24431017.099
       207.000         146.000
 02 12 10 21 44 30.0000000  0  9G29G28G27G 4G26G 9G 7G 8G11
  22587552.710     1374976.16749   1073846.09246  22587552.493    22587562.879
       224.000         173.000
  21406805.491      540577.27449    424153.80247  21406805.147    21406812.864
       243.000         202.000
  23981012.790     5622949.43449   4373561.82745  23981012.271    23981028.509
       205.000         141.000
  23204987.794    -7731784.11049  -5994548.83045  23204987.531    23204999.975
       215.000         156.000
  22783171.292      699723.07149    548980.59046  22783171.928    22783181.602
       227.000         175.000
  24330444.235    -5960757.67949  -4607895.74645  24330443.135    24330455.832
       201.000         136.000
  20507005.653     -957728.91749   -737271.40748  20507019.666    20507028.029
       245.000         216.000
  22276748.437     4385442.52949   3411274.07046  22276748.598    22276758.935
       229.000         180.000
  24444667.787     2936609.61649   2287358.54845  24444667.749    24444679.931
       211.000         145.000
 02 12 10 21 45  0.0000000  0  9G29G28G27G 4G26G 9G 7G 8G11
  22596913.306     1424166.27449   1112176.02246  22596913.272    22596924.039
       225.000         173.000
  21411869.645      567189.61749    444890.69347  21411869.002    21411876.823
       243.000         202.000
  24001423.351     5730206.70349   4457138.70245  24001423.160    24001438.540
       203.000         139.000
  23185057.689    -7836516.74649  -6076158.46845  23185057.299    23185070.249
       218.000         156.000
  22790812.475      739877.66949    580269.88546  22790812.079    22790822.041
       227.000         175.000
  24310861.281    -6063666.14549  -4688083.98545  24310860.661    24310875.226
       206.000         139.000
  20509252.816     -945920.00749   -728069.63148  20509266.700    20509275.195
       245.000         216.000
  22294350.351     4477940.74749   3483350.49246  22294350.402    22294360.462
       229.000         180.000
  24458402.309     3008784.61749   2343598.70745  24458402.141    24458414.741
       211.000         146.000
 02 12 10 21 45 30.0000000  0  9G29G28G27G 4G26G 9G 7G 8G11
  22606348.288     1473747.14049   1150810.42446  22606348.850    22606358.494
       225.000         173.000
  21416963.181      593956.14549    465747.72247  21416962.775    21416970.577
       243.000         202.000
  24021867.692     5837642.07949   4540854.34445  24021867.567    24021883.714
       201.000         136.000
  23165145.625    -7941154.36049  -6157694.08945  23165146.103    23165157.619
       219.000         156.000
  22798537.539      780472.47749    611902.18846  22798538.240    22798547.878
       226.000         174.000
  24291300.014    -6166460.21549  -4768183.01945  24291297.854    24291312.478
       199.000         138.000
  20511568.832     -933749.12849   -718585.80448  20511582.807    20511591.105
       245.000         216.000
  22312013.108     4570758.80849   3555676.15346  22312012.735    22312023.876
       229.000         180.000
  24472207.162     3081329.63849   2400127.20245  24472206.294    24472219.987
       214.000         146.000
 02 12 10 21 46  0.0000000  0  9G29G28G27G 4G26G 9G 7G 8G11
  22615857.091     1523715.82749   1189747.03146  22615856.858    22615867.153
       223.000         172.000
  21422086.083      620877.18449    486725.15147  21422085.809    21422093.163
       243.000         202.000
  24042345.579     5945253.23949   4624706.93745  24042345.161    24042361.484
       198.000         135.000
  23145252.239    -8045694.09549  -6239153.43045  23145252.265    23145263.904
       219.000         157.000
  22806345.747      821504.90649    643875.50046  22806345.166    22806355.712
       226.000         174.000
  24271760.965    -6269137.69449  -4848191.23045  24271760.920    24271773.860
       207.000         140.000
  20513953.448     -921217.91049   -708821.19548  20513967.416    20513975.761
       245.000         216.000
  22329736.386     4663894.89449   3628249.62546  22329736.225    22329747.371
       229.000         180.000
  24486082.243     3154243.16949   2456942.88745  24486081.588    24486094.703
       217.000         146.000
 02 12 10 21 46 30.0000000  0  9G29G28G27G 4G26G 9G 7G 8G11
  22625439.068     1574069.86549   1228983.90646  22625439.484    22625448.813
       224.000         172.000
  21427238.409      647952.86749    507823.08147  21427238.012    21427245.577
       243.000         202.000
  24062856.343     6053037.50649   4708694.42445  24062856.451    24062871.923
       201.000         135.000
  23125378.030    -8150133.30449  -6320534.44545  23125377.524    23125389.841
       221.000         158.000
  22814236.814      862972.51749    676187.91846  22814237.322    22814246.839
       225.000         174.000
  24252244.450    -6371696.63949  -4928107.12445  24252244.101    24252257.375
       205.000         139.000
  20516406.283     -908328.00149   -698777.09048  20516420.228    20516428.645
       245.000         216.000
  22347519.737     4757346.66649   3701069.07046  22347520.064    22347530.779
       228.000         179.000
  24500026.971     3227522.22549   2514043.38545  24500026.315    24500038.803
       215.000         145.000
 02 12 10 21 47  0.0000000  0  9G29G28G27G 4G26G 9G 7G 8G11
  22635093.911     1624806.15749   1268518.64546  22635093.971    22635104.907
       225.000         172.000
  21432420.186      675183.17349    529041.50147  21432419.894    21432427.452
       243.000         202.000
  24083399.688     6160992.62349   4792815.08145  24083399.609    24083415.741
       200.000         135.000
  23105523.501    -8254468.82449  -6401834.67145  23105522.689    23105535.780
       219.000         159.000
  22822210.144      904872.75549    708837.43946  22822209.703    22822220.522
       225.000         174.000
  24232751.025    -6474134.92749  -5007928.93245  24232750.456    24232763.959
       209.000         146.000
  20518927.099     -895081.04249   -688454.76248  20518941.003    20518949.369
       245.000         216.000
  22365362.808     4851112.16849   3774132.98946  22365362.901    22365373.578
       228.000         179.000
  24514040.745     3301164.52449   2571426.94845  24514039.813    24514053.327
       214.000         142.000
 02 12 10 21 47 30.0000000  0  9G29G28G27G 4G26G 9G 7G 8G11
  22644821.040     1675922.33249   1308349.38646  22644821.546    22644830.654
       224.000         171.000
  21437631.554      702568.89149    550381.01747  21437631.127    21437639.061
       243.000         202.000
  24103975.113     6269116.61649   4877067.28445  24103974.696    24103991.503
       201.000         135.000
  23085689.297    -8358697.35349  -6483051.53745  23085688.600    23085701.029
       221.000         159.000
  22830265.324      947203.57949    741822.48146  22830265.606    22830276.277
       226.000         174.000
  24213281.008    -6576450.06349  -5087654.81845  24213279.655    24213294.792
       206.000         144.000
  20521515.626     -881478.26849   -677855.18148  20521529.711    20521537.900
       245.000         216.000
  22383265.243     4945189.62549   3847439.98146  22383265.008    22383275.778
       228.000         179.000
  24528123.331     3375168.26049   2629092.13945  24528124.093    24528135.197
       209.000         139.000
 02 12 10 21 48  0.0000000  0  8G29G28G 4G26G 9G 7G 8G11
  22654619.958     1727415.95849   1348474.24546  22654620.293    22654629.570
       225.000         171.000
  21442872.619      730110.77849    571842.22547  21442872.338    21442879.845
       242.000         202.000
  23065876.088    -8462815.84249  -6564182.66045  23065875.377    23065888.015
       221.000         159.000
  22838402.177      989962.91949    775141.43346  22838402.753    22838412.510
       225.000         174.000
  24193834.849    -6678639.29849  -5167282.58445  24193834.577    24193847.691
       210.000         146.000
  20524171.597     -867520.89049   -666979.29048  20524185.692    20524193.853
       244.000         216.000
  22401226.766     5039577.69649   3920989.02446  22401226.474    22401237.923
       228.000         178.000
  24542274.238     3449531.80949   2687037.69445  24542273.548    24542286.603
       205.000         136.000
 02 12 10 21 48 30.0000000  0  8G29G28G 4G26G 9G 7G 8G11
  22664490.384     1779284.87149   1388891.55146  22664490.989    22664500.822
       225.000         171.000
  21448143.468      757809.31249    593425.49447  21448143.020    21448150.618
       242.000         201.000
  23046084.490    -8566820.57249  -6645225.14845  23046083.708    23046096.631
       221.000         160.000
  22846620.236     1033148.90249    808792.84046  22846620.034    22846630.688
       225.000         173.000
  24174413.342    -6780699.87349  -5246810.09545  24174412.762    24174425.283
       208.000         144.000
  20526894.860     -853210.01449   -655827.94048  20526908.647    20526917.172
       245.000         216.000
  22419247.052     5134274.55049   3994778.67746  22419246.519    22419257.762
       227.000         178.000
  24556493.224     3524253.10149   2745261.97445  24556493.363    24556506.790
       202.000         133.000
 02 12 10 21 49  0.0000000  0  8G29G28G 4G26G 9G 7G 8G11
  22674431.433     1831525.51549   1429598.50346  22674431.298    22674441.455
       224.000         171.000
  21453444.021      785663.94749    615130.40247  21453443.410    21453450.970
       242.000         201.000
  23026315.102    -8670709.31649  -6726177.25245  23026314.614    23026327.897
       224.000         161.000
  22854918.785     1076758.28649    842774.15246  22854918.919    22854929.006
       226.000         173.000
  24155016.549    -6882630.19049  -5326236.14545  24155016.040    24155029.522
       209.000         145.000
  20529684.930     -838547.91849   -644402.91648  20529698.725    20529707.215
       245.000         216.000
  22437325.615     5229277.66149   4068806.96146  22437325.113    22437336.270
       227.000         177.000
  24570779.673     3599329.05349   2803762.60145  24570779.134    24570794.015
       205.000         135.000
 02 12 10 21 49 30.0000000  0  8G29G28G 4G26G 9G 7G 8G11
  22684442.794     1884135.28149   1470593.08746  22684442.747    22684452.980
       224.000         171.000
  21458774.482      813675.75149    636957.77647  21458774.020    21458781.726
       242.000         201.000
  23006568.277    -8774479.00649  -6807036.60545  23006568.544    23006580.314
       223.000         162.000
  22863297.612     1120788.66749    877083.52046  22863297.938    22863306.960
       225.000         173.000
  24135644.984    -6984427.80549  -5405558.73445  24135643.991    24135658.049
       209.000         148.000
  20532541.574     -823536.08149   -632705.36948  20532555.538    20532563.920
       245.000         216.000
  22455462.145     5324585.40349   4143072.62446  22455462.377    22455473.296
       227.000         177.000
  24585133.293     3674757.76149   2862538.10345  24585132.477    24585145.104
       211.000         139.000
 02 12 10 21 50  0.0000000  0  8G29G28G 4G26G 9G 7G 8G11
  22694523.811     1937111.20649   1511872.97946  22694524.588    22694533.796
       225.000         171.000
  21464134.913      841844.85749    658907.72447  21464134.339    21464142.309
       242.000         201.000
  22986844.623    -8878126.56549  -6887800.77245  22986844.359    22986856.560
       223.000         162.000
  22871755.913     1165237.58349    911719.03146  22871756.013    22871766.566
       225.000         173.000
  24116298.966    -7086090.64649  -5484776.35145  24116297.724    24116311.602
       215.000         146.000
  20535464.460     -808176.13249   -620736.56248  20535478.484    20535486.917
       245.000         216.000
  22473656.232     5420195.32849   4217573.74946  22473656.122    22473667.156
       227.000         177.000
  24599553.784     3750537.20549   2921586.94645  24599553.573    24599566.141
       212.000         143.000
 02 12 10 21 50 30.0000000  0  8G29G28G 4G26G 9G 7G 8G11
  22704674.155     1990450.93149   1553436.36146  22704674.421    22704684.168
       225.000         171.000
  21469525.346      870171.89149    680980.73347  21469524.847    21469532.560
       242.000         201.000
  22967144.901    -8981648.69349  -6968467.20145  22967144.157    22967156.817
       221.000         162.000
  22880293.500     1210102.73949    946678.88646  22880293.532    22880304.215
       225.000         173.000
  24096979.224    -7187616.10149  -5563886.97345  24096978.379    24096991.761
       212.000         148.000
  20538453.378     -792469.30049   -608497.45848  20538467.355    20538475.710
       245.000         216.000
  22491907.461     5516105.89149   4292309.13446  22491907.037    22491918.803
       227.000         176.000
  24614040.624     3826665.38649   2980907.53145  24614040.924    24614053.040
       218.000         146.000
 02 12 10 21 51  0.0000000  0  8G29G28G 4G26G 9G 7G 8G11
  22714893.050     2044151.63849   1595281.03246  22714892.337    22714904.374
       223.000         170.000
  21474945.918      898657.07549    703176.97447  21474945.275    21474953.287
       241.000         201.000
  22947469.585    -9085042.47449  -7049033.61046  22947468.958    22947481.734
       221.000         163.000
  22888909.738     1255381.85849    981961.28646  22888909.927    22888920.312
       225.000         172.000
  24077685.940    -7289002.10349  -5642888.82245  24077685.505    24077698.211
       212.000         149.000
  20541507.990     -776417.12149   -595989.25348  20541521.910    20541530.441
       245.000         216.000
  22510215.579     5612315.18449   4367277.29746  22510215.032    22510225.999
       226.000         175.000
  24628593.316     3903139.87949   3040497.99145  24628593.390    24628606.066
       216.000         144.000
 02 12 10 21 51 30.0000000  0  8G29G28G 4G26G 9G 7G 8G11
  22725180.196     2098210.99749   1637405.15846  22725181.214    22725190.618
       224.000         170.000
  21480396.667      927300.94949    725496.86647  21480396.251    21480403.974
       242.000         201.000
  22927819.437    -9188304.21949  -7129497.11246  22927818.581    22927830.956
       220.000         163.000
  22897604.565     1301072.91749   1017564.67746  22897604.508    22897614.424
       225.000         172.000
  24058419.814    -7390245.44749  -5721779.60345  24058419.253    24058432.293
       212.000         146.000
  20544628.142     -760020.70049   -583212.81148  20544642.060    20544650.460
       245.000         216.000
  22528580.236     5708821.59649   4442476.98846  22528579.989    22528591.573
       226.000         175.000
  24643211.531     3979958.89849   3100356.88945  24643211.210    24643224.391
       215.000         142.000
 02 12 10 21 52  0.0000000  0  8G29G28G 4G26G 9G 7G 8G11
  22735535.189     2152626.21149   1679806.57646  22735535.177    22735545.824
       224.000         170.000
  21485877.718      956103.92449    747940.74347  21485877.387    21485884.947
       241.000         201.000
  22908194.940    -9291431.01049  -7209855.45646  22908194.737    22908207.104
       222.000         164.000
  22906377.276     1347173.35549   1053487.09546  22906377.605    22906388.255
       225.000         172.000
  24039181.276    -7491344.06049  -5800557.57045  24039180.552    24039193.910
       213.000         146.000
  20547813.466     -743281.60849   -570169.34848  20547827.415    20547835.664
       245.000         216.000
  22547001.040     5805623.08049   4517906.59546  22547000.736    22547012.037
       226.000         175.000
  24657894.949     4057120.19749   3160482.53345  24657895.074    24657907.724
       213.000         140.000
 02 12 10 21 52 30.0000000  0  8G29G28G 4G26G 9G 7G 8G11
  22745957.224     2207394.38449   1722483.03546  22745957.761    22745968.173
       224.000         170.000
  21491389.156      985066.64149    770509.08647  21491388.771    21491396.338
       241.000         200.000
  22888596.662    -9394419.65549  -7290106.16046  22888596.704    22888608.635
       219.000         164.000
  22915227.224     1393680.51549   1089726.40446  22915226.938    22915236.602
       224.000         172.000
  24019970.678    -7592295.65549  -5879220.99945  24019970.271    24019982.493
       215.000         147.000
  20551063.679     -726201.54449   -556860.20148  20551077.765    20551086.051
       244.000         216.000
  22565477.594     5902717.57849   4593564.52746  22565477.245    22565488.744
       226.000         174.000
  24672642.976     4134621.46949   3220873.06245  24672641.356    24672653.602
       210.000         137.000
 02 12 10 21 53  0.0000000  0  8G29G28G 4G26G 9G 7G 8G11
  22756446.073     2262513.13249   1765432.65946  22756446.570    22756456.214
       224.000         170.000
  21496931.093     1014189.69349    793202.36847  21496930.645    21496938.415
       241.000         200.000
  22869025.367    -9497266.53149  -7370246.37546  22869025.383    22869036.354
       220.000         164.000
  22924154.275     1440592.50449   1126281.18146  22924154.788    22924164.798
       225.000         171.000
  24000788.601    -7693097.49049  -5957767.71645  24000788.050    24000801.979
       212.000         148.000
  20554378.618     -708781.45149   -543286.09248  20554392.660    20554400.945
       245.000         216.000
  22584009.647     6000103.60149   4669449.63946  22584009.486    22584020.844
       227.000         174.000
  24687455.316     4212460.93749   3281527.12045  24687455.390    24687466.785
       211.000         135.000
 02 12 10 21 53 30.0000000  0  8G29G28G 4G26G 9G 7G 8G11
  22767001.054     2317979.81749   1808653.40446  22767001.303    22767011.514
       224.000         170.000
  21502503.574     1043473.38549    816020.81947  21502503.037    21502510.678
       241.000         200.000
  22849481.574    -9599969.08949  -7450274.13846  22849481.643    22849493.067
       222.000         164.000
  22933157.898     1487906.62649   1163149.31546  22933158.545    22933168.943
       226.000         171.000
  23981635.449    -7793747.07649  -6036195.85745  23981634.250    23981646.457
       213.000         143.000
  20557757.913     -691023.13149   -529448.43548  20557771.861    20557780.050
       245.000         216.000
  22602596.786     6097779.17649   4745560.35546  22602596.798    22602607.857
       225.000         174.000
  24702331.581     4290636.24449   3342442.87645  24702332.171    24702343.104
       211.000         133.000
 02 12 10 21 54  0.0000000  0  7G29G28G 4G26G 9G 7G 8
  22777622.260     2373794.52149   1852145.33746  22777621.751    22777631.257
       223.000         170.000
  21508107.432     1072921.62849    838967.48847  21508106.907    21508114.366
       241.000         200.000
  22829966.502    -9702520.44449  -7530184.06446  22829966.263    22829978.554
       221.000         164.000
  22942238.209     1535623.86649   1200331.55846  22942238.719    22942249.202
       224.000         171.000
  23962512.426    -7894238.40949  -6114500.61745  23962511.958    23962525.364
       212.000         146.000
  20561201.917     -672924.73949   -515345.78748  20561215.966    20561224.353
       245.000         216.000
  22621239.230     6195745.46749   4821897.59746  22621239.092    22621250.473
       226.000         173.000
 02 12 10 21 54 30.0000000  0  7G29G28G 4G26G 9G 7G 8
  22788308.479     2429951.27149   1895903.78946  22788308.662    22788318.528
       223.000         169.000
  21513741.946     1102531.32349    862039.97047  21513741.627    21513749.214
       241.000         200.000
  22810480.150    -9804921.43949  -7609976.82146  22810480.533    22810491.063
       221.000         165.000
  22951394.054     1583737.90849   1237822.99646  22951394.320    22951404.633
       225.000         171.000
  23943419.087    -7994573.27849  -6192683.45345  23943417.937    23943431.055
       209.000         143.000
  20564709.664     -654491.47449   -500982.19748  20564723.628    20564731.910
       245.000         216.000
  22639935.943     6293996.80749   4898456.97646  22639935.919    22639947.211
       225.000         173.000
 02 12 10 21 55  0.0000000  0  7G29G28G 4G26G 9G 7G 8
  22799058.685     2486443.15049   1939923.38546  22799059.130    22799069.274
       223.000         169.000
  21519406.489     1132298.60249    885235.23047  21519406.265    21519413.612
       241.000         200.000
  22791022.333    -9907172.67049  -7689652.89346  22791021.454    22791034.206
       221.000         166.000
  22960624.061     1632242.24849   1275618.54546  22960624.361    22960633.889
       225.000         170.000
  23924355.410    -8094752.95749  -6270745.38645  23924355.034    23924367.543
       209.000         143.000
  20568280.064     -635728.82049   -486361.95248  20568294.036    20568302.469
       245.000         216.000
  22658685.750     6392527.26749   4975233.81946  22658685.898    22658697.132
       226.000         173.000
 02 12 10 21 55 30.0000000  0  7G29G28G 4G26G 9G 7G 8
  22809873.635     2543275.93849   1984208.60446  22809873.243    22809883.686
       222.000         168.000
  21525102.865     1162233.02049    908560.73047  21525102.532    21525109.767
       241.000         200.000
  22771595.127   -10009262.36649  -7769203.08546  22771594.483    22771606.606
       222.000         167.000
  22969929.640     1681143.19049   1313723.15346  22969929.918    22969940.329
       223.000         170.000
  23905323.390    -8194766.20849  -6348677.63245  23905322.620    23905335.651
       211.000         144.000
  20571914.539     -616629.58549   -471479.43748  20571928.390    20571936.724
       245.000         216.000
  22677490.022     6491343.73249   5052233.52546  22677490.050    22677501.046
       227.000         173.000
 02 12 10 21 56  0.0000000  0  7G29G28G 4G26G 9G 7G 8
  22820752.478     2600444.56249   2028755.53246  22820752.622    22820764.029
       223.000         169.000
  21530830.577     1192332.37149    932014.76347  21530830.067    21530837.813
       241.000         200.000
  22752198.826   -10111189.92649  -7848626.95046  22752198.421    22752210.052
       222.000         167.000
  22979309.714     1730435.86149   1352133.01146  22979310.305    22979320.791
       225.000         170.000
  23886322.936    -8294613.12449  -6426480.17945  23886323.662    23886335.096
       210.000         142.000
  20575612.270     -597197.77749   -456337.76148  20575626.270    20575634.570
       244.000         215.000
  22696347.902     6590441.64849   5129452.55146  22696348.195    22696359.778
       226.000         172.000
 02 12 10 21 56 30.0000000  0  7G29G28G 4G26G 9G 7G 8
  22831693.276     2657938.38449   2073555.83846  22831693.008    22831704.008
       223.000         169.000
  21536588.320     1222589.42249    955591.67347  21536587.791    21536595.471
       241.000         200.000
  22732832.476   -10212959.75049  -7927927.89146  22732832.727    22732842.955
       223.000         167.000
  22988762.439     1780109.84349   1390839.98846  22988762.911    22988772.034
       224.000         170.000
  23867353.402    -8394299.05849  -6504157.40845  23867352.166    23867365.450
       206.000         141.000
  20579371.581     -577442.62249   -440944.12848  20579385.578    20579393.848
       245.000         215.000
  22715257.468     6689811.26749   5206883.29146  22715256.945    22715268.797
       226.000         172.000
 02 12 10 21 57  0.0000000  0  7G29G28G 4G26G 9G 7G 8
  22842696.645     2715760.94049   2118612.32846  22842696.350    22842706.315
       223.000         168.000
  21542377.380     1253010.98649    979296.76947  21542376.963    21542384.527
       241.000         200.000
  22713498.010   -10314562.47049  -8007098.62046  22713497.403    22713509.470
       225.000         168.000
  22998288.356     1830168.87649   1429847.00546  22998288.606    22998298.642
       224.000         170.000
  23848415.775    -8493815.10949  -6581702.13045  23848416.255    23848427.872
       211.000         141.000
  20583193.244     -557359.53949   -425294.96548  20583207.122    20583215.561
       245.000         215.000
  22734219.497     6789456.94249   5284529.15046  22734219.238    22734231.034
       226.000         172.000
 02 12 10 21 57 30.0000000  0  7G29G28G 4G26G 9G 7G 8
  22853761.811     2773909.28849   2163922.65746  22853761.270    22853771.410
       222.000         167.000
  21548197.783     1283597.53349   1003130.42447  21548197.553    21548204.691
       241.000         199.000
  22694195.900   -10415994.84049  -8086136.62746  22694195.745    22694207.210
       225.000         168.000
  23007887.153     1880610.41349   1469152.08246  23007888.051    23007898.178
       224.000         170.000
  23829511.248    -8593158.76349  -6659112.57445  23829510.833    23829522.325
       209.000         143.000
  20587077.065     -536949.86449   -409391.31948  20587091.113    20587099.139
       244.000         215.000
  22753233.706     6889376.83549   5362388.67246  22753233.035    22753245.557
       225.000         172.000
 02 12 10 21 58  0.0000000  0  7G29G28G 4G26G 9G 7G 8
  22864888.485     2832380.45749   2209484.55546  22864888.307    22864899.777
       222.000         168.000
  21554049.683     1314349.17149   1027092.72047  21554049.442    21554056.802
       241.000         199.000
  22674926.788   -10517253.94349  -8165039.61546  22674926.615    22674937.944
       223.000         169.000
  23017558.101     1931431.59249   1508752.96946  23017557.796    23017568.512
       223.000         169.000
  23810639.859    -8692327.83149  -6736387.00245  23810639.138    23810650.847
       209.000         145.000
  20591022.690     -516215.43649   -393234.61448  20591036.712    20591044.984
       244.000         215.000
  22772299.614     6989568.28649   5440459.80046  22772299.175    22772310.858
       225.000         171.000
 02 12 10 21 58 30.0000000  0  7G29G28G 4G26G 9G 7G 8
  22876076.212     2891171.67749   2255295.82446  22876076.712    22876086.711
       221.000         167.000
  21559933.080     1345266.67949   1051184.26947  21559932.959    21559940.514
       241.000         199.000
  22655691.273   -10618336.66949  -8243805.16246  22655690.972    22655702.479
       225.000         169.000
  23027300.905     1982630.19949   1548647.95946  23027301.441    23027310.552
       225.000         169.000
  23791802.233    -8791319.62349  -6813523.22745  23791802.728    23791815.194
       218.000         150.000
  20595029.851     -495157.64649   -376825.93548  20595043.888    20595052.198
       245.000         215.000
  22791416.892     7090029.62149   5518741.22546  22791416.251    22791427.913
       226.000         171.000
 02 12 10 21 59  0.0000000  0  7G29G28G 4G26G 9G 7G 8
  22887324.186     2950279.68749   2301353.94446  22887324.265    22887333.996
       221.000         167.000
  21565848.135     1376350.22549   1075405.19647  21565847.714    21565855.540
       241.000         199.000
  22636489.882   -10719240.10749  -8322431.02246  22636490.014    22636501.443
       225.000         169.000
  23037114.981     2034202.90849   1588834.46246  23037114.068    23037124.967
       223.000         169.000
  23772998.829    -8890132.27149  -6890519.91345  23772996.537    23773009.402
       212.000         151.000
  20599098.169     -473778.55349   -360166.89048  20599112.131    20599120.486
       245.000         215.000
  22810585.094     7190758.49049   5597231.11946  22810584.021    22810596.104
       225.000         171.000
 02 12 10 21 59 30.0000000  0  7G29G28G 4G26G 9G 7G 8
  22898631.851     3009702.12149   2347657.05846  22898631.867    22898642.421
       221.000         167.000
  21571794.878     1407600.52249   1099756.05747  21571794.637    21571801.940
       241.000         199.000
  22617323.252   -10819960.51249  -8400914.25046  22617322.783    22617333.533
       225.000         170.000
  23046999.780     2086147.93149   1629311.07046  23046999.454    23047009.657
       225.000         169.000
  23754229.976    -8988762.59849  -6967374.53345  23754229.739    23754241.047
       215.000         153.000
  20603227.436     -452079.17549   -343258.27048  20603241.413    20603249.713
       244.000         215.000
  22829803.820     7291753.26349   5675928.20446  22829803.806    22829815.589
       224.000         170.000
 02 12 10 22  0  0.0000000  0  7G29G28G 4G26G 9G 7G 8
  22909998.002     3069431.33349   2394199.22246  22909997.599    22910008.120
       220.000         167.000
  21577772.570     1439013.33549   1124233.55547  21577772.079    21577779.892
       241.000         199.000
  22598191.084   -10920499.81149  -8479256.35046  22598190.658    22598201.678
       224.000         170.000
  23056954.059     2138457.74349   1670071.93946  23056953.793    23056965.018
       223.000         169.000
  23735495.334    -9087212.94149  -7044088.89445  23735494.809    23735507.531
       217.000         155.000
  20607416.394     -430065.94249   -326105.09248  20607430.443    20607438.597
       244.000         215.000
  22849071.827     7393006.88749   5754826.98946  22849071.497    22849083.901
       223.000         170.000
 02 12 10 22  0 30.0000000  0  7G29G28G 4G26G 9G 7G 8
  22921423.185     3129470.66049   2440983.03446  22921423.379    22921433.822
       221.000         166.000
  21583782.481     1470595.61449   1148843.10447  21583781.869    21583789.402
       241.000         199.000
  22579095.176   -11020848.43149  -8557449.87146  22579094.988    22579106.460
       225.000         170.000
  23066978.341     2191135.90149   1711119.83746  23066978.583    23066988.379
       225.000         169.000
  23716796.611    -9185474.56349  -7120656.19545  23716796.274    23716807.665
       217.000         156.000
  20611666.028     -407734.02249   -308703.58448  20611680.091    20611688.319
       245.000         215.000
  22868389.924     7494523.74349   5833930.88646  22868389.224    22868401.979
       222.000         170.000
 02 12 10 22  1  0.0000000  0  7G29G28G 4G26G 9G 7G 8
  22932906.985     3189817.51449   2488006.48346  22932907.409    22932916.998
       222.000         166.000
  21589824.780     1502348.08149   1173585.27147  21589824.486    21589831.840
       241.000         199.000
  22560036.306   -11121002.73549  -8635491.97946  22560036.252    22560047.267
       226.000         171.000
  23077072.299     2244180.01149   1752452.87746  23077071.666    23077083.143
       224.000         169.000
  23698134.348    -9283544.84449  -7197074.44345  23698134.013    23698146.095
       220.000         158.000
  20615975.990     -385084.97849   -291054.96648  20615989.907    20615998.199
       244.000         215.000
  22887757.739     7596301.99549   5913238.46946  22887757.615    22887770.002
       222.000         169.000
 02 12 10 22  1 30.0000000  0  7G29G28G 4G26G 9G 7G 8
  22944448.226     3250467.42049   2535266.05946  22944448.219    22944458.302
       218.000         165.000
  21595899.280     1534269.48849   1198459.08047  21595898.970    21595906.541
       241.000         199.000
  22541014.643   -11220961.50949  -8713381.72046  22541013.611    22541025.713
       225.000         171.000
  23087235.084     2297585.93649   1794067.85946  23087234.390    23087245.014
       224.000         169.000
  23679508.712    -9381422.82049  -7273342.77545  23679507.878    23679520.312
       218.000         159.000
  20620345.720     -362121.78249   -273161.55848  20620359.742    20620367.963
       244.000         215.000
  22907174.612     7698338.00349   5992746.90946  22907173.824    22907186.256
       222.000         169.000
 02 12 10 22  2  0.0000000  0  7G29G28G 4G26G 9G 7G 8
  22956046.495     3311417.45049   2582759.49646  22956046.290    22956057.557
       220.000         165.000
  21602005.985     1566360.43749   1223464.99447  21602005.833    21602013.129
       241.000         198.000
  22522030.830   -11320721.28149  -8791116.38746  22522030.603    22522041.586
       225.000         172.000
  23097466.297     2351350.90149   1835962.61846  23097467.026    23097475.989
       225.000         169.000
  23660920.237    -9479105.89149  -7349459.30445  23660919.546    23660931.968
       218.000         160.000
  20624774.944     -338846.00349   -255024.57748  20624788.876    20624797.318
       244.000         215.000
  22926640.217     7800629.89749   6072454.72846  22926640.187    22926652.041
       222.000         168.000
 02 12 10 22  2 30.0000000  0  7G29G28G 4G26G 9G 7G 8
  22967701.599     3372664.42249   2630484.33446  22967702.430    22967712.017
       220.000         165.000
  21608145.001     1598621.01849   1248603.09847  21608144.563    21608152.117
       240.000         198.000
  22503085.404   -11420279.25749  -8868693.81046  22503085.668    22503095.367
       226.000         172.000
  23107765.312     2405472.10349   1878134.96246  23107765.347    23107776.039
       225.000         169.000
  23642369.158    -9576591.76349  -7425422.14645  23642368.239    23642379.500
       218.000         159.000
  20629263.298     -315259.54449   -236645.50948  20629277.428    20629285.454
       245.000         215.000
  22946154.004     7903174.88449   6152359.77046  22946153.229    22946166.188
       222.000         168.000
 02 12 10 22  3  0.0000000  0  7G29G28G 4G26G 9G 7G 8
  22979412.610     3434205.61449   2678438.42346  22979413.223    22979422.737
       220.000         165.000
  21614316.458     1631052.09649   1273874.05547  21614316.090    21614323.407
       241.000         198.000
  22484179.039   -11519632.17749  -8946111.43746  22484179.197    22484189.029
       225.000         172.000
  23118131.551     2459946.94349   1920582.85846  23118131.900    23118140.701
       225.000         169.000
  23623856.063    -9673877.79749  -7501229.27145  23623855.635    23623867.066
       218.000         160.000
  20633810.499     -291363.90249   -218025.52248  20633824.501    20633832.813
       245.000         215.000
  22965715.631     8005971.38649   6232460.79446  22965715.496    22965727.631
       221.000         168.000
 02 12 10 22  3 30.0000000  0  7G29G28G 4G26G 9G 7G 8
  22991179.009     3496038.01249   2726619.42546  22991179.388    22991190.246
       220.000         165.000
  21620520.382     1663653.92149   1299278.06147  21620520.145    21620527.539
       240.000         198.000
  22465312.249   -11618776.86249  -9023366.81246  22465312.568    22465322.171
       226.000         172.000
  23128564.589     2514772.65849   1963304.14546  23128565.277    23128573.324
       223.000         169.000
  23605381.445    -9770961.68549  -7576878.91345  23605380.655    23605392.744
       216.000         157.000
  20638416.224     -267160.63649   -199165.82748  20638430.182    20638438.512
       244.000         215.000
  22985324.690     8109017.11549   6312756.01646  22985324.501    22985337.932
       221.000         167.000
 02 12 10 22  4  0.0000000  0  7G29G28G 4G26G 9G 7G 8
  23003000.308     3558158.81149   2775025.16646  23003000.264    23003011.440
       220.000         164.000
  21626756.966     1696427.35849   1324815.79847  21626756.338    21626764.296
       240.000         198.000
  22446485.776   -11717709.92349  -9100457.27846  22446485.362    22446496.365
       226.000         172.000
  23139063.917     2569946.69349   2006296.87946  23139063.979    23139073.489
       224.000         169.000
  23586945.915    -9867840.44049  -7652368.67645  23586946.956    23586956.983
       218.000         157.000
  20643080.177     -242651.21149   -180067.56648  20643094.143    20643102.543
       244.000         215.000
  23004980.834     8212310.28749   6393244.05346  23004980.993    23004993.543
       220.000         167.000
 02 12 10 22  4 30.0000000  0  7G29G28G 4G26G 9G 7G 8
  23014875.943     3620564.90249   2823653.20946  23014875.913    23014887.700
       220.000         164.000
  21633026.251     1729372.70649   1350487.49147  21633025.898    21633033.352
       240.000         198.000
  22427700.044   -11816428.60149  -9177380.69346  22427699.527    22427710.348
       226.000         173.000
  23149628.955     2625466.13749   2049558.75546  23149628.845    23149639.127
       223.000         168.000
  23568549.886    -9964511.91149  -7727696.94045  23568548.244    23568560.195
       213.000         154.000
  20647802.077     -217837.43149   -160732.14648  20647816.144    20647824.264
       244.000         215.000
  23024683.559     8315848.32649   6473922.90546  23024683.204    23024695.470
       222.000         167.000
 02 12 10 22  5  0.0000000  0  7G29G28G 4G26G 9G 7G 8
  23026805.218     3683253.47749   2872501.37346  23026805.015    23026816.151
       219.000         165.000
  21639328.338     1762490.39649   1376293.47447  21639328.105    21639335.610
       240.000         198.000
  22408955.791   -11914929.45349  -9254134.37846  22408955.243    22408965.005
       226.000         173.000
  23160259.163     2681328.51849   2093087.82946  23160258.557    23160269.791
       223.000         168.000
  23550193.699   -10060973.32849  -7802861.52945  23550192.731    23550204.679
       215.000         153.000
  20652581.620     -192720.70049   -141160.65848  20652595.676    20652603.968
       244.000         215.000
  23044432.568     8419629.57049   6554791.24746  23044432.002    23044444.185
       221.000         166.000
 02 12 10 22  5 30.0000000  0  7G29G28G 4G26G 9G 7G 8
  23038787.657     3746221.71249   2921567.45346  23038787.569    23038798.420
       219.000         164.000
  21645663.339     1795781.08249   1402234.25447  21645663.079    21645670.729
       241.000         198.000
  22390253.582   -12013209.38449  -9330715.92046  22390252.181    22390262.929
       227.000         174.000
  23170954.212     2737530.96349   2136881.89746  23170954.582    23170965.047
       223.000         168.000
  23531877.981   -10157222.32649  -7877860.57845  23531877.390    23531888.319
       212.000         150.000
  20657418.496     -167302.73549   -121354.44648  20657432.557    20657440.785
       244.000         215.000
  23064227.425     8523651.58449   6635847.21946  23064226.998    23064239.140
       221.000         165.000
 02 12 10 22  6  0.0000000  0  7G29G28G 4G26G 9G 7G 8
  23050822.796     3809466.49549   2970849.02646  23050823.037    23050834.010
       219.000         164.000
  21652031.401     1829245.39149   1428310.32747  21652031.121    21652038.589
       240.000         198.000
  22371593.998   -12111265.09549  -9407122.74646  22371593.848    22371603.966
       226.000         174.000
  23181713.426     2794071.04049   2180939.05946  23181712.934    23181723.605
       223.000         168.000
  23513603.155   -10253256.19949  -7952691.97645  23513602.582    23513614.564
       214.000         150.000
  20662312.402     -141584.97749   -101314.62748  20662326.399    20662334.521
       244.000         215.000
  23084067.714     8627912.45549   6717089.30946  23084066.843    23084080.172
       221.000         165.000
 02 12 10 22  6 30.0000000  0  7G29G28G 4G26G 9G 7G 8
  23062910.008     3872984.88249   3020343.79846  23062910.789    23062921.228
       220.000         163.000
  21658432.524     1862883.56449   1454521.87747  21658432.020    21658439.818
       240.000         198.000
  22352977.686   -12209093.42149  -9483352.40446  22352977.306    22352988.072
       226.000         175.000
  23192536.239     2850945.62249   2225256.87446  23192536.731    23192546.346
       222.000         168.000
  23495369.868   -10349072.57149  -8027353.93445  23495367.855    23495380.875
       213.000         149.000
  20667263.065     -115569.18349    -81042.57348  20667277.022    20667285.301
       245.000         215.000
  23103953.101     8732409.91749   6798515.74646  23103952.736    23103965.274
       222.000         164.000
 02 12 10 22  7  0.0000000  0  7G29G28G 4G26G 9G 7G 8
  23075048.730     3936774.09549   3070049.58946  23075048.786    23075058.920
       221.000         163.000
  21664866.881     1896696.32749   1480869.46747  21664866.495    21664874.472
       240.000         197.000
  22334405.199   -12306691.32149  -9559402.50646  22334404.354    22334415.638
       227.000         175.000
  23203422.370     2908152.18249   2269833.36246  23203422.645    23203433.495
       224.000         168.000
  23477178.471   -10444668.44649  -8101844.04045  23477177.708    23477189.506
       215.000         151.000
  20672270.113      -89256.88249    -60539.47648  20672284.275    20672292.470
       245.000         215.000
  23123883.032     8837142.10449   6880125.09646  23123883.569    23123895.619
       221.000         164.000
 02 12 10 22  7 30.0000000  0  7G29G28G 4G26G 9G 7G 8
  23087238.357     4000830.71349   3119963.76046  23087238.437    23087249.314
       220.000         164.000
  21671334.548     1930683.99949   1507353.34747  21671333.948    21671341.703
       240.000         197.000
  22315877.180   -12404055.68949  -9635270.63746  22315877.090    22315888.169
       226.000         175.000
  23214371.113     2965687.68449   2314666.18746  23214371.425    23214381.422
       222.000         167.000
  23459029.344   -10540041.81049  -8176160.78945  23459028.303    23459040.617
       217.000         151.000
  20677333.261      -62649.95149    -39806.79648  20677347.260    20677355.594
       244.000         215.000
  23143857.201     8942106.17849   6961915.12746  23143855.742    23143870.092
       221.000         164.000
 02 12 10 22  8  0.0000000  0  7G29G28G 4G26G 9G 7G 8
  23099478.484     4065152.29749   3170084.40446  23099478.604    23099489.486
       220.000         163.000
  21677835.656     1964847.52149   1533974.25947  21677835.247    21677843.209
       240.000         197.000
  22297394.364   -12501182.95749  -9710954.02446  22297393.566    22297404.131
       227.000         176.000
  23225381.796     3023549.83149   2359753.52546  23225381.903    23225392.255
       222.000         166.000
  23440923.176   -10635189.48849  -8250301.66945  23440923.296    23440934.028
       220.000         153.000
  20682452.264      -35749.48049    -18845.38448  20682466.277    20682474.534
       244.000         214.000
  23163875.213     9047300.86749   7043884.85246  23163875.103    23163886.743
       221.000         163.000
 02 12 10 22  8 30.0000000  0  8G29G28G 4G26G 9G 7G 8G24
  23111767.714     4129732.18249   3220406.30246  23111768.476    23111778.701
       218.000         163.000
  21684369.658     1999183.85449   1560729.82747  21684369.224    21684377.027
       239.000         197.000
  22278956.555   -12598073.62349  -9786453.05646  22278956.329    22278967.210
       228.000         176.000
  23236453.606     3081732.30449   2405090.47546  23236454.887    23236464.345
       223.000         167.000
  23422859.767   -10730112.56649  -8324267.51245  23422858.702    23422871.082
       219.000         154.000
  20687626.115       -8560.66049      2340.71348  20687640.185    20687648.510
       245.000         214.000
  23183936.032     9152720.47749   7126029.85546  23183936.165    23183947.932
       221.000         163.000
  24480085.931    -5609368.48849  -3607339.25945  24480083.491    24480102.029
       203.000         133.000
 02 12 10 22  9  0.0000000  0  8G29G28G 4G26G 9G 7G 8G24
  23124105.851     4194569.44049   3270928.75045  23124105.985    23124117.417
       220.000         162.000
  21690936.968     2033695.39649   1587621.92247  21690936.597    21690944.257
       240.000         196.000
  22260564.665   -12694722.74249  -9861763.88946  22260564.572    22260574.059
       228.000         177.000
  23247586.207     3140234.08849   2450676.24046  23247585.581    23247597.333
       222.000         166.000
  23404840.013   -10824806.59549  -8398054.91745  23404839.527    23404851.163
       220.000         156.000
  20692854.874       18916.64449     23751.60748  20692868.895    20692877.284
       245.000         214.000
  23204039.541     9258364.42749   7208349.65845  23204038.868    23204050.976
       220.000         162.000
  24459560.019    -5717231.39249  -3691387.84845  24459558.710    24459574.854
       201.000         132.000
 02 12 10 22  9 30.0000000  0  8G29G28G 4G26G 9G 7G 8G24
  23136493.183     4259664.75049   3321652.28645  23136492.929    23136504.512
       218.000         160.000
  21697538.460     2068386.30249   1614653.77247  21697538.177    21697545.911
       239.000         197.000
  22242220.168   -12791123.11449  -9936880.89146  22242219.522    22242230.294
       227.000         178.000
  23258779.775     3199056.35749   2496511.73646  23258779.352    23258790.845
       221.000         166.000
  23386864.958   -10919265.15349  -8471658.78645  23386864.241    23386875.613
       221.000         158.000
  20698138.967       46684.74049     45389.08748  20698152.887    20698161.225
       244.000         214.000
  23224186.060     9364234.49349   7290845.65545  23224185.011    23224198.028
       220.000         161.000
  24439029.125    -5825120.02749  -3775456.46545  24439027.303    24439044.515
       198.000         132.000
 02 12 10 22 10  0.0000000  0  8G29G28G 4G26G 9G 7G 8G24
  23148928.807     4325014.12749   3372573.78445  23148928.980    23148939.979
       220.000         160.000
  21704174.021     2103256.38549   1641825.25347  21704173.903    21704181.323
       239.000         196.000
  22223923.326   -12887272.74749 -10011802.52046  22223922.918    22223933.096
       229.000         178.000
  23270033.583     3258194.98849   2542593.75446  23270033.021    23270043.814
       222.000         166.000
  23368935.127   -11013486.79749  -8545078.09145  23368933.894    23368946.012
       219.000         160.000
  20703477.895       74740.84749     67250.99248  20703491.861    20703500.182
       245.000         214.000
  23244375.009     9470327.42049   7373515.30445  23244374.384    23244386.582
       219.000         161.000
  24418493.527    -5933032.28649  -3859543.44944  24418493.679    24418509.974
       196.000         130.000
 02 12 10 22 10 30.0000000  0  8G29G28G 4G26G 9G 7G 8G24
  23161412.183     4390614.16749   3423690.61145  23161412.668    23161423.430
       218.000         161.000
  21710843.674     2138305.65849   1669136.34447  21710843.236    21710850.966
       239.000         196.000
  22205674.809   -12983168.78849 -10086526.55146  22205674.252    22205684.428
       228.000         178.000
  23281346.847     3317647.10049   2588920.02546  23281346.979    23281357.809
       220.000         166.000
  23351050.739   -11107469.18749  -8618310.92345  23351050.284    23351061.565
       221.000         162.000
  20708871.237      103083.17249     89335.91748  20708885.157    20708893.341
       244.000         214.000
  23264605.827     9576640.72749   7456356.69245  23264606.118    23264617.991
       219.000         161.000
  24397954.164    -6040965.97049  -3943647.14045  24397953.668    24397971.490
       202.000         135.000
 02 12 10 22 11  0.0000000  0  8G29G28G 4G26G 9G 7G 8G24
  23173942.398     4456461.12549   3474999.84745  23173943.003    23173953.422
       219.000         161.000
  21717547.410     2173533.97049   1696586.95947  21717547.285    21717555.062
       239.000         196.000
  22187474.999   -13078808.85049 -10161051.12846  22187474.931    22187485.159
       228.000         178.000
  23292719.230     3377409.00949   2635487.71246  23292718.946    23292729.802
       220.000         165.000
  23333212.196   -11201210.64649  -8691356.04645  23333210.894    23333223.117
       218.000         162.000
  20714318.570      131709.14449    111641.87048  20714332.596    20714340.814
       245.000         214.000
  23284878.079     9683171.50549   7539367.52545  23284878.294    23284891.004
       217.000         160.000
  24377411.199    -6148919.19849  -4027766.12045  24377410.120    24377426.815
       206.000         139.000
 02 12 10 22 11 30.0000000  0  8G29G28G 4G26G 9G 7G 8G24
  23186519.165     4522552.00049   3526499.12945  23186519.357    23186530.894
       219.000         160.000
  21724285.328     2208941.71649   1724177.38747  21724284.851    21724292.822
       239.000         196.000
  22169324.451   -13174189.89349 -10235373.88346  22169324.416    22169333.759
       230.000         179.000
  23304149.904     3437477.83749   2682294.55546  23304150.272    23304160.214
       219.000         164.000
  23315420.003   -11294708.58049  -8764211.41746  23315420.011    23315431.085
       222.000         164.000
  20719819.618      160617.29749    134167.70748  20719833.608    20719841.901
       244.000         214.000
  23305191.270     9789917.39749   7622545.98045  23305191.811    23305203.896
       217.000         159.000
  24356864.880    -6256889.40149  -4111898.31745  24356863.454    24356880.210
       207.000         141.000
 02 12 10 22 12  0.0000000  0  8G29G28G 4G26G 9G 7G 8G24
  23199141.856     4588883.73649   3578186.10345  23199141.728    23199153.026
       219.000         160.000
  21731057.524     2244529.71949   1751908.27147  21731056.982    21731064.917
       239.000         196.000
  22151223.880   -13269308.68049 -10309492.28446  22151223.937    22151234.003
       230.000         179.000
  23315638.487     3497850.81149   2729338.37946  23315639.249    23315649.546
       221.000         165.000
  23297674.691   -11387960.60549  -8836875.16345  23297673.316    23297684.651
       218.000         162.000
  20725374.012      189805.93849    156912.10348  20725388.132    20725396.357
       244.000         214.000
  23325544.985     9896876.57849   7705890.62745  23325545.021    23325556.808
       217.000         159.000
  24336316.021    -6364873.57149  -4196041.42445  24336315.260    24336331.907
       211.000         144.000
 02 12 10 22 12 30.0000000  0  8G29G28G 4G26G 9G 7G 8G24
  23211809.674     4655453.23049   3630058.34345  23211810.208    23211820.323
       219.000         160.000
  21737864.017     2280298.16049   1779779.76147  21737863.530    21737871.284
       239.000         195.000
  22133173.740   -13364162.32449 -10383404.08746  22133173.523    22133183.875
       230.000         180.000
  23327184.609     3558524.94749   2776616.90146  23327184.436    23327195.531
       221.000         165.000
  23279976.590   -11480963.99949  -8909345.21046  23279976.568    23279987.500
       218.000         164.000
  20730981.490      219273.29449    179873.67948  20730995.690    20731003.755
       244.000         214.000
  23345938.864    10004046.28649   7789399.33745  23345939.003    23345951.934
       217.000         160.000
  24315764.827    -6472869.54549  -4280193.72345  24315763.797    24315780.788
       212.000         147.000
 02 12 10 22 13  0.0000000  0  8G29G28G 4G26G 9G 7G 8G24
  23224522.224     4722257.66249   3682113.64645  23224522.038    23224532.664
       219.000         160.000
  21744704.980     2316247.48049   1807792.18947  21744705.034    21744712.763
       239.000         195.000
  22115174.658   -13458747.46049 -10457106.67246  22115174.433    22115183.954
       230.000         180.000
  23338787.251     3619497.53449   2824127.95546  23338787.693    23338798.690
       220.000         165.000
  23262326.213   -11573716.14949  -8981619.43646  23262325.657    23262336.354
       221.000         163.000
  20736641.674      249017.81849    203051.23148  20736655.682    20736664.012
       245.000         214.000
  23366372.468    10111424.78149   7873070.71645  23366371.957    23366384.985
       217.000         160.000
  24295211.912    -6580874.44549  -4364352.98545  24295210.536    24295227.430
       212.000         147.000
 02 12 10 22 13 30.0000000  0  8G29G28G 4G26G 9G 7G 8G24
  23237278.803     4789294.12949   3734349.77045  23237279.556    23237289.790
       219.000         160.000
  21751580.537     2352378.73949   1835946.39547  21751580.144    21751588.253
       239.000         195.000
  22097227.316   -13553060.59549 -10530597.31746  22097227.508    22097237.549
       231.000         180.000
  23350446.329     3680766.01549   2871869.57946  23350447.042    23350456.471
       218.000         165.000
  23244724.401   -11666213.95649  -9053695.52646  23244723.583    23244735.100
       218.000         163.000
  20742354.390      279038.33949    226443.85148  20742368.437    20742376.695
       244.000         214.000
  23386845.378    10219010.04249   7956903.23945  23386845.504    23386858.412
       217.000         159.000
  24274657.845    -6688885.01949  -4448516.65045  24274657.005    24274672.737
       213.000         146.000
 02 12 10 22 14  0.0000000  0  8G29G28G 4G26G 9G 7G 8G24
  23250079.045     4856559.59049   3786764.33445  23250078.536    23250089.550
       218.000         159.000
  21758490.791     2388692.25749   1864242.61747  21758490.480    21758498.437
       239.000         195.000
  22079332.355   -13647098.87249 -10603873.78446  22079332.686    22079342.639
       231.000         180.000
  23362161.086     3742327.38549   2919839.43846  23362161.222    23362170.524
       219.000         163.000
  23227171.368   -11758455.10849  -9125571.58846  23227171.454    23227180.895
       220.000         163.000
  20748119.267      309332.87449    250049.98748  20748133.296    20748141.759
       244.000         214.000
  23407357.201    10326799.68249   8040895.00045  23407356.494    23407369.679
       217.000         159.000
  24254103.175    -6796899.18549  -4532683.13645  24254102.035    24254118.105
       213.000         145.000
 02 12 10 22 14 30.0000000  0  8G29G28G 4G26G 9G 7G 8G24
  23262922.307     4924050.97549   3839354.93045  23262923.024    23262933.748
       215.000         157.000
  21765435.836     2425188.63549   1892681.33547  21765435.143    21765443.500
       238.000         195.000
  22061490.313   -13740859.03949 -10676933.54646  22061489.878    22061500.017
       231.000         181.000
  23373931.037     3804178.65449   2968035.17746  23373931.254    23373942.175
       219.000         163.000
  23209667.647   -11850437.06849  -9197245.70045  23209666.722    23209678.132
       218.000         162.000
  20753935.972      339899.92349    273868.47248  20753950.049    20753958.405
       245.000         214.000
  23427907.394    10434791.31949   8125044.17345  23427907.237    23427919.913
       215.000         160.000
  24233548.408    -6904913.69449  -4616849.89745  24233546.885    24233563.218
       213.000         143.000
 02 12 10 22 15  0.0000000  0  8G29G28G 4G26G 9G 7G 8G24
  23275807.970     4991765.26449   3892119.22445  23275808.343    23275819.945
       217.000         158.000
  21772415.850     2461868.71449   1921263.19447  21772415.450    21772423.628
       239.000         195.000
  22043701.821   -13834337.83849 -10749774.05746  22043701.903    22043711.716
       231.000         181.000
  23385755.606     3866317.08549   3016454.68346  23385755.848    23385765.632
       220.000         164.000
  23192213.753   -11942157.08149  -9268715.69246  23192214.244    23192224.404
       220.000         163.000
  20759804.250      370737.95349    297898.11148  20759818.367    20759826.531
       244.000         214.000
  23448495.777    10542983.25649   8209349.42545  23448495.215    23448509.377
       219.000         160.000
  24212993.929    -7012926.27449  -4701015.15045  24212992.034    24213009.706
       210.000         141.000
 02 12 10 22 15 30.0000000  0  8G29G28G 4G26G 9G 7G 8G24
  23288735.452     5059699.18549   3945054.64845  23288735.694    23288746.784
       218.000         158.000
  21779430.824     2498732.57549   1949988.25347  21779430.654    21779438.210
       239.000         195.000
  22025967.435   -13927532.42849 -10822393.10746  22025966.870    22025977.256
       231.000         181.000
  23397634.273     3928739.83149   3065095.73846  23397635.004    23397644.843
       220.000         164.000
  23174810.279   -12033612.72349  -9339979.67545  23174809.583    23174821.057
       219.000         161.000
  20765723.732      401845.07049    322137.42648  20765737.799    20765745.852
       245.000         214.000
  23469121.772    10651372.73749   8293808.60745  23469121.715    23469133.382
       218.000         160.000
  24192440.399    -7120933.97749  -4785176.60845  24192440.902    24192455.608
       211.000         139.000
 02 12 10 22 16  0.0000000  0  8G29G28G 4G26G 9G 7G 8G24
  23301704.237     5127849.78449   3998158.92545  23301704.176    23301714.857
       216.000         158.000
  21786480.845     2535780.63749   1978856.85147  21786480.363    21786488.256
       238.000         194.000
  22008287.673   -14020439.73549 -10894788.29446  22008287.420    22008297.375
       232.000         182.000
  23409566.399     3991443.74249   3113955.85446  23409566.175    23409576.913
       218.000         163.000
  23157457.529   -12124801.54049  -9411035.72145  23157457.206    23157468.516
       219.000         162.000
  20771694.138      433219.62049    346585.12948  20771708.046    20771716.383
       245.000         214.000
  23489784.904    10759957.53949   8378419.97245  23489785.360    23489797.101
       220.000         161.000
  24171888.327    -7228934.39449  -4869332.41445  24171887.820    24171903.530
       210.000         138.000
 02 12 10 22 16 30.0000000  0  8G29G28G 4G26G 9G 7G 8G24
  23314713.604     5196214.11449   4051429.73145  23314713.640    23314725.017
       216.000         157.000
  21793566.134     2573013.92449   2007869.78047  21793566.378    21793573.706
       239.000         194.000
  21990663.174   -14113056.55549 -10966957.12546  21990663.191    21990673.232
       232.000         182.000
  23421551.640     4054426.14949   3163032.99746  23421552.087    23421563.411
       220.000         164.000
  23140156.000   -12215720.74349  -9481881.69845  23140155.464    23140165.671
       220.000         161.000
  20777715.126      464860.17349    371240.10848  20777729.197    20777737.438
       244.000         214.000
  23510484.924    10868735.88649   8463182.17745  23510484.320    23510496.778
       220.000         161.000
  24151338.255    -7336924.49849  -4953480.16345  24151336.478    24151351.187
       209.000         136.000
 02 12 10 22 17  0.0000000  0  8G29G28G 4G26G 9G 7G 8G24
  23327762.958     5264789.12549   4104864.71445  23327762.586    23327774.702
       214.000         157.000
  21800686.696     2610432.63749   2037027.19947  21800686.059    21800694.511
       239.000         194.000
  21973094.606   -14205379.59349 -11038897.03046  21973094.573    21973104.072
       232.000         183.000
  23433589.285     4117683.96349   3212324.73446  23433590.163    23433599.178
       220.000         163.000
  23122906.383   -12306367.72349  -9552515.51446  23122905.316    23122917.808
       220.000         164.000
  20783786.434      496764.99649    396101.01248  20783800.205    20783808.507
       245.000         214.000
  23531221.210    10977705.08849   8548093.09645  23531221.774    23531234.442
       220.000         161.000
  24130790.510    -7444901.57049  -5037617.77645  24130788.523    24130804.257
       206.000         135.000
 02 12 10 22 17 30.0000000  0  8G29G28G 4G26G 9G 7G 8G24
  23340851.870     5333571.80349   4158461.49645  23340851.795    23340864.130
       214.000         157.000
  21807842.695     2648037.59049   2066329.73947  21807842.435    21807850.349
       238.000         194.000
  21955582.523   -14297405.64549 -11110605.51646  21955582.227    21955591.764
       232.000         183.000
  23445678.966     4181214.76449   3261829.18946  23445679.744    23445689.351
       220.000         163.000
  23105709.057   -12396739.79849  -9622935.15146  23105708.321    23105719.187
       219.000         163.000
  20789907.723      528932.63549    421166.70448  20789921.787    20789929.997
       244.000         213.000
  23551993.477    11086863.21749   8633151.22045  23551992.385    23552006.404
       221.000         160.000
  24110245.842    -7552862.72549  -5121742.97245  24110244.105    24110258.636
       205.000         134.000
 02 12 10 22 18  0.0000000  0  8G29G28G 4G26G 9G 7G 8G24
  23353979.789     5402559.11649   4212217.73745  23353980.606    23353991.770
       217.000         157.000
  21815034.249     2685829.32149   2095777.82547  21815033.916    21815042.017
       238.000         194.000
  21938127.496   -14389131.81949 -11182080.32346  21938127.141    21938137.158
       232.000         184.000
  23457819.786     4245015.37549   3311543.87645  23457819.270    23457831.423
       219.000         162.000
  23088564.416   -12486834.52449  -9693138.64146  23088564.060    23088575.022
       221.000         163.000
  20796078.701      561361.36649    446435.84348  20796092.775    20796100.987
       244.000         213.000
  23572801.227    11196207.96649   8718354.77245  23572801.729    23572813.139
       220.000         159.000
  24089704.658    -7660805.47549  -5205853.84345  24089704.395    24089718.888
       203.000         133.000
 02 12 10 22 18 30.0000000  0  8G29G28G 4G26G 9G 7G 8G24
  23367146.203     5471748.00449   4266131.06045  23367146.951    23367158.306
       217.000         158.000
  21822261.431     2723808.36349   2125371.86647  21822261.253    21822268.922
       238.000         194.000
  21920730.197   -14480554.85949 -11253318.92446  21920730.304    21920739.502
       232.000         184.000
  23470011.403     4309082.94549   3361466.58046  23470011.379    23470022.249
       219.000         163.000
  23071473.097   -12576649.28649  -9763123.97446  23071473.191    23071483.324
       221.000         163.000
  20802299.071      594049.69749    471907.26748  20802313.078    20802321.314
       246.000         213.000
  23593644.022    11305737.13649   8803702.00545  23593645.339    23593657.048
       219.000         157.000
  24069167.453    -7768726.78149  -5289947.99545  24069167.682    24069181.352
       203.000         134.000
 02 12 10 22 19  0.0000000  0  8G29G28G 4G26G 9G 7G 8G24
  23380350.262     5541135.59749   4320199.20445  23380350.950    23380361.382
       217.000         157.000
  21829524.381     2761975.36549   2155112.37247  21829524.265    21829531.653
       238.000         194.000
  21903391.145   -14571671.60749 -11324318.85446  21903391.148    21903400.642
       232.000         184.000
  23482253.456     4373414.65649   3411595.13345  23482253.344    23482263.583
       219.000         162.000
  23054435.653   -12666181.09249  -9832888.81746  23054434.217    23054446.297
       222.000         164.000
  20808568.568      626996.06849    497579.76048  20808582.578    20808590.929
       246.000         213.000
  23614521.517    11415448.58049   8889191.28045  23614522.077    23614534.537
       219.000         156.000
  24048634.931    -7876623.74249  -5374023.15945  24048632.828    24048649.419
       203.000         137.000
 02 12 10 22 19 30.0000000  0  8G29G28G 4G26G 9G 7G 8G24
  23393591.575     5610718.67349   4374419.67145  23393592.183    23393604.117
       214.000         156.000
  21836823.189     2800330.79449   2184999.70647  21836823.012    21836830.835
       238.000         194.000
  21886110.938   -14662479.12749 -11395077.82346  21886110.901    21886120.739
       232.000         184.000
  23494545.048     4438007.51449   3461927.14345  23494545.435    23494555.167
       221.000         162.000
  23037452.473   -12755427.69949  -9902431.43646  23037451.364    23037462.011
       222.000         164.000
  20814886.818      660198.78449    523452.00448  20814900.764    20814909.062
       246.000         213.000
  23635433.254    11525340.08149   8974820.86345  23635433.110    23635445.031
       218.000         155.000
  24028107.672    -7984493.80949  -5458077.37645  24028107.058    24028122.808
       206.000         139.000
 02 12 10 22 20  0.0000000  0  8G29G28G 4G26G 9G 7G 8G24
  23406869.364     5680493.87449   4428789.83045  23406870.261    23406882.170
       215.000         157.000
  21844157.864     2838874.74749   2215033.94247  21844157.464    21844165.243
       238.000         193.000
  21868890.076   -14752974.84449 -11465593.82746  21868889.982    21868899.463
       232.000         185.000
  23506885.875     4502858.14949   3512460.03045  23506886.631    23506896.821
       220.000         162.000
  23020524.016   -12844386.83449  -9971750.04546  23020523.103    23020534.463
       221.000         165.000
  20821253.444      693655.63649    549522.27448  20821267.516    20821275.797
       246.000         213.000
  23656378.825    11635409.06749   9060588.74445  23656377.121    23656392.452
       217.000         154.000
  24007586.138    -8092334.69049  -5542108.82345  24007584.645    24007600.713
       209.000         142.000
 02 12 10 22 20 30.0000000  0  8G29G28G 4G26G 9G 7G 8G24
  23420183.402     5750458.68749   4483307.74645  23420184.434    23420195.812
       215.000         157.000
  21851528.652     2877608.33249   2245215.95447  21851528.162    21851536.198
       238.000         193.000
  21851729.349   -14843154.70749 -11535863.71746  21851729.263    21851738.622
       232.000         185.000
  23519275.267     4567964.33849   3563192.05545  23519275.464    23519286.349
       219.000         162.000
  23003650.839   -12933055.20449 -10040842.09546  23003649.795    23003661.238
       222.000         166.000
  20827668.288      727365.82449    575789.95148  20827682.326    20827690.559
       246.000         213.000
  23677357.734    11745653.48649   9146493.31845  23677358.096    23677369.747
       216.000         153.000
  23987070.618    -8200142.86249  -5626114.80145  23987069.218    23987085.195
       210.000         146.000
 02 12 10 22 21  0.0000000  0  8G29G28G 4G26G 9G 7G 8G24
  23433532.745     5820609.52049   4537970.62945  23433532.453    23433544.390
       213.000         156.000
  21858935.568     2916531.83549   2275545.94847  21858934.804    21858943.327
       238.000         193.000
  21834629.149   -14933016.32449 -11605885.61846  21834628.861    21834638.829
       232.000         186.000
  23531712.603     4633322.58249   3614120.48245  23531711.755    23531723.712
       221.000         161.000
  22986833.409   -13021430.45249 -10109705.73946  22986832.457    22986843.738
       224.000         166.000
  20834130.911      761327.12449    602253.29748  20834144.862    20834153.068
       246.000         213.000
  23698369.566    11856070.79049   9232532.60245  23698369.080    23698381.439
       213.000         150.000
  23966561.748    -8307916.03249  -5710093.49245  23966560.685    23966575.984
       212.000         148.000
 02 12 10 22 21 30.0000000  0  8G29G28G 4G26G 9G 7G 8G24
  23446916.877     5890943.54849   4592776.22845  23446917.437    23446928.295
       214.000         154.000
  21866378.715     2955645.65849   2306024.24747  21866378.381    21866386.340
       238.000         193.000
  21817590.146   -15022556.53049 -11675657.06046  21817590.217    21817599.316
       233.000         186.000
  23544197.364     4698930.28849   3665243.29345  23544197.571    23544207.956
       219.000         161.000
  22970072.268   -13109509.95649 -10178338.92746  22970071.960    22970081.078
       221.000         166.000
  20840641.063      795538.24449    628911.30948  20840654.915    20840663.236
       246.000         213.000
  23719413.908    11966659.15349   9318705.18445  23719413.162    23719427.393
       212.000         149.000
  23946060.173    -8415651.11149  -5794042.50445  23946058.988    23946074.165
       215.000         151.000
 02 12 10 22 22  0.0000000  0  8G29G28G 4G26G 9G 7G 8G24
  23460335.413     5961458.01249   4647722.44345  23460335.758    23460346.999
       215.000         155.000
  21873858.268     2994950.97549   2336651.76447  21873857.843    21873865.662
       237.000         192.000
  21800612.993   -15111771.52949 -11745175.11046  21800613.000    21800622.047
       233.000         186.000
  23556728.993     4764784.69049   3716558.33945  23556729.376    23556739.789
       220.000         160.000
  22953367.883   -13197291.03749 -10246739.59746  22953367.494    22953377.399
       223.000         167.000
  20847198.522      829997.92949    655763.00448  20847212.635    20847220.666
       246.000         213.000
  23740490.308    12077416.29749   9405009.26845  23740490.430    23740503.098
       213.000         148.000
  23925566.470    -8523345.06049  -5877959.45445  23925565.566    23925579.943
       215.000         153.000
 02 12 10 22 22 30.0000000  0  8G29G28G 4G26G 9G 7G 8G24
  23473787.763     6032149.94749   4702806.94045  23473787.835    23473799.986
       216.000         156.000
  21881374.341     3034448.23849   2367428.84247  21881374.210    21881381.391
       238.000         192.000
  21783698.268   -15200658.61649 -11814437.63946  21783698.200    21783707.411
       233.000         186.000
  23569307.190     4830882.94149   3768063.37645  23569307.738    23569316.497
       222.000         160.000
  22936720.897   -13284771.04849 -10314905.66546  22936720.049    22936730.551
       223.000         167.000
  20853802.991      864704.48049    682807.06248  20853817.033    20853825.219
       246.000         213.000
  23761598.537    12188340.26749   9491443.34145  23761598.008    23761612.614
       212.000         147.000
  23905081.058    -8630995.29749  -5961842.33245  23905079.938    23905095.358
       214.000         154.000
 02 12 10 22 23  0.0000000  0  8G29G28G 4G26G 9G 7G 8G24
  23487273.168     6103015.59349   4758026.79145  23487273.669    23487285.557
       216.000         157.000
  21888926.999     3074137.41649   2398355.46747  21888926.342    21888934.590
       237.000         192.000
  21766846.363   -15289215.34749 -11883442.75246  21766846.296    21766855.625
       233.000         187.000
  23581931.156     4897221.40249   3819755.61845  23581930.829    23581942.190
       219.000         159.000
  22920131.666   -13371947.64849 -10382835.32046  22920130.404    22920142.006
       223.000         168.000
  20860453.957      899655.58349    710041.68047  20860467.929    20860476.231
       246.000         212.000
  23782737.894    12299428.06549   9578005.06845  23782738.503    23782749.610
       213.000         147.000
  23884604.407    -8738599.56249  -6045689.37945  23884603.063    23884617.843
       218.000         155.000
 02 12 10 22 23 30.0000000  0  8G29G28G 4G26G 9G 7G 8G24
  23500791.183     6174052.50849   4813380.08945  23500790.741    23500803.668
       216.000         156.000
  21896516.275     3114019.54949   2429432.44547  21896515.977    21896523.949
       238.000         192.000
  21750058.085   -15377437.93649 -11952187.50146  21750057.678    21750067.450
       233.000         187.000
  23594600.295     4963797.78449   3871633.23645  23594599.039    23594608.907
       218.000         159.000
  22903600.514   -13458818.22149 -10450526.53246  22903599.668    22903610.025
       224.000         168.000
  20867151.287      934850.22149    737466.06447  20867165.382    20867173.708
       246.000         212.000
  23803908.158    12410677.88349   9664693.05145  23803908.077    23803921.818
       214.000         149.000
  23864137.169    -8846154.50949  -6129498.02645  23864136.472    23864150.210
       216.000         155.000
 02 12 10 22 24  0.0000000  0  8G29G28G 4G26G 9G 7G 8G24
  23514341.100     6245257.30949   4868864.23345  23514341.420    23514352.581
       215.000         155.000
  21904142.397     3154094.91949   2460659.99847  21904142.128    21904150.109
       237.000         192.000
  21733333.889   -15465323.73249 -12020669.81746  21733333.546    21733342.547
       234.000         187.000
  23607313.920     5030608.92349   3923693.78945  23607314.796    23607324.300
       220.000         158.000
  22887128.225   -13545380.01449 -10517977.09746  22887127.631    22887139.025
       224.000         168.000
  20873894.598      970286.57749    765078.79847  20873908.614    20873916.897
       246.000         212.000
  23825108.823    12522087.44949   9751505.52145  23825109.820    23825121.450
       215.000         150.000
  23843679.653    -8953657.72649  -6213266.34945  23843678.245    23843692.649
       215.000         154.000
 02 12 10 22 24 30.0000000  0  8G29G28G 4G26G 9G 7G 8G24
  23527922.425     6316627.10149   4924476.92945  23527922.019    23527935.040
       217.000         154.000
  21911805.384     3194364.17049   2492038.62647  21911805.273    21911812.526
       237.000         192.000
  21716674.353   -15552869.72349 -12088887.34847  21716674.349    21716682.777
       234.000         188.000
  23620071.864     5097651.77749   3975934.89245  23620071.894    23620083.447
       221.000         158.000
  22870715.271   -13631630.36349 -10585185.03846  22870714.714    22870724.026
       223.000         168.000
  20880683.659     1005963.14349    792878.71047  20880697.624    20880705.900
       246.000         212.000
  23846339.526    12633654.35549   9838440.58545  23846340.162    23846353.709
       215.000         150.000
  23823232.559    -9061106.10449  -6296991.95445  23823231.320    23823245.751
       213.000         152.000
 02 12 10 22 25  0.0000000  0  8G29G28G 4G26G 9G 7G 8G24
  23541534.526     6388158.44049   4980215.46945  23541535.204    23541546.887
       216.000         156.000
  21919505.356     3234827.70749   2523568.64647  21919505.142    21919512.899
       238.000         192.000
  21700080.047   -15640072.77449 -12156837.65947  21700079.877    21700089.488
       234.000         188.000
  23632873.221     5164923.31149   4028354.18745  23632873.272    23632884.498
       219.000         159.000
  22854362.000   -13717566.87649 -10652148.39246  22854362.324    22854371.623
       225.000         169.000
  20887518.051     1041878.09149    820864.37247  20887532.112    20887540.255
       246.000         212.000
  23867599.732    12745376.29249   9925496.45845  23867600.064    23867612.859
       215.000         151.000
  23802796.371    -9168497.17349  -6380672.91845  23802794.918    23802809.277
       212.000         150.000
 02 12 10 22 25 30.0000000  0  8G29G28G 4G26G 9G 7G 8G24
  23555176.773     6459848.51049   5036077.72945  23555177.470    23555188.828
       215.000         155.000
  21927242.441     3275486.14849   2555250.52947  21927241.826    21927249.986
       237.000         191.000
  21683551.541   -15726929.94349 -12224518.45747  21683551.240    21683560.632
       234.000         188.000
  23645717.555     5232420.58649   4080949.35745  23645717.640    23645729.825
       220.000         159.000
  22838068.934   -13803187.10149 -10718865.31246  22838067.975    22838079.179
       223.000         169.000
  20894397.506     1078029.82549    849034.55047  20894411.510    20894419.859
       246.000         212.000
  23888888.943    12857250.80749  10012671.20845  23888888.657    23888902.097
       216.000         153.000
  23782371.570    -9275828.10849  -6464307.01845  23782370.238    23782383.780
       210.000         147.000
 02 12 10 22 26  0.0000000  0  8G29G28G 4G26G 9G 7G 8G24
  23568848.681     6531694.32749   5092061.32445  23568848.815    23568861.188
       215.000         153.000
  21935016.708     3316340.18249   2587084.82947  21935016.164    21935024.153
       237.000         191.000
  21667089.456   -15813438.19449 -12291927.36547  21667089.396    21667098.303
       234.000         189.000
  23658604.324     5300140.81249   4133718.29045  23658603.290    23658615.710
       217.000         158.000
  22821836.561   -13888488.24849 -10785333.60446  22821834.663    22821845.479
       222.000         170.000
  20901321.750     1114416.92949    877388.13047  20901335.846    20901344.065
       246.000         212.000
  23910206.777    12969275.91749  10099963.32245  23910206.538    23910219.780
       216.000         154.000
  23761958.841    -9383096.05649  -6547892.06945  23761959.258    23761971.501
       209.000         144.000
 02 12 10 22 26 30.0000000  0  8G29G28G 4G26G 9G 7G 8G24
  23582549.666     6603693.12549   5148164.14345  23582549.810    23582560.330
       216.000         152.000
  21942828.346     3357390.53749   2619072.09947  21942827.826    21942835.738
       237.000         191.000
  21650694.411   -15899594.20049 -12359061.80247  21650694.106    21650703.547
       234.000         189.000
  23671532.947     5368081.24449   4186658.78045  23671534.777    23671546.563
       221.000         159.000
  22805665.371   -13973467.45649 -10851551.03946  22805664.307    22805675.810
       224.000         170.000
  20908290.528     1151038.07049    905924.07747  20908304.522    20908312.671
       246.000         212.000
  23931552.926    13081449.59449  10187371.20445  23931552.451    23931567.799
       218.000         155.000
  23741558.781    -9490297.73549  -6631425.47645  23741558.021    23741571.481
       208.000         141.000
 02 12 10 22 27  0.0000000  0  8G29G28G 4G26G 9G 7G 8G24
  23596279.210     6675841.52049   5204383.54345  23596279.466    23596291.371
       213.000         152.000
  21950677.409     3398637.52449   2651212.59547  21950676.843    21950685.172
       237.000         191.000
  21634366.996   -15985394.99349 -12425919.44847  21634367.229    21634375.779
       235.000         189.000
  23684503.183     5436238.61949   4239768.34345  23684503.230    23684514.639
       219.000         159.000
  22789555.944   -14058122.22449 -10917515.64446  22789555.469    22789565.145
       224.000         170.000
  20915303.487     1187891.42949    934640.97547  20915317.537    20915325.766
       246.000         212.000
  23952926.808    13193769.22649  10274892.80645  23952926.814    23952940.838
       218.000         156.000
  23721171.767    -9597430.51749  -6714905.21545  23721169.916    23721184.270
       209.000         140.000
 02 12 10 22 27 30.0000000  0  8G29G28G 4G26G 9G 7G 8G24
  23610036.499     6748136.48049   5260717.12945  23610036.582    23610049.765
       213.000         150.000
  21958563.939     3440081.60849   2683506.66547  21958563.603    21958571.449
       236.000         191.000
  21618107.647   -16070837.93849 -12492498.25347  21618107.655    21618116.812
       234.000         190.000
  23697513.901     5504610.13749   4293044.74745  23697514.822    23697525.149
       218.000         158.000
  22773508.839   -14142450.09849 -10983225.56246  22773508.178    22773518.961
       224.000         171.000
  20922360.344     1224975.46449    963537.62547  20922374.322    20922382.536
       246.000         212.000
  23974328.068    13306232.65549  10362526.44845  23974328.038    23974341.592
       217.000         156.000
  23700798.488    -9704491.44449  -6798328.97845  23700797.489    23700810.029
       212.000         142.000
 02 12 10 22 28  0.0000000  0  8G29G28G 4G26G 9G 7G 8G24
  23623821.159     6820575.07149   5317162.62845  23623820.889    23623833.199
       211.000         148.000
  21966488.152     3481723.57449   2715954.92747  21966487.447    21966495.567
       236.000         190.000
  21601917.040   -16155919.69149 -12558795.60147  21601916.554    21601925.866
       235.000         190.000
  23710564.589     5573192.75349   4346485.64845  23710564.308    23710574.533
       216.000         156.000
  22757524.493   -14226448.19249 -11048678.50246  22757523.065    22757533.648
       224.000         172.000
  20929460.794     1262288.39549    992612.63647  20929474.846    20929483.167
       246.000         212.000
  23995756.241    13418837.67849  10450270.44045  23995754.984    23995770.491
       216.000         156.000
  23680439.432    -9811478.08449  -6881694.86845  23680438.434    23680451.585
       215.000         144.000
 02 12 10 22 28 30.0000000  0  8G29G28G 4G26G 9G 7G 8G24
  23637632.564     6893153.84849   5373717.35345  23637632.388    23637645.610
       210.000         149.000
  21974450.039     3523563.47049   2748557.43247  21974449.575    21974457.850
       237.000         190.000
  21585795.626   -16240637.81849 -12624809.61147  21585795.695    21585804.529
       235.000         190.000
  23723654.921     5641983.19849   4400088.49045  23723655.195    23723666.325
       216.000         156.000
  22741603.186   -14310114.30849 -11113872.73346  22741602.796    22741612.874
       226.000         172.000
  20936604.428     1299828.50349   1021864.67147  20936618.661    20936626.906
       246.000         212.000
  24017210.798    13531581.46549  10538122.54545  24017210.531    24017224.617
       215.000         156.000
  23660095.019    -9918387.67149  -6965000.75145  23660094.397    23660106.809
       214.000         146.000
 02 12 10 22 29  0.0000000  0  8G29G28G 4G26G 9G 7G 8G24
  23651469.911     6965869.46249   5430378.70645  23651470.358    23651481.566
       212.000         148.000
  21982449.658     3565601.66549   2781314.44147  21982449.207    21982457.255
       236.000         190.000
  21569743.985   -16324989.41049 -12690538.00547  21569743.877    21569752.811
       236.000         191.000
  23736784.385     5710978.27949   4453850.79245  23736785.385    23736796.329
       218.000         158.000
  22725745.546   -14393446.33249 -11178806.67246  22725745.034    22725754.488
       225.000         172.000
  20943790.947     1337593.88049   1051292.23847  20943804.836    20943813.228
       245.000         212.000
  24038691.333    13644461.74849  10626081.01745  24038691.440    24038704.748
       216.000         155.000
  23639765.731   -10025217.54249  -7048244.51445  23639764.811    23639778.095
       215.000         149.000
 02 12 10 22 29 30.0000000  0  8G29G28G 4G26G 9G 7G 8G24
  23665332.944     7038719.79149   5487145.02745  23665334.080    23665344.898
       211.000         147.000
  21990487.242     3607839.37649   2814226.92247  21990486.643    21990494.860
       236.000         190.000
  21553762.757   -16408970.80849 -12755977.94047  21553762.900    21553771.964
       236.000         191.000
  23749952.482     5780175.78549   4507770.84445  23749952.990    23749964.133
       218.000         157.000
  22709952.107   -14476440.64749 -11243477.45346  22709952.027    22709962.041
       225.000         173.000
  20951020.183     1375583.80549   1080894.78047  20951034.121    20951042.478
       245.000         211.000
  24060197.573    13757476.88149  10714144.59245  24060197.082    24060211.314
       213.000         153.000
  23619452.267   -10131963.93349  -7131423.24445  23619451.144    23619464.395
       217.000         151.000
 02 12 10 22 30  0.0000000  0  8G29G28G 4G26G 9G 7G 8G24
  23679221.069     7111701.58249   5544013.81545  23679220.497    23679233.246
       213.000         147.000
  21998562.912     3650277.29149   2847295.42047  21998562.182    21998570.249
       236.000         189.000
  21537852.561   -16492579.15849 -12821127.18347  21537852.465    21537861.175
       236.000         191.000
  23763158.412     5849572.70149   4561846.26945  23763158.458    23763170.333
       217.000         157.000
  22694223.433   -14559094.90849 -11307883.25646  22694223.896    22694233.088
       226.000         172.000
  20958291.852     1413796.68949   1110671.06147  20958305.917    20958314.163
       245.000         211.000
  24081728.966    13870624.70049  10802311.53045  24081728.776    24081743.426
       210.000         150.000
  23599155.371   -10238624.09249  -7214534.77645  23599154.535    23599167.605
       217.000         154.000
 02 12 10 22 30 30.0000000  0  8G29G28G 4G26G 9G 7G 8G24
  23693133.669     7184811.80749   5600982.64545  23693134.734    23693146.206
       211.000         147.000
  22006676.703     3692915.70849   2880520.13447  22006676.425    22006684.438
       236.000         189.000
  21522013.862   -16575811.56149 -12885983.48647  21522013.590    21522022.319
       236.000         192.000
  23776401.459     5919165.94749   4616074.64945  23776401.190    23776414.209
       217.000         156.000
  22678559.977   -14641406.61849 -11372022.11646  22678559.650    22678568.674
       225.000         173.000
  20965605.615     1452230.66449   1140619.61947  20965619.624    20965627.930
       245.000         211.000
  24103285.170    13983902.57149  10890579.80245  24103285.143    24103298.352
       210.000         146.000
  23578875.270   -10345195.81149  -7297577.41345  23578873.665    23578887.709
       219.000         157.000
 02 12 10 22 31  0.0000000  0  8G29G28G 4G26G 9G 7G 8G24
  23707070.041     7258047.12849   5658048.96945  23707071.066    23707081.797
       214.000         148.000
  22014828.759     3735754.97249   2913901.36447  22014828.531    22014836.154
       235.000         189.000
  21506247.249   -16658665.24549 -12950544.68247  21506246.875    21506255.965
       237.000         192.000
  23789681.507     5988952.33049   4670453.54945  23789681.636    23789693.114
       217.000         157.000
  22662962.194   -14723373.37049 -11435892.20446  22662961.928    22662972.076
       226.000         173.000
  20972961.082     1490884.04849   1170739.14747  20972974.972    20972983.320
       245.000         211.000
  24124865.607    14097308.12349  10978947.56445  24124865.913    24124879.687
       208.000         143.000
  23558612.548   -10451675.95349  -7380548.68545  23558611.233    23558626.317
       219.000         159.000
 02 12 10 22 31 30.0000000  0  8G29G28G 4G26G 9G 7G 8G24
  23721029.791     7331404.70749   5715210.57145  23721030.183    23721041.471
       212.000         148.000
  22023019.167     3778795.88849   2947439.72847  22023018.831    22023026.659
       236.000         189.000
  21490553.315   -16741137.06649 -13014808.32747  21490553.280    21490561.948
       236.000         192.000
  23802997.775     6058929.07549   4724980.79645  23802998.807    23803008.810
       218.000         156.000
  22647430.470   -14804992.42049 -11499491.34846  22647430.310    22647439.809
       226.000         174.000
  20980358.075     1529755.52049   1201028.61147  20980371.961    20980380.341
       245.000         211.000
  24146469.904    14210839.25249  11067413.19945  24146470.546    24146482.382
       207.000         141.000
  23538367.834   -10558061.49949  -7463446.26245  23538367.058    23538380.354
       217.000         159.000
 02 12 10 22 32  0.0000000  0  8G29G28G 4G26G 9G 7G 8G24
  23735011.955     7404881.13949   5772464.79045  23735012.413    23735024.559
       208.000         145.000
  22031248.027     3822038.83749   2981135.52147  22031247.595    22031255.824
       235.000         189.000
  21474932.484   -16823224.60649 -13078772.53147  21474932.653    21474941.189
       236.000         193.000
  23816349.546     6129092.91249   4779653.82145  23816348.955    23816361.754
       214.000         156.000
  22631965.429   -14886261.34749 -11562817.67546  22631965.217    22631975.362
       226.000         174.000
  20987796.188     1568843.11849   1231486.48747  20987810.261    20987818.430
       245.000         211.000
  24168097.598    14324493.36649  11155974.66245  24168098.923    24168112.084
       208.000         138.000
  23518141.570   -10664349.91549  -7546268.13545  23518140.600    23518153.923
       216.000         158.000
 02 12 10 22 32 30.0000000  0  8G29G28G 4G26G 9G 7G 8G24
  23749016.167     7478473.77549   5829809.51745  23749016.048    23749029.923
       206.000         142.000
  22039515.452     3865484.37949   3014989.17847  22039515.091    22039523.460
       235.000         189.000
  21459385.421   -16904924.54149 -13142434.70647  21459385.507    21459394.259
       236.000         193.000
  23829736.327     6199441.01049   4834470.40445  23829736.157    23829747.676
       216.000         156.000
  22616567.574   -14967177.50049 -11625869.11846  22616567.306    22616576.948
       225.000         174.000
  20995275.219     1608145.61149   1262111.81347  20995289.274    20995297.579
       245.000         211.000
  24189748.383    14438268.49149  11244630.42645  24189748.286    24189762.596
       205.000         137.000
  23497934.372   -10770538.24049  -7629012.01545  23497933.119    23497946.708
       214.000         157.000
 02 12 10 22 33  0.0000000  0  8G29G28G 4G26G 9G 7G 8G24
  23763041.984     7552179.36349   5887242.27845  23763041.389    23763054.742
       211.000         143.000
  22047821.527     3909133.10649   3049001.15947  22047821.051    22047829.460
       235.000         188.000
  21443912.645   -16986233.99449 -13205792.62347  21443912.408    21443921.377
       237.000         193.000
  23843157.757     6269970.51749   4889428.35345  23843157.386    23843169.419
       216.000         157.000
  22601237.282   -15047738.28149 -11688643.63246  22601236.460    22601245.789
       228.000         174.000
  21002794.807     1647661.34049   1292903.29447  21002808.848    21002816.878
       245.000         211.000
  24211421.659    14552161.89149  11333378.35045  24211421.572    24211436.464
       208.000         137.000
  23477746.853   -10876623.37449  -7711675.50345  23477745.725    23477759.672
       216.000         157.000
 02 12 10 22 33 30.0000000  0  8G29G28G 4G26G 9G 7G 8G24
  23777088.678     7625994.53649   5944760.46145  23777088.944    23777102.334
       211.000         146.000
  22056166.267     3952984.94649   3083171.41647  22056165.654    22056174.062
       235.000         188.000
  21428514.650   -17067150.70849 -13268844.50247  21428514.378    21428523.236
       237.000         194.000
  23856612.949     6340677.88849   4944524.89845  23856612.851    23856624.877
       215.000         156.000
  22585974.997   -15127941.74849 -11751139.73846  22585973.726    22585984.260
       226.000         174.000
  21010354.569     1687388.25349   1323859.33547  21010368.624    21010376.740
       245.000         211.000
  24233117.116    14666171.30049  11422216.68545  24233117.252    24233131.389
       210.000         139.000
  23457579.304   -10982603.51149  -7794257.15645  23457578.356    23457591.355
       215.000         157.000
 02 12 10 22 34  0.0000000  0  8G29G28G 4G26G 9G 7G 8G24
  23791155.791     7699916.86349   6002362.11445  23791156.465    23791168.674
       213.000         147.000
  22064549.876     3997041.04549   3117500.83947  22064549.140    22064557.760
       235.000         188.000
  21413192.072   -17147671.01649 -13331587.50947  21413192.106    21413200.839
       237.000         194.000
  23870101.586     6411560.69849   4999758.13345  23870101.982    23870113.151
       217.000         156.000
  22570781.264   -15207784.75249 -11813354.94346  22570780.784    22570789.335
       228.000         175.000
  21017954.385     1727325.38149   1354979.17947  21017968.453    21017976.470
       245.000         211.000
  24254834.327    14780294.81249  11511143.91945  24254833.708    24254849.897
       211.000         139.000
  23437432.445   -11088474.82949  -7876754.02745  23437431.644    23437444.913
       215.000         157.000
 02 12 10 22 34 30.0000000  0  8G29G28G 4G26G 9G 7G 8G24
  23805242.588     7773942.84449   6060044.53245  23805243.743    23805255.518
       213.000         147.000
  22072972.374     4041301.72949   3151989.67647  22072972.259    22072980.096
       234.000         188.000
  21397945.378   -17227792.50049 -13394019.73947  21397945.471    21397954.247
       237.000         194.000
  23883623.122     6482615.67549   5055125.53145  23883624.121    23883635.168
       219.000         158.000
  22555656.562   -15287264.92349 -11875287.42546  22555656.134    22555666.071
       229.000         174.000
  21025593.801     1767470.91449   1386261.41847  21025607.795    21025615.926
       245.000         211.000
  24276572.720    14894529.84149  11600158.07845  24276573.188    24276586.519
       214.000         141.000
  23417306.765   -11194234.71949  -7959164.07245  23417305.047    23417319.036
       214.000         157.000
 02 12 10 22 35  0.0000000  0  8G29G28G 4G26G 9G 7G 8G24
  23819348.629     7848069.58749   6117805.47145  23819348.798    23819361.164
       211.000         146.000
  22081433.969     4085767.46349   3186638.29147  22081433.662    22081441.746
       235.000         188.000
  21382775.162   -17307512.18749 -13456138.89247  21382775.163    21382783.617
       238.000         194.000
  23897176.796     6553839.83549   5110624.76345  23897177.198    23897188.568
       218.000         157.000
  22540601.454   -15366379.76849 -11936935.23446  22540600.107    22540609.015
       227.000         174.000
  21033272.654     1807823.39349   1417704.91247  21033286.739    21033294.892
       245.000         211.000
  24298331.872    15008874.07949  11689257.33345  24298332.005    24298346.519
       210.000         142.000
  23397202.814   -11299880.44649  -8041485.16145  23397202.314    23397215.078
       215.000         157.000
 02 12 10 22 35 30.0000000  0  8G29G28G 4G26G 9G 7G 8G24
  23833473.233     7922294.19949   6175642.67045  23833474.419    23833485.897
       213.000         145.000
  22089934.769     4130439.04649   3221447.31147  22089934.547    22089942.569
       234.000         188.000
  21367681.947   -17386827.01049 -13517942.56447  21367681.752    21367690.698
       238.000         195.000
  23910761.951     6625230.53949   5166253.76045  23910761.724    23910772.935
       216.000         156.000
  22525616.395   -15445126.32549 -11998296.08146  22525616.210    22525625.048
       228.000         175.000
  21040990.588     1848381.43149   1449308.58147  21041004.566    21041012.775
       245.000         210.000
  24320111.272    15123325.50049  11778440.09845  24320111.237    24320125.536
       213.000         143.000
  23377121.185   -11405408.80749  -8123714.79345  23377119.577    23377132.886
       214.000         156.000
 02 12 10 22 36  0.0000000  0  8G29G28G 4G26G 9G 7G 8G24
  23847615.851     7996613.79349   6233553.88645  23847616.169    23847628.903
       213.000         147.000
  22098474.675     4175316.91649   3256417.06946  22098473.955    22098482.380
       234.000         187.000
  21352666.374   -17465734.21049 -13579428.61347  21352666.077    21352674.644
       238.000         195.000
  23924378.403     6696784.88549   5222010.29445  23924378.298    23924390.210
       217.000         156.000
  22510701.812   -15523502.21749 -12059368.09246  22510702.465    22510710.750
       229.000         175.000
  21048747.375     1889143.54849   1481071.27347  21048761.396    21048769.557
       245.000         210.000
  24341910.822    15237881.93949  11867704.71045  24341910.226    24341925.725
       214.000         145.000
  23357062.438   -11510816.78049  -8205850.62345  23357062.202    23357074.783
       216.000         156.000
 02 12 10 22 36 30.0000000  0  8G29G28G 4G26G 9G 7G 8G24
  23861775.977     8071024.95649   6291536.46745  23861776.686    23861789.406
       215.000         149.000
  22107053.972     4220401.34949   3291547.78746  22107053.925    22107061.697
       235.000         187.000
  21337728.818   -17544231.08749 -13640594.93747  21337728.768    21337737.378
       237.000         195.000
  23938025.387     6768499.45349   5277891.66145  23938025.360    23938037.074
       219.000         157.000
  22495858.165   -15601505.20549 -12120149.51746  22495858.361    22495867.713
       229.000         176.000
  21056542.624     1930107.91449   1512991.55447  21056556.719    21056564.887
       244.000         210.000
  24363729.849    15352540.60949  11957048.97445  24363729.541    24363745.677
       212.000         147.000
  23337027.182   -11616101.93349  -8287890.74345  23337025.633    23337039.001
       216.000         156.000
 02 12 10 22 37  0.0000000  0  8G29G28G 4G26G 9G 7G 8G24
  23875952.851     8145524.34249   6349587.76345  23875952.822    23875965.535
       213.000         150.000
  22115672.658     4265692.49849   3326839.58146  22115672.299    22115680.366
       234.000         187.000
  21322869.792   -17622315.36049 -13701439.74347  21322869.555    21322878.152
       238.000         196.000
  23951702.267     6840370.79849   5333895.19845  23951702.521    23951714.608
       220.000         158.000
  22481086.051   -15679133.14549 -12180638.70446  22481085.009    22481095.227
       228.000         176.000
  21064376.003     1971272.61149   1545067.94347  21064390.116    21064398.162
       244.000         210.000
  24385567.837    15467298.83749  12046470.82745  24385567.743    24385583.344
       215.000         149.000
  23317015.791   -11721261.67749  -8369833.15045  23317014.876    23317027.105
       218.000         157.000
 02 12 10 22 37 30.0000000  0  8G29G28G 4G26G 9G 7G 8G24
  23890145.942     8220109.13749   6407705.60945  23890147.095    23890158.734
       214.000         151.000
  22124330.784     4311191.28649   3362293.17446  22124330.125    22124338.170
       234.000         187.000
  21308089.935   -17699983.82849 -13761960.55147  21308090.176    21308098.245
       238.000         196.000
  23965408.413     6912396.47749   5390018.99045  23965408.643    23965420.653
       220.000         157.000
  22466385.782   -15756383.11149 -12240833.35746  22466384.985    22466394.555
       228.000         176.000
  21072247.305     2012636.35849   1577299.43347  21072261.257    21072269.564
       245.000         210.000
  24407424.402    15582154.78949  12135968.84145  24407423.752    24407439.263
       213.000         147.000
  23297028.940   -11826292.61749  -8451675.19245  23297028.163    23297040.421
       218.000         157.000
 02 12 10 22 38  0.0000000  0  8G29G28G 4G26G 9G 7G 8G24
  23904354.994     8294777.22749   6465888.36345  23904354.620    23904368.207
       215.000         152.000
  22133028.658     4356898.88949   3397909.46746  22133028.273    22133036.237
       234.000         187.000
  21293389.845   -17777233.03349 -13822154.66947  21293389.883    21293398.685
       239.000         196.000
  23979143.417     6984574.00249   5446261.11245  23979142.705    23979154.753
       219.000         156.000
  22451758.049   -15833251.83249 -12300730.95446  22451757.931    22451767.742
       229.000         177.000
  21080156.287     2054198.51649   1609685.52747  21080170.322    21080178.604
       245.000         210.000
  24429299.161    15697106.80049  12225541.69645  24429298.708    24429313.476
       212.000         146.000
  23277067.151   -11931191.73849  -8533414.49645  23277065.973    23277078.861
       216.000         157.000
 02 12 10 22 38 30.0000000  0  8G29G28G 4G26G 9G 7G 8G24
  23918579.031     8369524.51149   6524132.82545  23918578.962    23918592.385
       215.000         153.000
  22141766.212     4402814.92349   3433688.17946  22141766.024    22141773.699
       235.000         186.000
  21278769.869   -17854061.20749 -13882020.70247  21278770.084    21278778.351
       238.000         197.000
  23992906.427     7056899.64449   5502618.62945  23992906.446    23992918.596
       217.000         155.000
  22437203.129   -15909737.90849 -12360330.38246  22437203.068    22437212.467
       229.000         177.000
  21088102.574     2095956.59249   1642224.28647  21088116.771    21088124.669
       245.000         209.000
  24451191.578    15812151.72449  12315186.96245  24451190.483    24451206.342
       210.000         146.000
  23257130.861   -12035956.81849  -8615049.33445  23257129.204    23257141.583
       219.000         158.000
 02 12 10 22 39  0.0000000  0  8G29G28G 4G26G 9G 7G 8G24
  23932817.720     8444348.68649   6582437.20445  23932817.305    23932830.179
       215.000         152.000
  22150543.632     4448940.30049   3469630.00946  22150543.078    22150551.167
       234.000         187.000
  21264230.698   -17930464.70749 -13941555.82847  21264230.749    21264239.111
       238.000         197.000
  24006697.306     7129370.90049   5559089.62745  24006697.139    24006709.631
       217.000         155.000
  22422721.689   -15985838.13549 -12419629.15246  22422721.383    22422730.636
       228.000         178.000
  21096085.983     2137909.59449   1674914.93247  21096100.034    21096108.021
       244.000         209.000
  24473101.328    15927287.90849  12404903.31945  24473101.265    24473115.463
       210.000         145.000
  23237220.703   -12140584.28149  -8696576.97145  23237221.037    23237231.570
       220.000         159.000
 02 12 10 22 39 30.0000000  0  8G29G28G 4G26G 9G 7G 8G24
  23947070.416     8519246.14149   6640798.69845  23947072.047    23947083.082
       215.000         151.000
  22159360.891     4495275.21149   3505735.10846  22159360.544    22159368.535
       234.000         186.000
  21249772.746   -18006441.48749 -14000758.44547  21249772.688    21249781.242
       239.000         197.000
  24020515.317     7201984.29149   5615671.36645  24020515.983    24020527.253
       218.000         155.000
  22408313.973   -16061550.59749 -12478625.77946  22408313.028    22408323.497
       229.000         178.000
  21104106.045     2180055.32249   1707755.75947  21104119.962    21104128.400
       244.000         209.000
  24495028.016    16042512.16349  12494688.31945  24495027.695    24495043.230
       208.000         147.000
  23217337.159   -12245072.20249  -8777995.85845  23217335.233    23217348.916
       218.000         160.000
 02 12 10 22 40  0.0000000  0  8G29G28G 4G26G 9G 7G 8G24
  23961336.517     8594213.96149   6699214.99745  23961336.802    23961349.561
       212.000         151.000
  22168218.189     4541820.25749   3542003.95046  22168218.332    22168225.456
       234.000         186.000
  21235396.520   -18081988.80749 -14059626.41747  21235396.561    21235404.766
       239.000         197.000
  24034359.916     7274736.88949   5672361.61345  24034360.369    24034371.175
       219.000         154.000
  22393980.625   -16136872.70149 -12537318.22846  22393980.760    22393989.765
       228.000         179.000
  21112162.566     2222392.54149   1740745.79447  21112176.704    21112184.686
       245.000         209.000
  24516971.039    16157822.63049  12584540.49845  24516971.094    24516985.061
       206.000         145.000
  23197480.877   -12349417.11449  -8859303.31645  23197480.578    23197491.787
       219.000         161.000
 02 12 10 22 40 30.0000000  0  8G29G28G 4G26G 9G 7G 8G24
  23975615.359     8669249.17549   6757683.81245  23975615.527    23975629.445
       212.000         150.000
  22177115.428     4588575.79649   3578436.80746  22177114.973    22177123.120
       234.000         186.000
  21221102.590   -18157103.74949 -14118157.46847  21221102.696    21221110.828
       239.000         198.000
  24048230.391     7347625.83349   5729158.06345  24048231.076    24048241.742
       215.000         152.000
  22379721.996   -16211801.76349 -12595704.40746  22379721.701    22379730.399
       229.000         179.000
  21120255.231     2264919.82249   1773883.93647  21120269.182    21120277.405
       244.000         209.000
  24538929.897    16273216.98049  12674458.03245  24538929.752    24538944.152
       205.000         143.000
  23177652.186   -12453616.45049  -8940497.32845  23177650.926    23177662.922
       220.000         161.000
 02 12 10 22 41  0.0000000  0  8G29G28G 4G26G 9G 7G 8G24
  23989906.521     8744349.23549   6816203.14545  23989906.933    23989920.356
       212.000         149.000
  22186052.958     4635542.65449   3615034.32546  22186052.445    22186059.864
       235.000         186.000
  21206891.451   -18231783.39049 -14176349.32947  21206891.275    21206899.897
       240.000         198.000
  24062126.195     7420648.48749   5786058.71145  24062125.887    24062135.851
       215.000         150.000
  22365538.660   -16286335.19949 -12653782.30946  22365538.550    22365547.359
       230.000         180.000
  21128383.858     2307635.97849   1807169.25147  21128397.725    21128405.944
       244.000         209.000
  24560904.392    16388693.25149  12764439.42745  24560904.030    24560918.957
       204.000         142.000
  23157851.910   -12557666.76049  -9021575.23345  23157851.433    23157862.767
       221.000         161.000
 02 12 10 22 41 30.0000000  0  8G29G28G 4G26G 9G 7G 8G24
  24004209.350     8819510.73249   6874770.36745  24004209.132    24004222.889
       213.000         149.000
  22195030.799     4682721.30649   3651796.88046  22195030.690    22195038.356
       234.000         186.000
  21192763.642   -18306025.27549 -14234200.07347  21192763.525    21192771.891
       240.000         198.000
  24076046.758     7493801.62049   5843061.03145  24076047.019    24076058.456
       215.000         149.000
  22351431.013   -16360470.94549 -12711550.31646  22351430.736    22351439.780
       230.000         181.000
  21136548.065     2350539.24549   1840600.36447  21136561.883    21136570.224
       244.000         209.000
  24582893.857    16504248.60149  12854482.40445  24582894.137    24582908.867
       202.000         139.000
  23138080.416   -12661565.47049  -9102535.00145  23138079.791    23138090.798
       219.000         161.000
 02 12 10 22 42  0.0000000  0  8G29G28G 4G26G 9G 7G 8G24
  24018523.509     8894731.21249   6933383.56045  24018523.562    24018536.830
       213.000         148.000
  22204049.066     4730112.42349   3688724.99346  22204048.507    22204057.092
       233.000         186.000
  21178719.717   -18379826.33349 -14291707.31947  21178719.627    21178728.029
       240.000         198.000
  24089991.567     7567082.53749   5900162.92645  24089991.056    24090003.075
       215.000         149.000
  22337399.669   -16434206.05949 -12769006.15546  22337398.801    22337407.857
       230.000         181.000
  21144747.668     2393628.42849   1874176.34747  21144761.506    21144769.847
       244.000         208.000
  24604897.960    16619881.30449  12944585.65845  24604898.153    24604912.004
       204.000         139.000
  23118338.360   -12765309.51549  -9183374.27345  23118337.678    23118349.290
       220.000         162.000
 02 12 10 22 42 30.0000000  0  8G29G28G 4G26G 9G 7G 8G24
  24032848.221     8970007.18449   6992040.00845  24032848.845    24032859.997
       211.000         145.000
  22213107.716     4777716.00749   3725818.65146  22213107.456    22213114.986
       234.000         185.000
  21164760.132   -18453184.14849 -14348869.17847  21164760.241    21164768.542
       241.000         199.000
  24103960.117     7640487.81049   5957361.73045  24103959.136    24103972.482
       214.000         149.000
  22323444.878   -16507538.51949 -12826148.24146  22323444.481    22323453.797
       231.000         181.000
  21152982.337     2436901.81749   1907895.86547  21152996.475    21153004.589
       245.000         208.000
  24626916.406    16735588.53949  13034747.00045  24626915.721    24626930.515
       199.000         136.000
  23098626.219   -12868896.16649  -9264090.87946  23098625.304    23098636.964
       221.000         163.000
 02 12 10 22 43  0.0000000  0  8G29G28G 4G26G 9G 7G 8G24
  24047182.875     9045335.72649   7050737.39645  24047182.342    24047197.681
       208.000         141.000
  22222206.949     4825532.68349   3763078.36746  22222206.636    22222214.383
       234.000         185.000
  21150885.360   -18526096.18049 -14405683.67247  21150885.337    21150893.684
       241.000         199.000
  24117951.828     7714014.55349   6014655.17645  24117952.069    24117963.069
       215.000         148.000
  22309567.230   -16580465.65149 -12882974.46946  22309567.328    22309576.101
       230.000         182.000
  21161251.733     2480357.77649   1941757.64647  21161265.651    21161274.055
       244.000         208.000
  24648948.704    16851368.48449  13124964.98345  24648948.698    24648961.971
       206.000         137.000
  23078944.632   -12972322.23849  -9344682.37846  23078944.229    23078955.678
       220.000         163.000
 02 12 10 22 43 30.0000000  0  7G29G28G 4G26G 9G 7G24
  24061527.369     9120716.22149   7109475.24745  24061529.150    24061541.136
       209.000         140.000
  22231347.284     4873565.24649   3800506.29746  22231346.949    22231355.291
       234.000         185.000
  21137096.398   -18598557.42749 -14462146.90747  21137096.383    21137104.479
       241.000         199.000
  24131966.707     7787662.29849   6072042.91045  24131966.797    24131979.145
       212.000         148.000
  22295767.648   -16652982.80249 -12939481.23146  22295767.311    22295776.766
       230.000         182.000
  21169556.046     2523997.20549   1975762.38747  21169570.381    21169578.066
       244.000         208.000
  23059294.514   -13075583.30249  -9425145.29446  23059293.253    23059306.095
       220.000         163.000
 02 12 10 22 44  0.0000000  0  7G29G28G 4G26G 9G 7G24
  24075881.749     9196148.47249   7168253.43845  24075881.984    24075895.501
       208.000         139.000
  22240529.346     4921816.98649   3838105.01646  22240528.602    22240536.511
       234.000         185.000
  21123394.248   -18670562.40749 -14518254.60547  21123394.278    21123402.542
       241.000         199.000
  24146004.621     7861430.60049   6129524.58345  24146006.048    24146016.465
       214.000         148.000
  22282047.022   -16725084.70949 -12995664.44046  22282046.500    22282055.355
       230.000         182.000
  21177895.535     2567821.38249   2009911.09247  21177909.648    21177917.722
       244.000         208.000
  23039676.938   -13178673.45049  -9505475.04846  23039676.004    23039687.426
       220.000         164.000
 02 12 10 22 44 30.0000000  0  7G29G28G 4G26G 9G 7G24
  24090243.712     9271620.64849   7227062.74945  24090242.222    24090256.839
       208.000         139.000
  22249751.486     4970279.62449   3875868.07846  22249751.148    22249759.305
       233.000         185.000
  21109777.720   -18742117.39949 -14574011.66347  21109777.945    21109785.900
       240.000         200.000
  24160063.180     7935307.95549   6187091.23145  24160062.507    24160074.940
       210.000         146.000
  22268404.163   -16796777.83049 -13051529.11046  22268403.095    22268412.760
       229.000         182.000
  21186268.243     2611820.30549   2044195.95947  21186282.192    21186290.169
       244.000         208.000
  23020090.751   -13281598.41349  -9585676.08746  23020089.454    23020101.385
       221.000         164.000
 02 12 10 22 45  0.0000000  0  7G29G28G 4G26G 9G 7G24
  24104613.184     9347131.80049   7285902.42645  24104614.153    24104627.566
       205.000         138.000
  22259014.256     5018955.56549   3913797.34146  22259014.525    22259021.793
       234.000         184.000
  21096247.701   -18813217.84249 -14629414.53547  21096247.502    21096255.856
       241.000         200.000
  24174142.021     8009293.22349   6244741.94645  24174141.180    24174152.914
       211.000         145.000
  22254839.972   -16868057.76749 -13107071.81146  22254839.825    22254848.829
       231.000         182.000
  21194674.279     2655994.23149   2078617.19247  21194688.163    21194696.554
       244.000         208.000
  23000536.954   -13384353.58149  -9665744.83546  23000535.940    23000547.379
       222.000         165.000
 02 12 10 22 45 30.0000000  0  7G29G28G 4G26G 9G 7G24
  24118989.421     9422678.75949   7344769.99545  24118991.360    24119003.394
       205.000         138.000
  22268317.634     5067844.88249   3951892.86546  22268317.055    22268324.660
       233.000         184.000
  21082804.621   -18883861.42749 -14684461.40947  21082804.568    21082812.592
       241.000         200.000
  24188240.792     8083383.10249   6302474.19645  24188240.899    24188252.992
       212.000         145.000
  22241354.812   -16938922.35949 -13162290.86446  22241355.070    22241363.053
       232.000         183.000
  21203113.250     2700341.45849   2113173.46647  21203127.260    21203135.688
       244.000         208.000
  22981015.934   -13486936.31149  -9745679.22546  22981014.505    22981026.703
       222.000         166.000
 02 12 10 22 46  0.0000000  0  7G29G28G 4G26G 9G 7G24
  24133372.300     9498260.35249   7403664.53245  24133371.744    24133385.799
       205.000         137.000
  22277662.027     5116949.96849   3990156.53446  22277661.406    22277668.728
       233.000         184.000
  21069449.347   -18954043.46349 -14739148.63847  21069449.414    21069457.692
       241.000         200.000
  24202359.381     8157576.55749   6360287.11945  24202360.704    24202371.213
       212.000         145.000
  22227949.513   -17009367.12949 -13217182.79246  22227949.161    22227958.390
       232.000         183.000
  21211585.348     2744862.53149   2147865.20047  21211599.245    21211607.632
       244.000         207.000
  22961528.686   -13589341.67349  -9825475.41546  22961528.055    22961539.376
       222.000         167.000
 02 12 10 22 46 30.0000000  0  7G29G28G 4G26G 9G 7G24
  24147761.093     9573873.08449   7462583.34445  24147760.493    24147776.036
       210.000         137.000
  22287047.498     5166270.76049   4028588.28846  22287046.679    22287055.241
       233.000         184.000
  21056182.250   -19023762.31849 -14793474.93947  21056182.188    21056190.488
       241.000         200.000
  24216497.326     8231870.09349   6418178.06245  24216496.878    24216509.571
       211.000         145.000
  22214624.484   -17079390.43249 -13271746.29746  22214623.476    22214632.799
       230.000         183.000
  21220090.103     2789555.31749   2182690.74447  21220104.088    21220112.297
       244.000         207.000
  22942075.559   -13691567.35049  -9905131.59446  22942074.732    22942085.622
       222.000         167.000
 02 12 10 22 47  0.0000000  0  7G29G28G 4G26G 9G 7G24
  24162155.304     9649514.31749   7521524.37545  24162156.077    24162168.879
       210.000         137.000
  22296474.166     5215808.08449   4067188.76546  22296473.682    22296482.170
       233.000         183.000
  21043003.880   -19093014.83249 -14847437.86447  21043003.852    21043011.863
       241.000         201.000
  24230653.519     8306261.04549   6476144.90545  24230654.127    24230666.275
       212.000         144.000
  22201380.143   -17148989.63349 -13325979.33946  22201379.605    22201388.552
       231.000         183.000
  21228627.353     2834418.76749   2217649.27047  21228641.397    21228649.557
       244.000         207.000
  22922657.249   -13793610.36249  -9984645.45346  22922655.886    22922667.043
       222.000         166.000
 02 12 10 22 47 30.0000000  0  7G29G28G 4G26G 9G 7G24
  24176554.529     9725181.75849   7580485.83745  24176555.739    24176568.251
       211.000         138.000
  22305942.181     5265562.65849   4105958.53446  22305941.368    22305950.158
       232.000         183.000
  21029914.783   -19161798.13949 -14901035.16947  21029915.123    21029922.910
       240.000         201.000
  24244827.783     8380747.12849   6534185.86945  24244826.606    24244840.686
       212.000         144.000
  22188217.056   -17218161.78749 -13379879.62946  22188216.198    22188225.493
       230.000         184.000
  21237196.887     2879452.05449   2252740.14147  21237210.725    21237219.106
       244.000         207.000
  22903274.386   -13895467.20149 -10064014.25246  22903273.404    22903285.238
       222.000         167.000
 02 12 10 22 48  0.0000000  0  7G29G28G 4G26G 9G 7G24
  24190958.116     9800872.28749   7639465.29045  24190957.948    24190970.351
       210.000         139.000
  22315451.639     5315535.18449   4144898.12546  22315451.025    22315459.472
       232.000         183.000
  21016915.461   -19230109.75249 -14954264.92347  21016915.432    21016923.755
       241.000         201.000
  24259019.515     8455325.11049   6592298.42045  24259020.070    24259032.016
       210.000         144.000
  22175135.623   -17286904.42749 -13433445.22046  22175135.923    22175143.954
       231.000         184.000
  21245798.457     2924653.59049   2287962.11447  21245812.460    21245820.678
       243.000         207.000
  22883927.552   -13997134.81049 -10143235.59946  22883927.167    22883938.665
       223.000         167.000
 02 12 10 22 48 30.0000000  0  7G29G28G 4G26G 9G 7G24
  24205364.820     9876579.17449   7698457.51445  24205365.224    24205378.058
       210.000         138.000
  22325001.956     5365722.25449   4184004.89546  22325001.243    22325009.493
       232.000         182.000
  21004005.693   -19297950.80149 -15007128.00947  21004005.649    21004013.936
       241.000         202.000
  24273227.504     8529988.35149   6650477.42745  24273228.524    24273238.914
       212.000         145.000
  22162135.699   -17355219.21449 -13486677.41846  22162134.943    22162144.503
       231.000         184.000
  21254431.054     2970018.17149   2323311.13447  21254445.044    21254453.176
       243.000         207.000
  22864616.477   -14098614.43849 -10222310.48046  22864615.796    22864626.848
       222.000         168.000
 02 12 10 22 49  0.0000000  0  7G29G28G 4G26G 9G 7G24
  24219775.059     9952304.56049   7757464.12045  24219775.408    24219789.293
       211.000         137.000
  22334594.088     5416129.14149   4223282.95746  22334593.792    22334601.261
       232.000         182.000
  20991186.836   -19365314.13749 -15059618.84547  20991186.914    20991195.018
       241.000         202.000
  24287452.387     8604738.85649   6708724.45145  24287453.556    24287464.536
       213.000         146.000
  22149218.559   -17423098.94649 -13539570.62746  22149218.295    22149226.631
       231.000         184.000
  21263095.342     3015549.36549   2358789.98647  21263109.196    21263117.496
       244.000         207.000
  22845342.638   -14199898.32749 -10301232.83946  22845342.409    22845354.051
       224.000         168.000
 02 12 10 22 49 30.0000000  0  7G29G28G 4G26G 9G 7G24
  24234188.008    10028044.61449   7816482.17945  24234188.920    24234200.989
       208.000         136.000
  22344228.002     5466755.62649   4262732.12646  22344227.623    22344235.512
       232.000         182.000
  20978459.185   -19432198.04049 -15111736.10047  20978459.255    20978467.069
       241.000         202.000
  24301693.009     8679572.80349   6767036.47345  24301693.188    24301705.091
       215.000         147.000
  22136384.486   -17490542.08049 -13592123.62346  22136383.401    22136392.565
       231.000         184.000
  21271790.888     3061244.77049   2394396.79447  21271804.976    21271813.098
       244.000         206.000
  22826106.572   -14300984.15349 -10380000.88446  22826105.476    22826117.108
       225.000         169.000
 02 12 10 22 50  0.0000000  0  7G29G28G 4G26G 9G 7G24
  24248603.162    10103796.49349   7875509.45245  24248604.560    24248614.887
       207.000         135.000
  22353903.702     5517601.78349   4302352.47046  22353904.144    22353911.133
       231.000         181.000
  20965823.243   -19498600.21349 -15163477.98047  20965823.213    20965831.353
       241.000         202.000
  24315948.813     8754487.25649   6825411.21945  24315949.998    24315961.982
       214.000         147.000
  22123633.919   -17557546.33249 -13644334.64146  22123633.737    22123641.916
       232.000         185.000
  21280517.447     3107103.11249   2430130.56847  21280531.515    21280539.630
       243.000         206.000
  22806908.695   -14401869.38149 -10458612.59746  22806908.086    22806918.686
       226.000         169.000
 02 12 10 22 50 30.0000000  0  7G29G28G 4G26G 9G 7G24
  24263019.953    10179556.80049   7934543.29245  24263020.440    24263035.366
       209.000         135.000
  22363621.323     5568667.97149   4342144.26246  22363620.897    22363628.962
       232.000         181.000
  20953279.353   -19564518.36749 -15214842.70347  20953279.387    20953287.381
       242.000         202.000
  24330219.287     8829478.97249   6883846.17945  24330219.729    24330231.866
       212.000         148.000
  22110967.244   -17624109.60949 -13696202.04846  22110967.086    22110975.682
       232.000         185.000
  21289274.695     3153122.67949   2465989.97347  21289288.662    21289297.054
       243.000         206.000
  22787749.429   -14502551.31249 -10537065.92646  22787749.040    22787759.774
       225.000         170.000
 02 12 10 22 51  0.0000000  0  7G29G28G 4G26G 9G 7G24
  24277437.803    10255322.61649   7993581.41045  24277437.969    24277452.509
       206.000         136.000
  22373380.833     5619954.57949   4382107.81346  22373380.161    22373388.967
       231.000         181.000
  20940828.062   -19629950.22049 -15265828.48947  20940827.986    20940836.037
       242.000         203.000
  24344503.909     8904544.86249   6942338.91745  24344504.990    24344517.318
       214.000         149.000
  22098384.927   -17690229.71649 -13747724.12146  22098384.467    22098392.458
       232.000         185.000
  21298062.335     3199301.86749   2501973.75447  21298076.329    21298084.360
       244.000         206.000
  22768629.334   -14603027.27349 -10615358.76146  22768628.427    22768639.854
       224.000         170.000
 02 12 10 22 51 30.0000000  0  7G29G28G 4G26G 9G 7G24
  24291856.167    10331090.96649   8052621.50945  24291857.087    24291870.240
       211.000         139.000
  22383182.356     5671461.75549   4422243.24346  22383182.056    22383190.121
       231.000         180.000
  20928469.759   -19694893.30449 -15316433.41647  20928469.552    20928477.637
       241.000         203.000
  24358802.178     8979681.99449   7000887.17745  24358802.782    24358815.574
       213.000         149.000
  22085887.384   -17755904.42149 -13798899.13446  22085887.318    22085896.037
       232.000         185.000
  21306880.061     3245639.33649   2538080.87447  21306894.064    21306902.183
       243.000         206.000
  22749549.006   -14703294.30849 -10693488.80046  22749549.664    22749560.146
       226.000         171.000
 02 12 10 22 52  0.0000000  0  7G29G28G 4G26G 9G 7G24
  24306274.442    10406858.49449   8111660.95545  24306275.156    24306287.523
       210.000         142.000
  22393025.845     5723189.57249   4462550.59646  22393025.441    22393034.124
       231.000         180.000
  20916204.764   -19759345.95849 -15366656.18847  20916204.593    20916212.785
       242.000         203.000
  24373113.308     9054886.97749   7059488.29645  24373113.675    24373126.125
       213.000         150.000
  22073474.906   -17821132.06549 -13849725.79346  22073475.131    22073483.036
       233.000         186.000
  21315727.498     3292133.14149   2574309.81747  21315741.479    21315749.862
       243.000         206.000
  22730508.921   -14803350.22249 -10771454.32946  22730508.317    22730519.746
       225.000         171.000
 02 12 10 22 52 30.0000000  0  7G29G28G 4G26G 9G 7G24
  24320692.123    10482622.78349   8170697.88645  24320691.426    24320705.774
       211.000         143.000
  22402911.457     5775138.75849   4503030.44546  22402911.517    22402919.212
       231.000         180.000
  20904033.677   -19823305.10649 -15416494.40747  20904033.589    20904041.559
       242.000         203.000
  24387436.962     9130157.35149   7118140.36145  24387437.458    24387450.331
       215.000         150.000
  22061148.104   -17885909.69349 -13900201.78746  22061147.365    22061156.303
       232.000         186.000
  21324604.609     3338782.47949   2610659.95447  21324618.694    21324626.835
       243.000         206.000
  22711509.632   -14903191.71549 -10849252.78246  22711508.790    22711520.673
       226.000         171.000
 02 12 10 22 53  0.0000000  0  7G29G28G 4G26G 9G 7G24
  24335108.515    10558380.64749   8229729.81245  24335108.535    24335122.078
       210.000         143.000
  22412839.233     5827309.32149   4543682.79846  22412838.635    22412846.823
       230.000         180.000
  20891956.815   -19886769.07249 -15465946.77047  20891956.809    20891964.830
       242.000         204.000
  24401772.439     9205489.61349   7176840.67045  24401772.964    24401785.913
       214.000         151.000
  22048907.198   -17950235.62549 -13950325.81246  22048906.869    22048915.523
       233.000         186.000
  21333510.904     3385585.34949   2647129.72447  21333524.868    21333533.034
       243.000         205.000
  22692551.606   -15002816.42449 -10926882.31646  22692550.424    22692561.342
       225.000         170.000
 02 12 10 22 53 30.0000000  0  7G29G28G 4G26G 9G 7G24
  24349523.177    10634129.42849   8288754.67045  24349523.186    24349538.056
       209.000         143.000
  22422809.290     5879702.07649   4584508.29246  22422808.862    22422816.854
       231.000         179.000
  20879974.699   -19949735.23449 -15515011.23247  20879974.554    20879982.582
       242.000         204.000
  24416119.150     9280881.31149   7235587.26845  24416120.282    24416131.638
       215.000         151.000
  22036752.735   -18014107.44249 -14000095.97446  22036752.564    22036760.731
       233.000         186.000
  21342446.185     3432540.82049   2683718.40747  21342460.062    21342468.409
       242.000         205.000
  22673635.362   -15102221.18949 -11004340.46046  22673634.449    22673646.214
       225.000         170.000
 02 12 10 22 54  0.0000000  0  7G29G28G 4G26G 9G 7G24
  24363935.399    10709865.90749   8347769.92945  24363934.989    24363949.924
       209.000         142.000
  22432821.643     5932317.10549   4625506.98446  22432821.271    22432829.457
       230.000         179.000
  20868087.736   -20012201.46849 -15563686.13947  20868087.664    20868095.631
       242.000         204.000
  24430476.565     9356329.21349   7294377.68445  24430477.013    24430489.497
       216.000         151.000
  22024685.098   -18077523.17649 -14049510.75146  22024684.898    22024693.000
       232.000         187.000
  21351410.225     3479647.27449   2720424.74047  21351424.277    21351432.579
       243.000         205.000
  22654761.577   -15201403.18149 -11081625.00746  22654760.835    22654772.351
       224.000         171.000
 02 12 10 22 54 30.0000000  0  7G29G28G 4G26G 9G 7G24
  24378344.935    10785587.54849   8406773.63145  24378345.563    24378360.082
       210.000         141.000
  22442876.404     5985155.21949   4666679.50646  22442875.980    22442884.457
       231.000         179.000
  20856296.345   -20074165.14749 -15611969.44347  20856296.376    20856304.142
       242.000         204.000
  24444844.224     9431830.78349   7353209.90645  24444844.536    24444856.785
       215.000         151.000
  22012704.722   -18140479.99749 -14098567.93646  22012704.172    22012713.040
       233.000         187.000
  21360402.820     3526903.69949   2757247.93147  21360416.731    21360425.023
       243.000         205.000
  22635930.762   -15300359.26549 -11158733.53146  22635929.972    22635940.641
       224.000         171.000
 02 12 10 22 55  0.0000000  0  7G29G28G 4G26G 9G 7G24
  24392751.022    10861291.34149   8465763.43145  24392751.819    24392765.754
       208.000         140.000
  22452973.613     6038216.32849   4708025.79746  22452972.930    22452981.768
       230.000         179.000
  20844600.989   -20135624.45249 -15659859.73247  20844600.903    20844608.887
       242.000         204.000
  24459221.422     9507382.67149   7412081.35945  24459221.653    24459234.900
       216.000         151.000
  22000812.000   -18202976.16549 -14147266.16646  22000811.375    22000820.396
       233.000         187.000
  21369423.653     3574308.43749   2794186.69247  21369437.666    21369445.667
       243.000         205.000
  22617143.366   -15399087.20249 -11235664.26146  22617142.578    22617154.258
       225.000         171.000
 02 12 10 22 55 30.0000000  0  7G29G28G 4G26G 9G 7G24
  24407153.091    10936974.45749   8524737.09745  24407153.669    24407167.668
       203.000         138.000
  22463113.395     6091501.02949   4749546.31246  22463113.170    22463120.951
       229.000         179.000
  20833002.080   -20196576.77149 -15707354.96847  20833001.993    20833009.935
       242.000         204.000
  24473607.607     9582982.14749   7470989.86545  24473607.194    24473620.321
       215.000         151.000
  21989007.505   -18265009.10449 -14195603.44347  21989007.017    21989016.179
       233.000         188.000
  21378472.470     3621860.21649   2831240.02747  21378486.482    21378494.696
       243.000         205.000
  22598399.936   -15497583.89349 -11312414.81746  22598399.014    22598409.762
       225.000         172.000
 02 12 10 22 56  0.0000000  0  8G29G28G 5G 4G26G 9G 7G24
  24421550.636    11012633.35349   8583691.88345  24421550.362    24421565.716
       202.000         137.000
  22473295.568     6145008.69049   4791240.56246  22473295.321    22473303.267
       231.000         179.000
  24570630.816    -6066100.89549  -4706245.70645  24570629.567    24570643.482
       208.000         137.000
  20821499.913   -20257020.83349 -15754454.15847  20821499.916    20821507.663
       242.000         205.000
  24488002.118     9658625.58549   7529932.63845  24488001.309    24488015.686
       215.000         149.000
  21977291.338   -18326577.64949 -14243578.85447  21977290.738    21977299.639
       233.000         188.000
  21387548.897     3669557.12349   2868406.45347  21387562.818    21387571.142
       242.000         204.000
  22579700.951   -15595847.15349 -11388983.45746  22579699.819    22579711.121
       226.000         173.000
 02 12 10 22 56 30.0000000  0  8G29G28G 5G 4G26G 9G 7G24
  24435942.174    11088260.52249   8642621.94345  24435942.229    24435956.965
       203.000         137.000
  22483519.462     6198735.42749   4833105.53046  22483519.084    22483527.153
       231.000         179.000
  24554383.130    -6151481.52149  -4772775.78545  24554382.015    24554394.297
       208.000         137.000
  20810094.038   -20316958.84749 -15801159.02947  20810093.922    20810101.853
       242.000         205.000
  24502403.663     9734305.61849   7588903.94345  24502404.508    24502417.070
       213.000         148.000
  21965663.120   -18387684.08949 -14291194.18747  21965662.658    21965671.820
       233.000         188.000
  21396651.759     3717393.07149   2905681.21847  21396665.567    21396673.702
       243.000         204.000
  22561046.060   -15693878.83249 -11465371.66046  22561045.323    22561055.977
       225.000         173.000
 02 12 10 22 57  0.0000000  0  7G28G 5G 4G26G 9G 7G24
  22493786.694     6252690.08749   4875148.09946  22493786.496    22493794.184
       230.000         178.000
  24538129.011    -6236896.17249  -4839332.43345  24538128.647    24538139.380
       207.000         136.000
  20798786.509   -20376379.98249 -15847461.13647  20798786.560    20798794.318
       243.000         205.000
  24516813.266     9810027.95449   7647908.22145  24516814.153    24516827.469
       210.000         148.000
  21954124.862   -18448317.72949 -14338441.10147  21954124.426    21954133.071
       234.000         189.000
  21405782.515     3765375.47749   2943070.10547  21405796.645    21405804.523
       242.000         204.000
  22542437.402   -15791667.34849 -11541570.37646  22542436.516    22542447.869
       226.000         174.000
 02 12 10 22 57 30.0000000  0  7G28G 5G 4G26G 9G 7G24
  22504098.039     6306876.45649   4917371.22146  22504098.127    22504105.509
       230.000         178.000
  24521869.292    -6322340.76649  -4905912.43045  24521868.144    24521881.027
       205.000         136.000
  20787578.365   -20435278.93649 -15893356.35447  20787578.369    20787586.057
       243.000         205.000
  24531230.893     9885792.93149   7706945.69345  24531232.221    24531244.478
       210.000         146.000
  21942677.669   -18508473.02349 -14385315.28447  21942677.421    21942685.757
       234.000         189.000
  21414941.471     3813506.29349   2980574.63547  21414955.515    21414964.002
       242.000         204.000
  22523876.219   -15889206.68249 -11617574.91746  22523876.065    22523886.188
       226.000         175.000
 02 12 10 22 58  0.0000000  0  7G28G 5G 4G26G 9G 7G24
  22514452.004     6361286.59449   4959768.70546  22514451.490    22514459.670
       230.000         178.000
  24505602.437    -6407822.85449  -4972521.62545  24505601.285    24505614.490
       205.000         137.000
  20776468.435   -20493661.67149 -15938849.32247  20776468.510    20776475.860
       243.000         205.000
  24545654.641     9961589.47949   7766007.77645  24545655.356    24545667.606
       211.000         145.000
  21931320.298   -18568156.08949 -14431821.49947  21931320.113    21931328.264
       234.000         189.000
  21424126.921     3861776.12949   3018187.48947  21424140.676    21424149.118
       242.000         204.000
  22505361.380   -15986502.44349 -11693389.67346  22505360.313    22505371.028
       226.000         175.000
 02 12 10 22 58 30.0000000  0  7G28G 5G 4G26G 9G 7G24
  22524848.698     6415921.61249   5002341.41946  22524848.412    22524856.224
       230.000         178.000
  24489328.658    -6493341.13649  -5039159.09745  24489327.531    24489339.188
       205.000         137.000
  20765457.312   -20551525.30949 -15983937.80347  20765457.073    20765465.149
       243.000         205.000
  24560084.043    10037415.43349   7825092.78945  24560084.188    24560097.456
       209.000         143.000
  21920053.288   -18627364.24949 -14477957.64947  21920052.653    21920061.581
       234.000         189.000
  21433338.673     3910183.99549   3055907.89647  21433352.549    21433360.975
       242.000         203.000
  22486893.533   -16083551.11549 -11769011.88546  22486893.008    22486904.125
       227.000         175.000
 02 12 10 22 59  0.0000000  0  7G28G 5G 4G26G 9G 7G24
  22535288.368     6470782.26949   5045089.95346  22535288.055    22535296.732
       230.000         178.000
  24473048.340    -6578894.14949  -5105823.65045  24473048.651    24473059.727
       205.000         138.000
  20754545.368   -20608867.57849 -16028620.02547  20754545.347    20754553.115
       242.000         205.000
  24574518.484    10113268.37149   7884198.83745  24574518.265    24574531.598
       205.000         141.000
  21908877.123   -18686095.17749 -14523721.93647  21908876.241    21908885.062
       233.000         190.000
  21442576.575     3958729.39849   3093735.47047  21442590.474    21442598.878
       242.000         203.000
  22468473.414   -16180349.10849 -11844438.76346  22468472.830    22468483.376
       227.000         176.000
 02 12 10 22 59 30.0000000  0  7G28G 5G 4G26G 9G 7G24
  22545770.927     6525868.51849   5088014.26746  22545770.958    22545778.791
       230.000         177.000
  24456761.421    -6664481.59949  -5172515.00645  24456759.788    24456774.069
       202.000         137.000
  20743733.060   -20665686.25349 -16072894.24947  20743732.943    20743740.594
       243.000         206.000
  24588957.465    10189145.14849   7943323.44245  24588957.679    24588970.088
       208.000         140.000
  21897792.151   -18744346.72849 -14569112.68547  21897791.654    21897800.112
       234.000         190.000
  21451840.304     4007410.71749   3131668.96047  21451854.390    21451862.594
       242.000         203.000
  22450101.428   -16276894.03849 -11919668.44246  22450100.559    22450111.564
       227.000         176.000
 02 12 10 23  0  0.0000000  0  7G28G 5G 4G26G 9G 7G24
  22556296.639     6581181.31149   5131115.12546  22556296.101    22556304.435
       230.000         177.000
  24440468.080    -6750102.11949  -5239232.15745  24440468.406    24440478.840
       208.000         139.000
  20733020.839   -20721979.07149 -16116758.71747  20733020.908    20733028.501
       243.000         206.000
  24603400.548    10265043.42149   8002464.79945  24603401.200    24603413.290
       208.000         141.000
  21886798.869   -18802116.48049 -14614128.00847  21886798.475    21886806.829
       234.000         190.000
  21461129.746     4056227.09449   3169707.68947  21461143.819    21461151.870
       242.000         203.000
  22431778.272   -16373182.63649 -11994698.37846  22431777.813    22431787.831
       228.000         176.000
 02 12 10 23  0 30.0000000  0  7G28G 5G 4G26G 9G 7G24
  22566865.459     6636720.72749   5174392.54546  22566864.595    22566873.123
       229.000         177.000
  24424168.798    -6835755.15549  -5305974.72345  24424168.000    24424179.588
       203.000         140.000
  20722409.122   -20777743.73149 -16160211.63647  20722409.065    20722416.632
       243.000         206.000
  24617847.151    10340960.22749   8061620.62245  24617847.239    24617861.143
       206.000         139.000
  21875897.688   -18859402.32049 -14658766.24747  21875897.092    21875905.539
       235.000         190.000
  21470444.662     4105177.19949   3207850.61947  21470458.671    21470466.698
       242.000         203.000
  22413504.368   -16469212.23049 -12069526.49546  22413504.234    22413514.674
       227.000         177.000
 02 12 10 23  1  0.0000000  0  7G28G 5G 4G26G 9G 7G24
  22577477.555     6692487.38049   5217847.05046  22577477.607    22577486.127
       229.000         177.000
  24407863.324    -6921439.79749  -5372741.76345  24407862.558    24407875.285
       207.000         141.000
  20711898.286   -20832978.34549 -16203251.53247  20711898.161    20711905.721
       243.000         206.000
  24632296.703    10416892.76249   8120788.66645  24632296.816    24632310.410
       204.000         134.000
  21865089.028   -18916201.85049 -14703025.54747  21865089.184    21865096.802
       235.000         190.000
  21479784.764     4154259.97649   3246096.93247  21479798.825    21479806.815
       242.000         202.000
  22395280.333   -16564979.68649 -12144150.35046  22395279.611    22395289.990
       228.000         177.000
 02 12 10 23  1 30.0000000  0  7G28G 5G 4G26G 9G 7G24
  22588132.802     6748480.85749   5261478.29446  22588132.681    22588140.855
       229.000         177.000
  24391552.098    -7007156.12749  -5439533.52245  24391551.270    24391564.603
       210.000         145.000
  20701488.498   -20887681.75149 -16245877.50147  20701488.618    20701496.156
       243.000         206.000
  24646748.624    10492837.47049   8179966.20745  24646747.562    24646761.428
       203.000         132.000
  21854373.065   -18972514.20149 -14746905.23147  21854372.803    21854381.095
       235.000         191.000
  21489149.723     4203473.11249   3284444.82547  21489163.771    21489172.074
       242.000         202.000
  22377106.456   -16660483.58349 -12218568.83346  22377105.382    22377115.624
       228.000         178.000
 02 12 10 23  2  0.0000000  0  7G28G 5G 4G26G 9G 7G24
  22598831.374     6804702.18649   5305287.08046  22598831.375    22598839.278
       229.000         176.000
  24375234.959    -7092902.39949  -5506348.65745  24375232.787    24375245.419
       203.000         141.000
  20691180.384   -20941851.13449 -16288087.34947  20691180.284    20691187.906
       243.000         207.000
  24661202.465    10568792.39649   8239151.70445  24661204.304    24661215.473
       206.000         133.000
  21843750.454   -19028335.99949 -14790402.66647  21843750.017    21843758.121
       235.000         191.000
  21498539.515     4252816.59849   3322894.29047  21498553.841    21498561.728
       241.000         202.000
  22358983.513   -16755719.78049 -12292778.71846  22358982.688    22358993.100
       228.000         178.000
 02 12 10 23  2 30.0000000  0  7G28G 5G 4G26G 9G 7G24
  22609573.428     6861151.83349   5349273.77446  22609573.028    22609581.657
       228.000         176.000
  24358912.240    -7178677.89849  -5573186.47745  24358912.266    24358923.937
       214.000         145.000
  20680974.319   -20995484.05249 -16329879.17647  20680974.209    20680981.920
       243.000         207.000
  24675657.709    10644754.56249   8298342.82145  24675658.707    24675670.968
       206.000         136.000
  21833221.546   -19083665.64749 -14833516.60947  21833221.006    21833229.767
       234.000         191.000
  21507953.806     4302288.95249   3361444.17547  21507967.894    21507975.758
       241.000         202.000
  22340912.067   -16850685.33449 -12366777.71846  22340912.128    22340921.214
       228.000         178.000
 02 12 10 23  3  0.0000000  0  7G28G 5G 4G26G 9G 7G24
  22620358.927     6917830.00549   5393438.54446  22620358.212    22620367.237
       228.000         176.000
  24342584.378    -7264481.94649  -5640046.57445  24342583.080    24342596.189
       210.000         149.000
  20670870.610   -21048579.16549 -16371251.93147  20670870.634    20670878.227
       243.000         207.000
  24690113.695    10720721.29049   8357537.48145  24690114.160    24690126.150
       208.000         137.000
  21822786.617   -19138501.25649 -14876245.58447  21822786.189    21822794.503
       235.000         191.000
  21517392.374     4351888.97849   3400093.54947  21517406.350    21517414.400
       242.000         202.000
  22322892.580   -16945377.76849 -12440563.88946  22322891.814    22322902.764
       228.000         178.000
 02 12 10 23  3 30.0000000  0  7G28G 5G 4G26G 9G 7G24
  22631187.945     6974736.94649   5437781.56746  22631187.585    22631196.001
       228.000         176.000
  24326250.665    -7350313.88849  -5706928.37645  24326249.608    24326261.370
       209.000         143.000
  20660869.708   -21101134.20049 -16412203.84847  20660869.678    20660877.209
       244.000         207.000
  24704570.061    10796689.65349   8416733.45745  24704569.912    24704583.060
       209.000         138.000
  21812446.136   -19192840.63349 -14918587.89047  21812445.448    21812453.895
       235.000         191.000
  21526854.951     4401615.36049   3438841.38447  21526868.849    21526876.951
       242.000         201.000
  22304925.535   -17039794.56249 -12514135.27846  22304924.652    22304934.938
       228.000         178.000
 02 12 10 23  4  0.0000000  0  7G28G 5G 4G26G 9G 7G24
  22642060.631     7031872.89449   5482303.04646  22642060.578    22642068.804
       229.000         175.000
  24309912.345    -7436172.62549  -5773831.11245  24309912.688    24309924.290
       217.000         153.000
  20650971.909   -21153147.37249 -16452733.53347  20650971.640    20650979.234
       244.000         207.000
  24719026.412    10872656.75349   8475928.45445  24719026.294    24719040.710
       211.000         139.000
  21802200.367   -19246681.92749 -14960542.08447  21802200.251    21802208.150
       235.000         192.000
  21536341.405     4451466.87749   3477686.72347  21536355.271    21536363.393
       241.000         201.000
  22287011.541   -17133932.72649 -12587489.55046  22287011.123    22287021.643
       229.000         179.000
 02 12 10 23  4 30.0000000  0  7G28G 5G 4G26G 9G 7G24
  22652976.817     7089237.49549   5527002.69446  22652975.631    22652984.399
       227.000         175.000
  24293568.721    -7522058.29749  -5840754.74645  24293566.714    24293578.620
       207.000         149.000
  20641177.435   -21204617.37449 -16492839.97047  20641177.570    20641184.698
       244.000         208.000
  24733481.682    10948619.26449   8535119.85345  24733481.567    24733495.849
       211.000         140.000
  21792049.710   -19300023.95249 -15002107.23947  21792049.368    21792057.847
       235.000         192.000
  21545851.345     4501441.84949   3516628.26547  21545865.318    21545873.404
       241.000         201.000
  22269150.948   -17227790.25549 -12660625.14246  22269150.898    22269160.994
       229.000         179.000
 02 12 10 23  5  0.0000000  0  7G28G 5G 4G26G 9G 7G24
  22663936.657     7146831.72449   5571881.28146  22663935.894    22663944.745
       227.000         175.000
  24277220.163    -7607969.22149  -5907698.17045  24277219.930    24277230.878
       220.000         148.000
  20631486.814   -21255541.75049 -16532521.24547  20631486.839    20631494.186
       244.000         208.000
  24747935.721    11024574.94649   8594305.94045  24747934.801    24747949.893
       211.000         139.000
  21781994.519   -19352864.26349 -15043281.45047  21781994.299    21782002.012
       236.000         192.000
  21555384.592     4551539.36249   3555665.28747  21555398.418    21555406.643
       241.000         201.000
  22251344.431   -17321363.71649 -12733539.38746  22251344.185    22251354.402
       229.000         180.000
 02 12 10 23  5 30.0000000  0  7G28G 5G 4G26G 9G 7G24
  22674939.898     7204654.28349   5616937.77246  22674939.476    22674948.070
       226.000         174.000
  24260866.980    -7693906.24749  -5974661.93545  24260865.352    24260877.853
       209.000         152.000
  20621900.060   -21305920.20949 -16571777.14347  20621900.016    20621907.568
       244.000         208.000
  24762387.638    11100519.57149   8653483.40845  24762388.935    24762400.753
       211.000         138.000
  21772034.904   -19405202.21849 -15084064.23347  21772034.594    21772042.676
       235.000         192.000
  21564940.708     4601757.06049   3594795.95547  21564954.752    21564962.782
       241.000         201.000
  22233592.155   -17414652.02049 -12806231.44846  22233591.555    22233601.788
       229.000         180.000
 02 12 10 23  6  0.0000000  0  7G28G 5G 4G26G 9G 7G24
  22685987.160     7262708.02649   5662174.40046  22685987.098    22685995.316
       227.000         174.000
  24244509.140    -7779866.14049  -6041643.37745  24244509.066    24244521.045
       220.000         152.000
  20612418.028   -21355748.45149 -16610604.30047  20612417.880    20612425.071
       244.000         208.000
  24776837.389    11176452.76449   8712651.96845  24776836.563    24776850.280
       211.000         139.000
  21762171.744   -19457033.37849 -15124452.10747  21762171.122    21762179.707
       235.000         192.000
  21574519.885     4652096.04449   3634021.12647  21574534.081    21574542.046
       241.000         201.000
  22215895.132   -17507649.85049 -12878697.17346  22215894.566    22215904.849
       230.000         181.000
 02 12 10 23  6 30.0000000  0  7G28G 5G 4G26G 9G 7G24
  22697078.845     7320995.03549   5707592.82046  22697079.269    22697086.601
       227.000         174.000
  24228147.779    -7865845.91549  -6108640.59645  24228145.914    24228156.378
       209.000         147.000
  20603041.409   -21405022.76449 -16648999.81047  20603041.331    20603048.902
       244.000         208.000
  24791284.825    11252373.74649   8771811.02045  24791284.761    24791296.703
       209.000         137.000
  21752405.728   -19508353.89749 -15164442.07147  21752405.473    21752413.411
       236.000         193.000
  21584122.362     4702557.19249   3673341.50547  21584136.583    21584144.330
       241.000         201.000
  22198254.377   -17600352.36049 -12950932.76446  22198253.939    22198263.817
       230.000         181.000
 02 12 10 23  7  0.0000000  0  7G28G 5G 4G26G 9G 7G24
  22708213.645     7379508.69549   5753187.85146  22708213.201    22708222.227
       226.000         173.000
  24211781.016    -7951851.78349  -6175657.90045  24211780.963    24211793.582
       219.000         152.000
  20593769.186   -21453748.31049 -16686967.70547  20593769.140    20593776.424
       244.000         209.000
  24805728.060    11328272.48749   8830952.73345  24805728.402    24805743.112
       205.000         137.000
  21742735.868   -19559168.97649 -15204038.18847  21742735.697    21742743.772
       236.000         193.000
  21593746.482     4753132.18849   3712750.59247  21593760.671    21593768.182
       241.000         200.000
  22180668.972   -17692764.09649 -13022941.77146  22180668.113    22180678.164
       229.000         181.000
 02 12 10 23  7 30.0000000  0  7G28G 5G 4G26G 9G 7G24
  22719392.329     7438253.05249   5798962.62846  22719392.492    22719400.019
       226.000         173.000
  24195410.701    -8037878.86249  -6242691.87145  24195408.817    24195421.199
       210.000         150.000
  20584602.518   -21501919.26249 -16724503.44847  20584602.536    20584609.753
       244.000         209.000
  24820167.288    11404150.42349   8890078.23945  24820167.845    24820181.101
       211.000         141.000
  21733163.325   -19609472.90549 -15243236.00647  21733162.964    21733170.888
       236.000         193.000
  21603392.791     4803823.79049   3752250.54147  21603406.853    21603414.851
       241.000         200.000
  22163140.097   -17784878.24249 -13094718.89446  22163139.428    22163149.809
       230.000         181.000
 02 12 10 23  8  0.0000000  0  7G28G 5G 4G26G 9G 7G24
  22730615.045     7497228.69649   5844917.62746  22730614.293    22730622.743
       226.000         173.000
  24179036.105    -8123926.33849  -6309741.73045  24179036.911    24179046.779
       217.000         145.000
  20575541.667   -21549534.14349 -16761605.89047  20575541.639    20575549.003
       244.000         209.000
  24834602.058    11480004.80849   8949185.37945  24834601.503    24834616.898
       211.000         143.000
  21723688.403   -19659263.65449 -15282033.94947  21723687.814    21723696.156
       237.000         193.000
  21613061.052     4854631.00549   3791840.57747  21613075.069    21613083.139
       241.000         200.000
  22145668.349   -17876692.22149 -13166262.13246  22145667.763    22145677.684
       231.000         182.000
 02 12 10 23  8 30.0000000  0  7G28G 5G 4G26G 9G 7G24
  22741881.687     7556435.25949   5891052.58446  22741880.644    22741889.470
       225.000         173.000
  24162658.150    -8209993.60349  -6376807.00945  24162657.270    24162668.956
       209.000         148.000
  20566586.963   -21596591.17149 -16798273.63847  20566587.018    20566594.348
       244.000         209.000
  24849031.696    11555832.51449   9008271.73245  24849032.103    24849045.725
       213.000         144.000
  21714311.446   -19708539.83749 -15320430.92047  21714311.295    21714319.269
       235.000         194.000
  21622751.050     4905552.24149   3831519.45647  21622765.111    21622772.921
       240.000         200.000
  22128254.215   -17968203.46749 -13237569.46346  22128253.629    22128263.581
       229.000         182.000
 02 12 10 23  9  0.0000000  0  7G28G 5G 4G26G 9G 7G24
  22753192.388     7615873.14949   5937367.78646  22753191.603    22753201.130
       225.000         172.000
  24146276.220    -8296079.53749  -6443886.86445  24146276.041    24146286.681
       215.000         143.000
  20557738.751   -21643088.69949 -16834505.40947  20557738.674    20557746.037
       245.000         209.000
  24863455.833    11631631.04449   9067335.36245  24863456.437    24863470.245
       214.000         145.000
  21705032.784   -19757299.25349 -15358425.23047  21705032.359    21705040.813
       237.000         194.000
  21632462.599     4956586.83849   3871286.67047  21632476.708    21632484.838
       241.000         200.000
  22110898.243   -18059409.20449 -13308638.74346  22110897.744    22110907.627
       231.000         183.000
 02 12 10 23  9 30.0000000  0  7G28G 5G 4G26G 9G 7G24
  22764547.153     7675542.58849   5983863.41246  22764546.812    22764555.798
       226.000         172.000
  24129891.237    -8382183.50849  -6510980.72945  24129889.625    24129902.539
       210.000         144.000
  20548997.276   -21689025.27449 -16870300.07747  20548997.295    20549004.440
       244.000         209.000
  24877873.866    11707397.33049   9126373.88045  24877873.337    24877888.062
       212.000         145.000
  21695852.760   -19805540.62649 -15396015.85947  21695852.474    21695860.328
       238.000         194.000
  21642195.470     5007733.30749   3911141.05047  21642209.380    21642217.493
       240.000         200.000
  22093600.919   -18150306.88149 -13379467.98146  22093600.619    22093609.827
       231.000         184.000
 02 12 10 23 10  0.0000000  0  7G28G 5G 4G26G 9G 7G24
  22775946.008     7735443.76949   6030539.62246  22775945.131    22775954.112
       225.000         172.000
  24113502.839    -8468304.46249  -6578087.88045  24113502.220    24113512.580
       215.000         143.000
  20540362.836   -21734399.21449 -16905656.32647  20540362.913    20540370.103
       245.000         210.000
  24892285.216    11783128.63549   9185385.13545  24892285.439    24892299.122
       215.000         145.000
  21686771.707   -19853261.92849 -15433201.23847  21686771.401    21686779.302
       238.000         194.000
  21651949.368     5058990.43849   3951081.66347  21651963.338    21651971.638
       241.000         199.000
  22076362.676   -18240893.65749 -13450054.95346  22076361.923    22076371.732
       231.000         184.000
 02 12 10 23 10 30.0000000  0  7G28G 5G 4G26G 9G 7G24
  22787388.958     7795576.61049   6077396.34246  22787389.019    22787397.701
       226.000         172.000
  24097111.381    -8554441.76149  -6645207.66545  24097108.909    24097122.107
       210.000         143.000
  20531835.754   -21779209.15149 -16940573.09347  20531835.676    20531842.845
       245.000         210.000
  24906689.292    11858822.05549   9244366.86045  24906689.088    24906702.891
       214.000         147.000
  21677789.845   -19900461.76149 -15469980.27547  21677789.409    21677797.522
       237.000         194.000
  21661724.078     5110356.92549   3991107.48447  21661738.311    21661745.945
       240.000         199.000
  22059184.080   -18331167.45049 -13520398.04546  22059183.245    22059193.081
       231.000         184.000
 02 12 10 23 11  0.0000000  0  7G28G 5G 4G26G 9G 7G24
  22798876.057     7855941.59249   6124433.94646  22798875.597    22798884.222
       225.000         172.000
  24080716.927    -8640594.35849  -6712339.46145  24080715.807    24080724.576
       213.000         143.000
  20523416.316   -21823453.38349 -16975049.05247  20523416.335    20523423.465
       245.000         210.000
  24921085.710    11934475.04249   9303317.07445  24921085.931    24921099.571
       210.000         146.000
  21668907.521   -19947138.33249 -15506351.58047  21668906.978    21668915.216
       238.000         195.000
  21671519.395     5161831.68749   4031217.68047  21671533.280    21671541.511
       240.000         199.000
  22042065.589   -18421125.08249 -13590494.77946  22042065.366    22042074.633
       232.000         184.000
 02 12 10 23 11 30.0000000  0  7G28G 5G 4G26G 9G 7G24
  22810407.300     7916538.60949   6171652.36546  22810406.394    22810415.488
       224.000         171.000
  24064319.744    -8726761.57549  -6779482.58145  24064318.929    24064330.791
       211.000         143.000
  20515104.777   -21867130.46149 -17009083.06947  20515104.709    20515111.946
       245.000         210.000
  24935473.822    12010084.72149   9362233.53845  24935473.481    24935486.822
       207.000         143.000
  21660125.149   -19993289.90249 -15542313.78547  21660124.858    21660133.001
       238.000         195.000
  21681335.087     5213413.66449   4071411.41847  21681349.174    21681357.133
       240.000         199.000
  22025007.786   -18510764.01049 -13660343.16846  22025006.935    22025017.167
       231.000         185.000
 02 12 10 23 12  0.0000000  0  7G28G 5G 4G26G 9G 7G24
  22821982.758     7977367.93149   6219051.78346  22821983.270    22821990.425
       224.000         171.000
  24047919.983    -8812941.96249  -6846635.95745  24047918.243    24047930.298
       208.000         146.000
  20506901.532   -21910238.45849 -17042673.65747  20506901.428    20506908.908
       245.000         210.000
  24949853.264    12085648.53049   9421114.25045  24949852.487    24949866.775
       205.000         141.000
  21651443.030   -20038914.47649 -15577865.34847  21651442.508    21651450.342
       238.000         195.000
  21691171.029     5265101.94349   4111687.99047  21691185.065    21691193.291
       240.000         198.000
  22008011.102   -18600081.47549 -13729941.05846  22008010.651    22008020.030
       231.000         185.000
 02 12 10 23 12 30.0000000  0  7G28G 5G 4G26G 9G 7G24
  22833602.491     8038430.05349   6266632.62546  22833602.296    22833610.519
       225.000         170.000
  24031517.833    -8899134.90149  -6913799.14845  24031517.497    24031527.833
       213.000         144.000
  20498806.820   -21952776.21149 -17075819.89547  20498806.821    20498814.031
       245.000         210.000
  24964223.338    12161163.59349   9479956.97745  24964224.687    24964237.826
       203.000         138.000
  21642861.491   -20084010.69449 -15613005.20347  21642861.039    21642868.907
       238.000         195.000
  21701026.973     5316895.17749   4152046.34847  21701041.042    21701049.064
       240.000         198.000
  21991076.115   -18689075.05549 -13799286.57146  21991075.435    21991085.352
       232.000         185.000
 02 12 10 23 13  0.0000000  0  7G28G 5G 4G26G 9G 7G24
  22845266.542     8099724.72649   6314394.66946  22845266.021    22845274.274
       224.000         170.000
  24015113.545    -8985339.67749  -6980971.47745  24015111.504    24015124.028
       208.000         148.000
  20490820.884   -21994742.32449 -17108520.71147  20490820.740    20490827.975
       245.000         210.000
  24978583.664    12236627.03749   9538759.48445  24978583.097    24978597.453
       204.000         138.000
  21634380.658   -20128577.21449 -15647732.30347  21634379.940    21634388.599
       238.000         195.000
  21710902.649     5368792.15449   4192485.54447  21710916.715    21710924.781
       240.000         198.000
  21974203.174   -18777742.48649 -13868377.93546  21974202.666    21974212.387
       231.000         185.000
 02 12 10 23 13 30.0000000  0  6G28G 5G 4G 9G 7G24
  22856976.288     8161259.45449   6362343.77246  22856975.345    22856984.596
       226.000         170.000
  23998708.457    -9071547.78149  -7048146.50345  23998708.390    23998717.979
       212.000         147.000
  20482945.376   -22036128.07749 -17140769.29547  20482945.252    20482952.555
       245.000         210.000
  21626002.404   -20172604.95949 -15682039.58247  21626001.910    21626009.775
       238.000         196.000
  21720799.249     5420799.05749   4233010.39547  21720813.314    21720821.376
       239.000         198.000
  21957394.254   -18866073.53249 -13937207.17146  21957393.243    21957403.178
       232.000         186.000
 02 12 10 23 14  0.0000000  0  6G28G 5G 4G 9G 7G24
  22868729.974     8223025.28349   6410472.94246  22868730.088    22868737.322
       225.000         169.000
  23982301.261    -9157767.20649  -7115330.20945  23982299.520    23982312.864
       212.000         149.000
  20475178.950   -22076940.81049 -17172571.37547  20475178.739    20475186.047
       245.000         210.000
  21617725.323   -20216101.09949 -15715932.62047  21617725.090    21617732.726
       238.000         196.000
  21730714.900     5472906.16549   4273613.33847  21730728.889    21730737.179
       240.000         198.000
  21940648.106   -18954074.41249 -14005779.14046  21940647.136    21940657.129
       232.000         186.000
 02 12 10 23 14 30.0000000  0  6G28G 5G 4G 9G 7G24
  22880527.565     8285021.90649   6458781.95546  22880527.460    22880536.228
       225.000         169.000
  23965892.101    -9243997.74649  -7182522.72945  23965890.739    23965902.009
       209.000         148.000
  20467521.609   -22117180.04549 -17203926.57647  20467521.560    20467528.692
       245.000         211.000
  21609549.583   -20259064.66149 -15749410.66747  21609549.510    21609557.060
       238.000         196.000
  21740649.213     5525111.49349   4314292.80547  21740663.202    21740671.490
       239.000         197.000
  21923965.095   -19041743.52549 -14074092.59846  21923964.405    21923974.301
       233.000         187.000
 02 12 10 23 15  0.0000000  0  6G28G 5G 4G 9G 7G24
  22892369.305     8347250.53349   6507271.76646  22892368.273    22892377.820
       226.000         169.000
  23949480.974    -9330237.58549  -7249722.38645  23949480.520    23949492.500
       215.000         150.000
  20459973.935   -22156843.16349 -17234832.85647  20459973.985    20459981.042
       245.000         210.000
  21601475.600   -20301493.30849 -15782471.89547  21601475.380    21601483.119
       238.000         196.000
  21750602.284     5577414.95749   4355048.74547  21750616.372    21750624.537
       239.000         197.000
  21907345.930   -19129077.23149 -14142144.69446  21907345.410    21907354.464
       232.000         187.000
 02 12 10 23 15 30.0000000  0  6G28G 5G 4G 9G 7G24
  22904255.316     8409711.52349   6555942.64146  22904254.535    22904263.402
       226.000         169.000
  23933068.529    -9416484.95849  -7316927.98045  23933066.523    23933079.276
       211.000         152.000
  20452536.144   -22195928.63449 -17265289.02547  20452536.314    20452543.261
       245.000         211.000
  21593503.787   -20343385.04249 -15815114.74947  21593503.569    21593511.394
       238.000         196.000
  21760573.849     5629815.88149   4395880.62947  21760587.769    21760595.993
       239.000         197.000
  21890791.193   -19216072.39949 -14209932.98646  21890790.961    21890800.068
       234.000         187.000
 02 12 10 23 16  0.0000000  0  6G28G 5G 4G 9G 7G24
  22916185.589     8472405.37849   6604794.97146  22916184.895    22916193.246
       225.000         169.000
  23916654.879    -9502738.78949  -7384138.60945  23916655.224    23916665.728
       216.000         154.000
  20445208.713   -22234434.49149 -17295293.54247  20445208.786    20445215.767
       246.000         211.000
  21585634.574   -20384738.01249 -15847337.79347  21585634.346    21585642.207
       238.000         196.000
  21770563.845     5682313.59949   4436787.94347  21770577.753    21770585.980
       240.000         197.000
  21874301.410   -19302726.37749 -14277455.42346  21874300.877    21874310.014
       232.000         187.000
 02 12 10 23 16 30.0000000  0  6G28G 5G 4G 9G 7G24
  22928160.249     8535332.47749   6653829.03946  22928160.015    22928169.693
       225.000         168.000
  23900240.227    -9588997.62949  -7451353.13145  23900239.488    23900250.369
       214.000         154.000
  20437991.808   -22272359.34749 -17324845.33747  20437991.763    20437998.953
       245.000         211.000
  21577868.128   -20425550.51949 -15879139.69147  21577867.803    21577875.555
       238.000         196.000
  21780572.110     5734907.44249   4477770.16047  21780586.174    21780594.132
       239.000         197.000
  21857877.074   -19389036.24249 -14344709.72847  21857876.447    21857885.557
       234.000         188.000
 02 12 10 23 17  0.0000000  0  6G28G 5G 4G 9G 7G24
  22940179.380     8598493.40649   6703045.30246  22940179.834    22940186.318
       225.000         168.000
  23883825.019    -9675260.21749  -7518570.59945  23883823.423    23883835.287
       213.000         156.000
  20430885.721   -22309701.79849 -17353943.31147  20430885.662    20430892.737
       245.000         211.000
  21570204.942   -20465820.83249 -15910519.10847  21570204.808    21570212.426
       238.000         197.000
  21790598.503     5787596.44649   4518826.52847  21790612.493    21790620.394
       238.000         196.000
  21841518.791   -19474999.00849 -14411693.57047  21841518.092    21841527.654
       234.000         188.000
 02 12 10 23 17 30.0000000  0  6G28G 5G 4G 9G 7G24
  22952242.884     8661887.55549   6752443.31246  22952242.943    22952250.889
       225.000         167.000
  23867408.983    -9761526.16249  -7585790.66045  23867407.927    23867419.024
       218.000         156.000
  20423890.702   -22346460.72449 -17382586.58847  20423890.665    20423897.807
       245.000         211.000
  21562645.123   -20505547.74949 -15941475.09547  21562644.852    21562652.941
       238.000         197.000
  21800642.738     5840379.32249   4559956.04547  21800656.949    21800664.977
       239.000         196.000
  21825226.967   -19560612.58149 -14478405.32047  21825226.080    21825235.731
       235.000         188.000
 02 12 10 23 18  0.0000000  0  6G28G 5G 4G 9G 7G24
  22964350.792     8725514.98849   6802023.10546  22964350.121    22964358.195
       224.000         167.000
  23850992.590    -9847794.49249  -7653012.59845  23850990.753    23851002.605
       217.000         157.000
  20417006.942   -22382635.02849 -17410774.31747  20417007.010    20417014.094
       245.000         211.000
  21555188.924   -20544730.02349 -15972006.69647  21555188.623    21555196.405
       238.000         197.000
  21810704.608     5893254.80049   4601157.72247  21810718.734    21810726.642
       239.000         196.000
  21809001.997   -19645874.86849 -14544843.34747  21809001.163    21809010.722
       235.000         189.000
 02 12 10 23 18 30.0000000  0  6G28G 5G 4G 9G 7G24
  22976503.254     8789376.47649   6851785.26446  22976502.838    22976511.597
       225.000         166.000
  23834576.089    -9934063.34649  -7720234.96045  23834575.017    23834585.884
       218.000         157.000
  20410234.717   -22418222.99049 -17438505.15547  20410234.669    20410241.736
       245.000         211.000
  21547836.810   -20583365.53249 -16002112.24047  21547836.603    21547844.085
       238.000         197.000
  21820784.038     5946222.54749   4642431.29247  21820797.936    21820806.021
       239.000         196.000
  21792844.568   -19730782.27149 -14611004.85147  21792844.328    21792852.791
       235.000         189.000
 02 12 10 23 19  0.0000000  0  6G28G 5G 4G 9G 7G24
  22988700.244     8853471.98649   6901729.78346  22988699.804    22988707.028
       223.000         166.000
  23818159.709   -10020331.63549  -7787456.84945  23818158.862    23818169.236
       217.000         157.000
  20403574.345   -22453223.40449 -17465778.16647  20403574.299    20403581.534
       247.000         211.000
  21540589.029   -20621452.68249 -16031790.49647  21540588.671    21540596.656
       238.000         197.000
  21830880.856     5999281.68249   4683776.07347  21830895.186    21830903.138
       239.000         196.000
  21776755.041   -19815332.69849 -14676888.20047  21776754.317    21776763.287
       235.000         189.000
 02 12 10 23 19 30.0000000  0  6G28G 5G 4G 9G 7G24
  23000941.746     8917801.46649   6951856.61746  23000940.960    23000950.070
       224.000         166.000
  23801743.622   -10106598.59449  -7854677.70945  23801743.876    23801753.807
       217.000         157.000
  20397025.919   -22487635.34549 -17492592.61947  20397025.993    20397033.074
       247.000         211.000
  21533445.793   -20658990.57349 -16061040.75947  21533445.666    21533453.267
       238.000         197.000
  21840994.813     6052430.77449   4725190.95447  21841008.954    21841016.575
       239.000         196.000
  21760733.963   -19899523.48849 -14742491.31447  21760733.408    21760742.682
       235.000         190.000
 02 12 10 23 20  0.0000000  0  6G28G 5G 4G 9G 7G24
  23013227.768     8982364.98649   7002165.81246  23013227.324    23013236.253
       223.000         166.000
  23785327.820   -10192863.20249  -7921896.71345  23785326.911    23785337.579
       216.000         156.000
  20390589.711   -22521457.74149 -17518947.69047  20390589.808    20390596.860
       247.000         211.000
  21526407.319   -20695977.65749 -16089861.81747  21526406.899    21526415.007
       236.000         198.000
  21851125.695     6105668.99149   4766675.27747  21851139.631    21851147.739
       237.000         195.000
  21744781.747   -19983352.39649 -14807812.45347  21744781.631    21744790.659
       235.000         190.000
 02 12 10 23 20 30.0000000  0  6G28G 5G 4G 9G 7G24
  23025558.479     9047162.91649   7052657.67246  23025558.088    23025567.282
       223.000         166.000
  23768912.869   -10279124.06349  -7989112.82145  23768911.025    23768922.870
       215.000         157.000
  20384265.979   -22554689.08249 -17544842.19847  20384265.926    20384273.039
       247.000         211.000
  21519473.969   -20732412.34749 -16118252.45047  21519473.538    21519481.452
       238.000         198.000
  21861273.417     6158995.58849   4808228.47147  21861287.396    21861295.262
       239.000         195.000
  21728898.911   -20066816.98249 -14872849.70647  21728898.417    21728907.487
       236.000         190.000
 02 12 10 23 21  0.0000000  0  6G28G 5G 4G 9G 7G24
  23037933.715     9112194.75349   7103331.79246  23037933.820    23037941.889
       223.000         165.000
  23752498.597   -10365380.70749  -8056325.62445  23752497.688    23752507.736
       217.000         156.000
  20378054.743   -22587329.10749 -17570275.93947  20378054.796    20378061.712
       247.000         211.000
  21512645.918   -20768294.03449 -16146212.16847  21512645.555    21512653.193
       238.000         198.000
  21871437.647     6212408.97249   4849849.28347  21871451.499    21871459.502
       239.000         195.000
  21713085.844   -20149914.93449 -14937601.27747  21713085.504    21713094.626
       236.000         191.000
 02 12 10 23 21 30.0000000  0  6G28G 5G 4G 9G 7G24
  23050353.450     9177460.61449   7154188.26446  23050353.322    23050361.450
       221.000         165.000
  23736085.485   -10451631.78049  -8123534.07845  23736084.710    23736095.713
       216.000         155.000
  20371956.367   -22619376.20349 -17595247.66347  20371956.568    20371963.456
       246.000         212.000
  21505923.396   -20803621.07549 -16173739.70047  21505923.369    21505930.670
       238.000         198.000
  21881618.308     6265908.53749   4891537.24547  21881632.301    21881640.655
       238.000         195.000
  21697343.018   -20232643.61949 -15002065.10647  21697342.682    21697351.499
       235.000         191.000
 02 12 10 23 22  0.0000000  0  6G28G 5G 4G 9G 7G24
  23062817.712     9242960.81749   7205227.34146  23062817.164    23062825.118
       222.000         164.000
  23719673.557   -10537875.97249  -8190737.15845  23719672.692    23719683.317
       216.000         154.000
  20365970.980   -22650829.44649 -17619756.63747  20365971.182    20365977.964
       247.000         212.000
  21499306.675   -20838392.20449 -16200834.04247  21499306.350    21499313.838
       239.000         198.000
  21891815.157     6319493.34749   4933291.63647  21891829.352    21891837.032
       238.000         195.000
  21681671.020   -20315000.27749 -15066239.04847  21681670.432    21681679.840
       236.000         192.000
 02 12 10 23 22 30.0000000  0  6G28G 5G 4G 9G 7G24
  23075326.594     9308695.50849   7256449.13546  23075326.094    23075335.377
       220.000         164.000
  23703263.254   -10624111.96049  -8257933.85145  23703262.503    23703273.030
       213.000         154.000
  20360098.852   -22681687.39649 -17643801.74947  20360099.027    20360105.846
       247.000         212.000
  21492795.998   -20872605.75649 -16227493.91747  21492795.727    21492803.335
       239.000         198.000
  21902028.079     6373162.70749   4975111.91047  21902042.052    21902050.173
       238.000         195.000
  21666070.231   -20396982.58649 -15130121.29147  21666069.712    21666078.491
       235.000         192.000
 02 12 10 23 23  0.0000000  0  6G28G 5G 4G 9G 7G24
  23087880.028     9374664.15649   7307853.22046  23087879.484    23087888.423
       220.000         163.000
  23686854.649   -10710339.16049  -8325123.71845  23686853.632    23686863.800
       214.000         153.000
  20354340.049   -22711949.89049 -17667382.86547  20354340.014    20354346.857
       247.000         212.000
  21486391.619   -20906261.03249 -16253718.76747  21486391.441    21486398.950
       239.000         199.000
  21912256.872     6426915.22849   5016996.97947  21912270.761    21912278.786
       238.000         195.000
  21650541.027   -20478588.82749 -15193710.49347  21650540.463    21650549.629
       236.000         192.000
 02 12 10 23 23 30.0000000  0  6G28G 5G 4G 9G 7G24
  23100478.023     9440867.00049   7359439.81246  23100476.223    23100486.937
       221.000         163.000
  23670447.803   -10796556.31349  -8392305.69045  23670447.250    23670457.124
       216.000         152.000
  20348694.819   -22741615.62349 -17690498.97147  20348694.832    20348701.921
       247.000         212.000
  21480093.703   -20939356.72249 -16279507.57947  21480093.431    21480100.942
       239.000         199.000
  21922501.251     6480749.96149   5058946.10847  21922515.388    21922523.650
       238.000         194.000
  21635083.914   -20559816.05649 -15257004.36847  21635083.463    21635092.537
       236.000         192.000
 02 12 10 23 24  0.0000000  0  6G28G 5G 4G 9G 7G24
  23113120.617     9507304.10649   7411208.95146  23113120.270    23113129.165
       221.000         163.000
  23654043.224   -10882761.98949  -8459478.76145  23654040.838    23654053.682
       213.000         150.000
  20343163.339   -22770683.63849 -17713149.32747  20343163.421    20343170.154
       247.000         212.000
  21473902.475   -20971891.38849 -16304859.23047  21473902.267    21473909.820
       239.000         199.000
  21932761.185     6534666.02749   5100958.61447  21932775.306    21932783.441
       238.000         194.000
  21619699.478   -20640661.51449 -15320000.75347  21619699.014    21619708.053
       236.000         193.000
 02 12 10 23 24 30.0000000  0  6G28G 5G 4G 9G 7G24
  23125807.745     9573975.54149   7463160.67246  23125807.517    23125816.964
       219.000         163.000
  23637641.076   -10968954.95149  -8526641.93245  23637639.013    23637650.054
       214.000         150.000
  20337745.723   -22799153.09849 -17735333.27047  20337745.632    20337752.519
       247.000         212.000
  21467818.207   -21003864.14249 -16329773.02247  21467817.799    21467825.653
       239.000         199.000
  21943036.440     6588662.77949   5143034.00047  21943050.272    21943058.605
       239.000         194.000
  21604388.026   -20721123.38549 -15382698.23247  21604387.594    21604396.756
       236.000         193.000
 02 12 10 23 25  0.0000000  0  6G28G 5G 4G 9G 7G24
  23138539.488     9640881.06949   7515294.80446  23138539.013    23138548.300
       221.000         163.000
  23621241.531   -11055134.56249  -8593794.69245  23621239.316    23621252.228
       215.000         152.000
  20332442.106   -22827023.56249 -17757050.47247  20332442.183    20332449.174
       248.000         212.000
  21461841.148   -21035273.86049 -16354248.09947  21461841.047    21461848.448
       239.000         199.000
  21953326.738     6642738.78149   5185171.13047  21953341.008    21953348.759
       238.000         194.000
  21589149.973   -20801199.51149 -15445095.14047  21589149.353    21589158.369
       236.000         193.000
 02 12 10 23 25 30.0000000  0  6G28G 5G 4G 9G 7G24
  23151315.740     9708020.39449   7567611.11146  23151315.868    23151325.017
       220.000         163.000
  23604844.606   -11141299.90149  -8660936.35445  23604844.236    23604853.644
       217.000         151.000
  20327252.658   -22854294.11849 -17778300.20747  20327252.626    20327259.567
       247.000         212.000
  21455971.391   -21066119.67749 -16378283.75747  21455970.960    21455978.418
       239.000         199.000
  21963631.963     6696893.04049   5227369.25047  21963645.954    21963654.034
       238.000         194.000
  21573985.746   -20880887.61749 -15507189.68447  21573985.161    21573994.303
       236.000         194.000
 02 12 10 23 26  0.0000000  0  6G28G 5G 4G 9G 7G24
  23164136.460     9775393.68649   7620109.73546  23164136.612    23164144.878
       220.000         163.000
  23588450.687   -11227449.56049  -8728065.73945  23588449.966    23588460.270
       218.000         153.000
  20322177.537   -22880963.97149 -17799081.86647  20322177.559    20322184.286
       248.000         212.000
  21450209.176   -21096400.32949 -16401879.03247  21450208.889    21450216.172
       239.000         200.000
  21973951.968     6751124.88049   5269627.81647  21973966.340    21973973.867
       238.000         193.000
  21558895.891   -20960185.07349 -15568979.82147  21558895.437    21558904.040
       236.000         194.000
 02 12 10 23 26 30.0000000  0  6G28G 5G 4G 9G 7G24
  23177001.735     9843000.98749   7672790.70146  23177001.456    23177009.877
       220.000         163.000
  23572060.151   -11313582.20549  -8795181.91445  23572059.113    23572070.162
       219.000         155.000
  20317216.899   -22907032.08049 -17819394.63248  20317216.774    20317223.869
       247.000         213.000
  21444554.619   -21126114.72349 -16425033.06247  21444554.144    21444561.957
       239.000         200.000
  21984286.575     6805433.46249   5311946.19047  21984300.515    21984308.516
       238.000         193.000
  21543880.823   -21039089.65849 -15630463.83247  21543880.332    21543889.461
       236.000         194.000
 02 12 10 23 27  0.0000000  0  6G28G 5G 4G 9G 7G24
  23189911.459     9910841.91749   7725653.73046  23189910.849    23189919.529
       219.000         163.000
  23555673.132   -11399696.60349  -8862283.90345  23555672.577    23555681.506
       220.000         156.000
  20312370.894   -22932497.80949 -17839238.01648  20312370.958    20312377.701
       248.000         213.000
  21439008.010   -21155261.98349 -16447745.16947  21439007.684    21439015.561
       239.000         200.000
  21994635.579     6859817.87849   5354323.64847  21994649.741    21994657.159
       237.000         193.000
  21528940.897   -21117599.14449 -15691639.97347  21528940.475    21528949.235
       237.000         194.000
 02 12 10 23 27 30.0000000  0  6G28G 5G 4G 9G 7G24
  23202865.651     9978916.79749   7778699.05746  23202865.450    23202873.951
       220.000         163.000
  23539289.654   -11485791.59249  -8929370.69445  23539289.369    23539298.666
       222.000         159.000
  20307639.639   -22957360.51549 -17858611.51448  20307639.634    20307646.676
       247.000         213.000
  21433569.598   -21183840.80549 -16470014.34847  21433569.149    21433576.920
       239.000         200.000
  22004998.857     6914277.23349   5396759.50647  22005012.847    22005021.001
       237.000         193.000
  21514076.653   -21195710.85149 -15752506.15947  21514076.225    21514085.054
       237.000         195.000
 02 12 10 23 28  0.0000000  0  6G28G 5G 4G 9G 7G24
  23215864.434    10047225.35449   7831926.46346  23215863.852    23215872.276
       220.000         163.000
  23522910.123   -11571866.08249  -8996441.58045  23522910.058    23522918.548
       221.000         158.000
  20303023.267   -22981619.56349 -17877514.63048  20303023.339    20303030.111
       247.000         213.000
  21428239.487   -21211850.21349 -16491839.82147  21428239.558    21428247.003
       239.000         200.000
  22015376.211     6968810.54649   5439252.98847  22015390.103    22015398.102
       237.000         192.000
  21499288.524   -21273422.77249 -15813060.82147  21499288.093    21499296.936
       237.000         195.000
 02 12 10 23 28 30.0000000  0  6G28G 5G 4G 9G 7G24
  23228907.612    10115767.61149   7885335.97946  23228907.012    23228915.592
       220.000         163.000
  23506534.664   -11657918.83049  -9063495.49145  23506534.255    23506543.581
       222.000         159.000
  20298521.885   -23005274.35849 -17895946.90348  20298521.866    20298528.562
       247.000         213.000
  21423017.842   -21239289.37649 -16513220.95247  21423017.953    21423025.321
       239.000         200.000
  22025767.421     7023416.96249   5481803.43747  22025781.659    22025789.722
       237.000         192.000
  21484576.938   -21350732.35249 -15873301.97447  21484576.677    21484585.706
       237.000         195.000
 02 12 10 23 29  0.0000000  0  6G28G 5G 4G 9G 7G24
  23241995.258    10184543.35549   7938927.43346  23241995.022    23242003.740
       220.000         163.000
  23490163.680   -11743948.62849  -9130531.53445  23490162.739    23490172.536
       223.000         162.000
  20294135.645   -23028324.02449 -17913907.64148  20294135.692    20294142.458
       246.000         213.000
  21417904.978   -21266157.51649 -16534157.12547  21417904.933    21417912.482
       240.000         200.000
  22036172.455     7078095.71549   5524410.26047  22036186.526    22036194.632
       237.000         192.000
  21469942.245   -21427637.77449 -15933228.19547  21469941.889    21469950.582
       237.000         196.000
 02 12 10 23 29 30.0000000  0  6G28G 5G 4G 9G 7G24
  23255127.276    10253552.56349   7992700.79545  23255126.651    23255135.118
       220.000         162.000
  23473797.246   -11829953.98549  -9197548.51745  23473796.139    23473806.042
       223.000         161.000
  20289864.673   -23050767.96149 -17931396.38748  20289864.729    20289871.502
       246.000         213.000
  21412901.078   -21292453.24249 -16554647.26547  21412900.887    21412908.297
       239.000         200.000
  22046591.129     7132846.11149   5567072.90647  22046605.063    22046613.065
       237.000         192.000
  21455384.964   -21504136.52549 -15992837.53047  21455384.656    21455393.079
       237.000         196.000
 02 12 10 23 30  0.0000000  0  6G28G 5G 4G 9G 7G24
  23268303.792    10322795.40649   8046656.21146  23268302.979    23268312.908
       221.000         163.000
  23457435.817   -11915933.63449  -9264545.49846  23457434.486    23457444.937
       222.000         164.000
  20285709.066   -23072605.71649 -17948412.78748  20285709.096    20285715.872
       246.000         213.000
  21408006.345   -21318175.78449 -16574690.76747  21408006.326    21408013.811
       239.000         201.000
  22057023.209     7187666.98849   5609790.47147  22057037.391    22057045.557
       237.000         192.000
  21440905.489   -21580226.35549 -16052128.23247  21440904.950    21440913.592
       238.000         196.000
 02 12 10 23 30 30.0000000  0  6G28G 5G 4G 9G 7G24
  23281524.760    10392271.44949   8100793.34946  23281523.796    23281532.603
       221.000         163.000
  23441079.243   -12001886.64449  -9331521.69746  23441078.949    23441088.406
       223.000         163.000
  20281668.949   -23093836.67749 -17964956.35748  20281668.943    20281675.686
       246.000         213.000
  21403220.811   -21343324.44849 -16594287.09347  21403220.409    21403227.820
       240.000         200.000
  22067468.576     7242557.66449   5652562.43247  22067482.610    22067490.691
       236.000         191.000
  21426504.153   -21655905.55749 -16111098.96447  21426504.000    21426512.457
       238.000         196.000
 02 12 10 23 31  0.0000000  0  6G28G 5G 4G 9G 7G24
  23294789.980    10461980.55149   8155112.08045  23294789.283    23294797.711
       220.000         162.000
  23424728.234   -12087811.65749  -9398476.07546  23424727.698    23424737.636
       224.000         164.000
  20277744.336   -23114460.55549 -17981026.87948  20277744.450    20277751.014
       246.000         213.000
  21398544.666   -21367898.13149 -16613435.38147  21398544.216    21398551.579
       240.000         201.000
  22077927.049     7297517.40849   5695388.20947  22077940.960    22077949.100
       236.000         191.000
  21412181.423   -21731171.77549 -16169747.89347  21412180.996    21412189.567
       238.000         197.000
 02 12 10 23 31 30.0000000  0  6G28G 5G 4G 9G 7G24
  23308099.561    10531922.70349   8209612.42545  23308099.558    23308107.817
       220.000         162.000
  23408382.744   -12173707.32649  -9465407.59546  23408380.106    23408390.769
       219.000         163.000
  20273935.417   -23134476.43149 -17996623.63248  20273935.467    20273942.175
       246.000         213.000
  21393978.007   -21391896.14449 -16632135.10247  21393977.627    21393984.607
       240.000         201.000
  22088398.496     7352545.37849   5738267.14847  22088412.230    22088420.366
       236.000         191.000
  21397937.792   -21806022.18149 -16228072.81747  21397937.286    21397945.877
       238.000         197.000
 02 12 10 23 32  0.0000000  0  6G28G 5G 4G 9G 7G24
  23321453.442    10602097.66349   8264294.15445  23321452.255    23321461.610
       220.000         161.000
  23392043.066   -12259572.33349  -9532315.25046  23392040.517    23392052.633
       218.000         164.000
  20270242.173   -23153884.23049 -18011746.55948  20270242.293    20270249.088
       246.000         213.000
  21389521.020   -21415317.82849 -16650385.73247  21389520.283    21389528.069
       239.000         201.000
  22098882.781     7407640.59749   5781198.48047  22098897.052    22098904.885
       235.000         190.000
  21383773.673   -21880455.06249 -16286072.39547  21383773.532    21383782.066
       238.000         197.000
 02 12 10 23 32 30.0000000  0  6G28G 5G 4G 9G 7G24
  23334851.635    10672505.39649   8319157.28045  23334852.138    23334859.968
       220.000         161.000
  23375709.368   -12345405.52949  -9599198.09846  23375708.364    23375718.443
       220.000         163.000
  20266664.836   -23172683.18549 -18026395.06448  20266664.900    20266671.751
       246.000         213.000
  21385173.796   -21438162.13349 -16668186.45347  21385173.502    21385180.659
       239.000         201.000
  22109379.732     7462802.37849   5824181.69047  22109393.805    22109401.716
       236.000         190.000
  21369689.366   -21954468.34749 -16343745.01647  21369688.982    21369697.519
       238.000         197.000
 02 12 10 23 33  0.0000000  0  6G28G 5G 4G 9G 7G24
  23348294.122    10743145.90549   8374201.77545  23348293.723    23348301.535
       220.000         160.000
  23359381.997   -12431205.16149  -9666054.80646  23359381.187    23359390.467
       219.000         163.000
  20263203.454   -23190872.81149 -18040568.76348  20263203.436    20263210.175
       246.000         213.000
  21380936.633   -21460427.92749 -16685536.38847  21380936.206    21380943.643
       240.000         201.000
  22119889.185     7518030.15449   5867216.32647  22119902.940    22119911.637
       235.000         190.000
  21355685.337   -22028059.57149 -16401088.75847  21355684.867    21355693.685
       238.000         198.000
 02 12 10 23 33 30.0000000  0  6G28G 5G 4G 9G 7G24
  23361780.904    10814018.90549   8429427.44145  23361779.736    23361788.802
       219.000         160.000
  23343061.275   -12516970.27549  -9732884.60746  23343060.965    23343071.064
       220.000         164.000
  20259858.038   -23208452.96249 -18054267.54548  20259858.202    20259864.854
       246.000         214.000
  21376809.708   -21482114.88749 -16702435.28647  21376809.503    21376816.736
       240.000         201.000
  22130411.036     7573322.96349   5910301.63447  22130424.726    22130433.268
       235.000         190.000
  21341762.109   -22101226.53749 -16458101.91147  21341761.696    21341770.428
       238.000         198.000
 02 12 10 23 34  0.0000000  0  6G28G 5G 4G 9G 7G24
  23375311.786    10885124.43249   8484834.27645  23375311.259    23375319.710
       219.000         158.000
  23326747.546   -12602699.22749  -9799686.23845  23326746.439    23326756.167
       219.000         162.000
  20256628.716   -23225423.01449 -18067490.92448  20256628.748    20256635.228
       246.000         214.000
  21372793.106   -21503222.07049 -16718882.40647  21372792.644    21372800.089
       240.000         201.000
  22140945.159     7628680.23649   5953437.17347  22140958.683    22140967.219
       235.000         190.000
  21327920.008   -22173966.91949 -16514782.66047  21327919.618    21327928.245
       238.000         198.000
 02 12 10 23 34 30.0000000  0  6G28G 5G 4G 9G 7G24
  23388886.753    10956461.33249   8540421.43845  23388886.701    23388894.906
       219.000         157.000
  23310440.671   -12688391.93249  -9866459.63546  23310440.578    23310450.240
       220.000         163.000
  20253515.356   -23241783.59949 -18080239.39248  20253515.373    20253522.109
       246.000         214.000
  21368886.739   -21523749.81549 -16734878.01947  21368886.378    21368893.779
       239.000         201.000
  22151491.220     7684100.04249   5996621.43847  22151505.262    22151513.425
       235.000         189.000
  21314159.182   -22246280.20249 -16571130.61047  21314159.055    21314167.200
       238.000         198.000
 02 12 10 23 35  0.0000000  0  6G28G 5G 4G 9G 7G24
  23402505.809    11028029.55549   8596188.83445  23402505.612    23402514.256
       220.000         156.000
  23294140.950   -12774046.81249  -9933203.53645  23294140.772    23294149.233
       221.000         162.000
  20250518.068   -23257534.26249 -18092512.59448  20250518.078    20250524.762
       246.000         214.000
  21365090.804   -21543697.26649 -16750421.44947  21365090.735    21365098.008
       239.000         201.000
  22162049.052     7739582.00049   6039854.14547  22162063.083    22162071.395
       235.000         189.000
  21300480.125   -22318163.71849 -16627143.66647  21300479.855    21300488.403
       239.000         199.000
 02 12 10 23 35 30.0000000  0  6G28G 5G 4G 9G 7G24
  23416168.965    11099829.66649   8652136.92345  23416167.904    23416177.804
       218.000         156.000
  23277848.917   -12859661.43349  -9999916.08145  23277848.641    23277858.060
       220.000         162.000
  20247637.090   -23272673.90149 -18104309.67048  20247637.103    20247643.558
       247.000         214.000
  21361405.526   -21563062.93849 -16765511.54447  21361405.537    21361412.677
       239.000         201.000
  22172618.814     7795126.19449   6083135.34147  22172632.596    22172641.022
       235.000         189.000
  21286883.475   -22389614.38649 -16682819.44147  21286882.828    21286891.789
       239.000         199.000
 02 12 10 23 36  0.0000000  0  6G28G 5G 4G 9G 7G24
  23429876.172    11171861.20049   8708265.34545  23429875.884    23429885.482
       220.000         155.000
  23261564.689   -12945234.72549 -10066596.41445  23261564.274    23261573.721
       222.000         162.000
  20244872.395   -23287202.32349 -18115630.47848  20244872.476    20244879.064
       246.000         214.000
  21357831.084   -21581846.49749 -16780148.04247  21357830.751    21357838.354
       240.000         201.000
  22183200.214     7850731.69349   6126464.30447  22183214.190    22183222.095
       236.000         189.000
  21273369.449   -22460630.75749 -16738156.80747  21273369.083    21273377.512
       239.000         199.000
 02 12 10 23 36 30.0000000  0  6G28G 5G 4G 9G 7G24
  23443627.373    11244123.96649   8764573.93845  23443626.885    23443635.511
       216.000         154.000
  23245288.789   -13030765.23149 -10133243.43045  23245287.133    23245297.363
       220.000         162.000
  20242224.011   -23301119.51849 -18126474.99948  20242224.050    20242230.564
       246.000         214.000
  21354367.665   -21600047.03649 -16794330.23847  21354367.339    21354374.808
       240.000         201.000
  22193793.138     7906397.74349   6169840.44647  22193807.027    22193814.904
       235.000         188.000
  21259938.587   -22531210.27749 -16793153.75947  21259938.081    21259946.679
       239.000         199.000
 02 12 10 23 37  0.0000000  0  6G28G 5G 4G 9G 7G24
  23457422.481    11316617.80749   8821062.58345  23457421.655    23457431.797
       217.000         152.000
  23229021.076   -13116251.85949 -10199856.22146  23229020.244    23229029.707
       222.000         164.000
  20239691.911   -23314425.44749 -18136843.21148  20239692.063    20239698.472
       246.000         214.000
  21351015.309   -21617664.40649 -16808058.02247  21351014.970    21351022.337
       240.000         202.000
  22204397.295     7962123.29749   6213262.96347  22204411.406    22204418.751
       234.000         188.000
  21246591.141   -22601351.30649 -16847809.03247  21246590.631    21246598.821
       240.000         200.000
 02 12 10 23 37 30.0000000  0  6G28G 5G 4G 9G 7G24
  23471261.634    11389343.11449   8877731.59645  23471260.285    23471270.712
       217.000         152.000
  23212762.123   -13201692.95449 -10266433.55846  23212761.510    23212769.600
       223.000         164.000
  20237276.266   -23327119.64549 -18146734.75048  20237276.395    20237282.844
       246.000         214.000
  21347773.995   -21634697.58649 -16821330.59247  21347773.644    21347781.094
       240.000         202.000
  22215012.778     8017908.17049   6256731.70047  22215026.457    22215034.594
       235.000         188.000
  21233327.604   -22671051.58349 -16902120.86347  21233327.273    21233335.747
       239.000         200.000
 02 12 10 23 38  0.0000000  0  6G28G 5G 4G 9G 7G24
  23485144.567    11462298.07949   8934579.56345  23485144.873    23485153.606
       217.000         152.000
  23196511.920   -13287088.12149 -10332975.09346  23196510.510    23196521.271
       224.000         165.000
  20234976.887   -23339202.81449 -18156150.15948  20234977.017    20234983.610
       246.000         214.000
  21344643.689   -21651147.07449 -16834148.33547  21344643.571    21344650.746
       240.000         202.000
  22225639.238     8073750.58549   6300245.27347  22225653.320    22225660.977
       234.000         188.000
  21220148.066   -22740310.19649 -16956088.54047  21220148.097    21220156.046
       240.000         200.000
 02 12 10 23 38 30.0000000  0  6G28G 5G 4G 9G 7G24
  23499071.411    11535484.25649   8991607.69945  23499070.562    23499079.688
       216.000         150.000
  23180270.958   -13372434.33749 -10399478.48146  23180269.853    23180278.436
       223.000         164.000
  20232794.073   -23350673.41449 -18165088.24548  20232794.198    20232800.629
       247.000         214.000
  21341624.814   -21667010.92649 -16846509.73347  21341624.391    21341631.762
       241.000         202.000
  22236276.814     8129651.28449   6343804.26446  22236290.856    22236298.251
       235.000         187.000
  21207053.215   -22809123.80749 -17009709.45747  21207052.623    21207061.074
       240.000         201.000
 02 12 10 23 39  0.0000000  0  6G28G 5G 4G 9G 7G24
  23513041.856    11608899.37849   9048814.23045  23513040.531    23513051.095
       216.000         151.000
  23164039.295   -13457731.97849 -10465944.00246  23164037.231    23164046.681
       222.000         165.000
  20230727.526   -23361533.04349 -18173550.24848  20230727.549    20230734.155
       246.000         214.000
  21338717.253   -21682290.38949 -16858415.76347  21338716.704    21338724.483
       240.000         202.000
  22246924.993     8185607.66149   6387406.64146  22246938.645    22246947.117
       235.000         187.000
  21194043.185   -22877491.77849 -17062983.12347  21194042.799    21194051.158
       240.000         201.000
 02 12 10 23 39 30.0000000  0  6G28G 5G 4G 9G 7G24
  23527056.144    11682544.86549   9106200.26645  23527056.608    23527065.231
       217.000         151.000
  23147817.356   -13542977.95649 -10532369.29546  23147815.911    23147823.263
       224.000         165.000
  20228777.528   -23371780.35349 -18181535.11848  20228777.549    20228783.936
       246.000         214.000
  21335921.206   -21696983.58549 -16869864.96547  21335920.929    21335928.093
       241.000         202.000
  22257583.914     8241620.84649   6431053.28146  22257597.586    22257605.847
       234.000         187.000
  21181118.543   -22945410.74949 -17115906.92147  21181118.207    21181126.394
       240.000         201.000
 02 12 10 23 40  0.0000000  0  6G28G 5G 4G 9G 7G24
  23541114.133    11756419.53349   9163764.88645  23541113.636    23541122.994
       217.000         151.000
  23131605.379   -13628171.79049 -10598753.92346  23131603.734    23131614.449
       223.000         166.000
  20226943.890   -23381415.91849 -18189043.30848  20226943.928    20226950.411
       247.000         214.000
  21333236.636   -21711090.94749 -16880857.67647  21333236.168    21333243.816
       240.000         202.000
  22268253.342     8297689.22449   6474742.92346  22268267.379    22268274.984
       234.000         187.000
  21168279.568   -23012879.73149 -17168480.07847  21168278.965    21168287.436
       240.000         201.000
 02 12 10 23 40 30.0000000  0  6G28G 5G 4G 9G 7G24
  23555215.646    11830523.22549   9221507.97845  23555214.764    23555223.828
       215.000         151.000
  23115403.789   -13713311.90649 -10665096.71446  23115401.541    23115411.435
       222.000         166.000
  20225226.735   -23390439.61849 -18196074.71748  20225226.807    20225233.316
       246.000         214.000
  21330663.603   -21724611.73149 -16891393.31047  21330663.169    21330670.682
       239.000         202.000
  22278933.280     8353812.38349   6518475.25646  22278947.306    22278955.178
       234.000         187.000
  21155526.608   -23079896.67049 -17220700.99147  21155526.064    21155534.478
       240.000         201.000
 02 12 10 23 41  0.0000000  0  6G28G 5G 4G 9G 7G24
  23569360.748    11904856.17849   9279429.70845  23569360.501    23569369.562
       216.000         151.000
  23099212.480   -13798396.44749 -10731396.19646  23099211.579    23099220.898
       224.000         167.000
  20223626.043   -23398851.15549 -18202629.11948  20223625.885    20223632.545
       246.000         215.000
  21328202.372   -21737545.13349 -16901471.25147  21328202.233    21328209.532
       240.000         202.000
  22289623.498     8409989.95249   6562249.98446  22289637.635    22289645.653
       234.000         186.000
  21142860.085   -23146459.34349 -17272567.93347  21142859.473    21142867.846
       240.000         202.000
 02 12 10 23 41 30.0000000  0  6G28G 5G 4G 9G 7G24
  23583549.304    11979417.40049   9337529.31345  23583549.438    23583557.656
       216.000         151.000
  23083032.028   -13883424.80749 -10797651.88546  23083030.251    23083039.401
       221.000         167.000
  20222141.680   -23406651.34749 -18208707.15348  20222141.703    20222148.158
       246.000         215.000
  21325852.864   -21749891.73749 -16911091.94947  21325852.849    21325859.710
       241.000         202.000
  22300323.818     8466220.55449   6606066.03446  22300337.288    22300345.931
       234.000         186.000
  21130280.323   -23212566.22149 -17324079.71847  21130279.972    21130287.981
       240.000         202.000
 02 12 10 23 42  0.0000000  0  6G28G 5G 4G 9G 7G24
  23597781.278    12054206.57049   9395806.54945  23597781.426    23597789.289
       218.000         153.000
  23066862.526   -13968395.25049 -10863862.46946  23066862.324    23066869.817
       224.000         168.000
  20220773.694   -23413839.87649 -18214308.56048  20220773.570    20220779.974
       246.000         215.000
  21323615.199   -21761650.94749 -16920254.92647  21323614.719    21323622.245
       241.000         202.000
  22311034.149     8522503.84549   6649923.15946  22311047.973    22311056.415
       233.000         186.000
  21117787.578   -23278215.61049 -17375235.00347  21117787.230    21117795.586
       240.000         202.000
 02 12 10 23 42 30.0000000  0  6G28G 5G 4G 9G 7G24
  23612056.683    12129224.12349   9454261.73045  23612056.763    23612065.466
       215.000         153.000
  23050704.427   -14053305.75749 -10930026.32046  23050703.420    23050712.979
       224.000         168.000
  20219522.180   -23420416.39549 -18219433.08248  20219521.996    20219528.683
       247.000         215.000
  21321489.441   -21772821.61049 -16928959.30547  21321489.310    21321496.524
       240.000         202.000
  22321754.468     8578839.73449   6693821.25346  22321768.491    22321776.022
       234.000         185.000
  21105382.304   -23343405.44749 -17426032.20247  21105381.698    21105390.024
       240.000         202.000
 02 12 10 23 43  0.0000000  0  6G28G 5G 4G 9G 7G24
  23626375.505    12204469.56649   9512894.49245  23626374.821    23626383.622
       216.000         154.000
  23034558.035   -14138154.92349 -10996142.44446  23034556.568    23034566.852
       222.000         168.000
  20218387.102   -23426381.17849 -18224080.93148  20218387.072    20218393.418
       247.000         215.000
  21319475.667   -21783404.01449 -16937205.30147  21319475.364    21319482.704
       241.000         202.000
  22332484.656     8635227.50349   6737759.77846  22332498.963    22332506.551
       234.000         185.000
  21093064.919   -23408133.48049 -17476469.55747  21093064.665    21093072.529
       240.000         202.000
 02 12 10 23 43 30.0000000  0  6G28G 5G 4G 9G 7G24
  23640737.418    12279941.78449   9571703.96545  23640737.398    23640746.934
       217.000         154.000
  23018423.456   -14222941.96149 -11062210.10946  23018422.817    23018431.419
       224.000         169.000
  20217368.222   -23431735.27249 -18228252.91548  20217368.197    20217374.667
       246.000         215.000
  21317573.768   -21793398.77549 -16944993.39647  21317573.601    21317580.728
       241.000         202.000
  22343224.470     8691665.40049   6781737.36646  22343238.518    22343246.870
       234.000         185.000
  21080835.502   -23472399.14649 -17526546.62047  21080835.022    21080843.298
       241.000         203.000
 02 12 10 23 44  0.0000000  0  6G28G 5G 4G 9G 7G24
  23655142.702    12355641.59049   9630690.78945  23655142.186    23655151.226
       217.000         154.000
  23002301.173   -14307664.30649 -11128227.40746  23002300.009    23002309.424
       224.000         169.000
  20216465.715   -23436477.75149 -18231948.31548  20216465.702    20216472.150
       247.000         215.000
  21315783.933   -21802804.34849 -16952322.38247  21315783.660    21315790.671
       241.000         203.000
  22353973.935     8748154.28349   6825754.68946  22353987.696    22353996.355
       233.000         185.000
  21068694.711   -23536199.17249 -17576260.85047  21068694.326    21068702.469
       241.000         203.000
 02 12 10 23 44 30.0000000  0  6G28G 5G 4G 9G 7G24
  23669590.856    12431567.03449   9689853.41845  23669591.463    23669600.123
       217.000         155.000
  22986191.312   -14392321.66149 -11194194.05346  22986190.481    22986199.610
       222.000         169.000
  20215679.331   -23440609.95949 -18235168.17948  20215679.376    20215685.868
       247.000         215.000
  21314105.991   -21811621.76849 -16959193.07047  21314105.722    21314112.890
       241.000         203.000
  22364732.780     8804692.27949   6869810.28446  22364746.828    22364754.932
       233.000         185.000
  21056642.689   -23599532.74349 -17625611.60747  21056642.400    21056650.441
       240.000         203.000
 02 12 10 23 45  0.0000000  0  6G28G 5G 4G 9G 7G24
  23684082.175    12507719.44349   9749192.90945  23684081.961    23684091.469
       219.000         155.000
  22970094.340   -14476911.37849 -11260107.99746  22970093.035    22970101.883
       223.000         170.000
  20215009.290   -23444130.97049 -18237911.79248  20215009.310    20215015.790
       247.000         215.000
  21312540.275   -21819849.65649 -16965604.38447  21312540.235    21312547.317
       241.000         203.000
  22375501.022     8861279.81749   6913904.47446  22375514.893    22375523.842
       233.000         185.000
  21044679.858   -23662397.35349 -17674596.94947  21044679.302    21044687.549
       241.000         203.000
 02 12 10 23 45 30.0000000  0  6G28G 5G 4G 9G 7G24
  23698616.406    12584096.86749   9808707.74745  23698615.540    23698625.688
       217.000         155.000
  22954010.228   -14561433.44949 -11325969.23846  22954009.890    22954019.082
       225.000         170.000
  20214455.217   -23447042.56249 -18240180.52648  20214455.294    20214461.529
       247.000         215.000
  21311086.406   -21827489.41549 -16971557.41347  21311086.122    21311093.150
       241.000         203.000
  22386278.308     8917914.90349   6958035.72146  22386293.092    22386300.614
       235.000         185.000
  21032806.382   -23724792.53149 -17723216.49047  21032806.081    21032814.123
       241.000         203.000
 02 12 10 23 46  0.0000000  0  6G28G 5G 4G 9G 7G24
  23713193.595    12660700.33749   9868398.71345  23713193.788    23713202.948
       217.000         155.000
  22937939.598   -14645884.76449 -11391775.34646  22937937.776    22937947.119
       223.000         170.000
  20214017.310   -23449343.56949 -18241973.48148  20214017.327    20214023.763
       247.000         215.000
  21309744.789   -21834539.40749 -16977050.88247  21309744.521    21309751.751
       241.000         203.000
  22397064.795     8974598.30749   7002204.61546  22397078.845    22397086.696
       233.000         185.000
  21021022.750   -23786715.57449 -17771468.13247  21021022.229    21021030.814
       241.000         203.000
 02 12 10 23 46 30.0000000  0  6G28G 5G 4G 9G 7G24
  23727813.637    12737528.91249   9928265.10645  23727813.317    23727823.286
       217.000         155.000
  22921882.616   -14730264.52049 -11457525.72346  22921881.702    22921890.725
       224.000         171.000
  20213695.414   -23451034.91149 -18243291.37648  20213695.410    20213701.745
       247.000         215.000
  21308515.334   -21841000.13349 -16982085.18247  21308515.162    21308522.446
       241.000         203.000
  22407860.325     9031329.12449   7046410.46346  22407874.162    22407882.089
       233.000         185.000
  21009329.247   -23848165.00949 -17819350.73547  21009328.764    21009336.945
       242.000         204.000
 02 12 10 23 47  0.0000000  0  6G28G 5G 4G 9G 7G24
  23742476.404    12814582.25749   9988306.62445  23742476.406    23742485.033
       218.000         156.000
  22905839.419   -14814570.86449 -11523218.85946  22905839.267    22905848.051
       225.000         172.000
  20213489.554   -23452116.72649 -18244134.31148  20213489.632    20213495.846
       246.000         215.000
  21307398.082   -21846871.33349 -16986660.11147  21307397.835    21307404.947
       241.000         203.000
  22418664.761     9088106.81649   7090652.83046  22418678.682    22418686.679
       232.000         184.000
  20997726.263   -23909138.87749 -17866862.76247  20997725.897    20997733.964
       241.000         204.000
 02 12 10 23 47 30.0000000  0  6G28G 5G 4G 9G 7G24
  23757181.828    12891859.35849  10048522.51145  23757181.226    23757191.283
       217.000         154.000
  22889810.533   -14898802.80949 -11588854.05146  22889808.855    22889817.757
       224.000         171.000
  20213399.424   -23452590.00249 -18244503.05848  20213399.365    20213405.853
       246.000         215.000
  21306392.831   -21852153.66349 -16990776.17847  21306392.571    21306399.563
       241.000         203.000
  22429477.914     9144930.40149   7134930.95646  22429491.596    22429499.627
       233.000         184.000
  20986213.948   -23969636.17049 -17914003.43347  20986213.417    20986221.632
       241.000         204.000
 02 12 10 23 48  0.0000000  0  6G28G 5G 4G 9G 7G24
  23771929.820    12969360.53849  10108912.99945  23771929.486    23771938.223
       217.000         154.000
  22873796.269   -14982958.08349 -11654429.49946  22873796.041    22873804.094
       225.000         172.000
  20213425.230   -23452454.42249 -18244397.37348  20213425.297    20213431.606
       246.000         215.000
  21305499.842   -21856846.19449 -16994432.66347  21305499.610    21305506.708
       241.000         203.000
  22440299.788     9201799.81249   7179244.79446  22440313.774    22440321.486
       232.000         184.000
  20974792.786   -24029654.52049 -17960770.90447  20974792.553    20974800.474
       241.000         204.000
 02 12 10 23 48 30.0000000  0  6G28G 5G 4G 9G 7G24
  23786720.381    13047085.06549  10169477.52945  23786718.997    23786728.618
       215.000         153.000
  22857796.708   -15067035.68749 -11719944.42046  22857797.406    22857804.292
       227.000         172.000
  20213566.642   -23451710.99249 -18243818.03748  20213566.589    20213573.098
       246.000         215.000
  21304718.977   -21860949.56249 -16997630.06847  21304718.770    21304725.899
       241.000         203.000
  22451130.209     9258714.13549   7223593.62146  22451144.286    22451151.989
       232.000         184.000
  20963462.945   -24089192.86049 -18007164.33747  20963462.647    20963470.713
       241.000         205.000
 02 12 10 23 49  0.0000000  0  6G28G 5G 4G 9G 7G24
  23801553.268    13125032.86649  10230216.03045  23801552.668    23801562.377
       215.000         153.000
  22841812.488   -15151033.46349 -11785397.11546  22841811.693    22841820.480
       225.000         173.000
  20213823.769   -23450359.60849 -18242764.96948  20213823.931    20213830.112
       246.000         215.000
  21304050.332   -21864463.32449 -17000368.03347  21304050.203    21304057.056
       240.000         203.000
  22461969.158     9315673.21849   7267977.33346  22461982.743    22461991.553
       232.000         183.000
  20952224.911   -24148248.91549 -18053181.96347  20952224.567    20952232.688
       243.000         205.000
 02 12 10 23 49 30.0000000  0  6G28G 5G 4G 9G 7G24
  23816428.650    13203202.86649  10291127.67645  23816428.879    23816437.024
       213.000         151.000
  22825843.540   -15234950.52649 -11850786.93346  22825843.008    22825851.443
       225.000         173.000
  20214196.366   -23448401.48249 -18241239.11248  20214196.303    20214202.559
       247.000         215.000
  21303493.672   -21867388.26549 -17002647.17247  21303493.488    21303500.403
       241.000         203.000
  22472816.439     9372675.99549   7312395.08446  22472829.924    22472838.253
       230.000         183.000
  20941078.815   -24206821.73649 -18098823.04647  20941078.463    20941086.251
       244.000         205.000
 02 12 10 23 50  0.0000000  0  6G28G 5G 4G 9G 7G24
  23831346.154    13281595.02049  10352212.43045  23831345.323    23831354.808
       214.000         151.000
  22809890.295   -15318784.70849 -11916112.15446  22809890.361    22809897.806
       227.000         173.000
  20214684.377   -23445836.65749 -18239240.50048  20214684.515    20214690.471
       247.000         215.000
  21303049.246   -21869723.92549 -17004467.13547  21303048.866    21303055.643
       241.000         203.000
  22483671.964     9429722.46649   7356846.88346  22483686.008    22483693.453
       231.000         182.000
  20930025.031   -24264909.53549 -18144086.18247  20930024.605    20930032.539
       244.000         205.000
 02 12 10 23 50 30.0000000  0  6G28G 5G 4G 9G 7G24
  23846305.882    13360208.67149  10413469.77345  23846306.376    23846314.836
       214.000         149.000
  22793953.154   -15402534.66749 -11981371.75946  22793951.836    22793961.322
       226.000         173.000
  20215287.755   -23442665.78749 -18236769.64848  20215287.817    20215293.985
       247.000         215.000
  21302716.898   -21871470.58049 -17005828.13647  21302716.726    21302723.344
       241.000         203.000
  22494535.717     9486811.74549   7401332.03846  22494549.767    22494557.621
       231.000         182.000
  20919063.827   -24322510.86949 -18188970.26147  20919063.384    20919071.062
       244.000         205.000
 02 12 10 23 51  0.0000000  0  6G28G 5G 4G 9G 7G24
  23861307.587    13439042.81049  10474898.93745  23861308.590    23861315.383
       211.000         147.000
  22778032.285   -15486199.24749 -12046564.81846  22778031.507    22778039.727
       226.000         173.000
  20216006.216   -23438890.16049 -18233827.55648  20216006.300    20216012.465
       246.000         215.000
  21302496.338   -21872629.14149 -17006730.87347  21302495.989    21302502.845
       241.000         203.000
  22505407.392     9543942.76749   7445849.72546  22505421.201    22505429.440
       230.000         182.000
  20908195.291   -24379624.92049 -18233474.63247  20908195.038    20908202.625
       243.000         206.000
 02 12 10 23 51 30.0000000  0  6G28G 5G 4G 9G 7G24
  23876351.314    13518098.35749  10536500.60845  23876351.186    23876359.381
       211.000         146.000
  22762128.126   -15569775.52149 -12111689.06246  22762127.307    22762135.803
       226.000         174.000
  20216839.872   -23434509.11149 -18230413.71048  20216839.783    20216846.041
       246.000         215.000
  21302388.033   -21873198.31649 -17007174.35347  21302387.764    21302394.539
       241.000         203.000
  22516287.194     9601116.41449   7490400.62546  22516300.639    22516308.909
       230.000         182.000
  20897420.085   -24436248.86949 -18277597.11047  20897419.478    20897427.653
       243.000         206.000
 02 12 10 23 52  0.0000000  0  6G28G 5G 4G 9G 7G24
  23891436.973    13597373.98149  10598273.80245  23891436.113    23891444.406
       210.000         144.000
  22746241.013   -15653262.54149 -12176743.75946  22746239.656    22746248.878
       227.000         174.000
  20217788.472   -23429524.01449 -18226529.17548  20217788.506    20217794.779
       247.000         215.000
  21302391.684   -21873178.93349 -17007159.21247  21302391.391    21302398.291
       241.000         203.000
  22527174.834     9658331.46249   7534983.79046  22527189.161    22527196.288
       230.000         181.000
  20886738.292   -24492381.84749 -18321337.01147  20886737.812    20886745.568
       244.000         206.000
 02 12 10 23 52 30.0000000  0  6G28G 5G 4G 9G 7G24
  23906564.378    13676869.08449  10660218.00545  23906565.019    23906574.677
       210.000         143.000
  22730371.187   -15736658.65249 -12241727.61646  22730369.992    22730378.343
       228.000         174.000
  20218851.974   -23423935.14649 -18222174.17548  20218852.050    20218858.262
       246.000         215.000
  21302507.293   -21872571.23249 -17006685.64447  21302506.961    21302514.095
       241.000         203.000
  22538070.337     9715587.60949   7579598.97146  22538083.889    22538092.315
       230.000         181.000
  20876150.179   -24548022.37949 -18364693.18847  20876149.652    20876157.659
       243.000         206.000
 02 12 10 23 53  0.0000000  0  6G28G 5G 4G 9G 7G24
  23921733.540    13756583.43049  10722333.02245  23921733.169    23921742.016
       210.000         142.000
  22714518.978   -15819962.08949 -12306639.24046  22714517.986    22714526.169
       228.000         175.000
  20220030.201   -23417743.31749 -18217349.33148  20220030.204    20220036.403
       247.000         215.000
  21302734.783   -21871375.39349 -17005753.78247  21302734.594    21302741.562
       241.000         203.000
  22548973.511     9772884.22149   7624245.69446  22548986.951    22548995.978
       230.000         181.000
  20865656.115   -24603168.72949 -18407664.28847  20865655.837    20865663.649
       243.000         206.000
 02 12 10 23 53 30.0000000  0  6G28G 5G 4G 9G 7G24
  23936944.306    13836516.73149  10784618.69545  23936943.559    23936954.189
       210.000         141.000
  22698684.781   -15903171.21449 -12371477.40346  22698682.979    22698692.147
       227.000         175.000
  20221323.071   -23410949.15249 -18212055.13948  20221323.209    20221329.217
       246.000         215.000
  21303074.229   -21869591.63449 -17004363.80547  21303073.929    21303080.659
       241.000         203.000
  22559884.347     9830221.10249   7668923.78746  22559898.797    22559905.796
       230.000         181.000
  20855256.312   -24657819.73349 -18450249.40347  20855255.797    20855263.448
       244.000         207.000
 02 12 10 23 54  0.0000000  0  6G28G 5G 4G 9G 7G24
  23952196.620    13916668.20549  10847074.35645  23952196.699    23952204.681
       208.000         140.000
  22682868.764   -15986284.35949 -12436240.74746  22682867.817    22682876.496
       227.000         175.000
  20222730.411   -23403553.35249 -18206292.13548  20222730.435    20222736.673
       246.000         215.000
  21303525.459   -21867220.19149 -17002515.88847  21303525.116    21303532.041
       241.000         203.000
  22570802.757     9887597.73049   7713632.85646  22570816.849    22570824.836
       229.000         180.000
  20844951.053   -24711973.95949 -18492447.42147  20844950.641    20844958.274
       244.000         207.000
 02 12 10 23 54 30.0000000  0  6G28G 5G 4G 9G 7G24
  23967490.365    13997037.25749  10909699.55045  23967490.552    23967498.895
       209.000         140.000
  22667071.212   -16069300.06649 -12500928.17946  22667070.674    22667077.352
       230.000         175.000
  20224252.046   -23395557.07049 -18200061.23348  20224251.972    20224258.210
       247.000         215.000
  21304088.462   -21864261.65749 -17000210.50047  21304088.097    21304095.090
       241.000         203.000
  22581728.622     9945013.53649   7758372.44546  22581742.215    22581750.526
       229.000         180.000
  20834740.605   -24765629.89949 -18534257.16547  20834740.130    20834747.813
       244.000         207.000
 02 12 10 23 55  0.0000000  0  6G28G 5G 4G 9G 7G24
  23982825.429    14077623.39249  10972493.91445  23982825.385    23982834.973
       209.000         139.000
  22651292.657   -16152216.58749 -12565538.31646  22651291.667    22651298.559
       228.000         175.000
  20225887.847   -23386960.71349 -18193362.73848  20225887.759    20225894.039
       247.000         215.000
  21304763.083   -21860716.36249 -16997447.89747  21304762.870    21304769.666
       241.000         203.000
  22592661.808    10002467.91349   7803142.09946  22592675.436    22592683.933
       230.000         180.000
  20824625.202   -24818786.48649 -18575677.80247  20824624.652    20824632.607
       244.000         207.000
 02 12 10 23 55 30.0000000  0  6G28G 5G 4G 9G 7G24
  23998201.786    14158426.17849  11035457.10045  23998201.411    23998211.181
       211.000         139.000
  22635533.273   -16235032.14049 -12630069.78246  22635531.548    22635541.265
       229.000         176.000
  20227637.649   -23377765.34049 -18186197.47748  20227637.618    20227643.893
       247.000         215.000
  21305549.212   -21856584.74049 -16994228.41847  21305549.105    21305556.233
       241.000         203.000
  22603602.283    10059960.67649   7847941.65446  22603616.692    22603623.892
       230.000         179.000
  20814605.100   -24871442.02749 -18616708.01447  20814604.569    20814612.428
       244.000         207.000
 02 12 10 23 56  0.0000000  0  6G28G 5G 4G 9G 7G24
  24013619.051    14239444.43749  11098588.17445  24013617.728    24013628.438
       211.000         139.000
  22619793.424   -16317745.13549 -12694521.33646  22619792.414    22619800.310
       228.000         176.000
  20229501.308   -23367971.61749 -18178565.96848  20229501.278    20229507.570
       247.000         215.000
  21306446.872   -21851867.16549 -16990552.35347  21306446.714    21306453.713
       242.000         203.000
  22614549.992    10117491.29349   7892770.71346  22614564.753    22614571.777
       230.000         179.000
  20804680.590   -24923595.37549 -18657346.90647  20804680.030    20804687.827
       243.000         207.000
 02 12 10 23 56 30.0000000  0  6G28G 5G 4G 9G 7G24
  24029077.361    14320678.41449  11161887.34845  24029075.807    24029086.408
       213.000         139.000
  22604073.427   -16400353.91449 -12758891.66946  22604072.616    22604080.014
       228.000         176.000
  20231478.571   -23357580.74549 -18170469.14848  20231478.439    20231484.813
       247.000         215.000
  21307456.031   -21846564.16549 -16986420.11447  21307455.875    21307462.745
       242.000         203.000
  22625504.811    10175059.14849   7937628.78746  22625519.109    22625527.015
       229.000         179.000
  20794851.837   -24975245.46049 -18697593.64647  20794851.484    20794859.016
       243.000         207.000
 02 12 10 23 57  0.0000000  0  6G28G 5G 4G 9G 7G24
  24044576.649    14402127.19749  11225353.89845  24044576.246    24044585.108
       210.000         139.000
  22588373.580   -16482856.58249 -12823179.33846  22588372.755    22588381.202
       229.000         177.000
  20233569.408   -23346593.18749 -18161907.37548  20233569.431    20233575.505
       247.000         215.000
  21308576.497   -21840676.05849 -16981831.95147  21308576.200    21308583.029
       242.000         203.000
  22636466.652    10232663.96849   7982515.67046  22636480.810    22636489.078
       229.000         179.000
  20785119.148   -25026390.78949 -18737447.07147  20785118.722    20785126.130
       243.000         207.000
 02 12 10 23 57 30.0000000  0  6G28G 5G 4G 9G 7G24
  24060116.629    14483790.23449  11288987.40345  24060117.038    24060125.105
       213.000         140.000
  22572694.316   -16565251.28049 -12887382.88746  22572693.130    22572700.957
       230.000         177.000
  20235773.597   -23335009.95449 -18152881.44248  20235773.655    20235779.723
       247.000         215.000
  21309808.208   -21834203.42849 -16976788.32547  21309807.867    21309815.066
       241.000         203.000
  22647435.388    10290305.37749   8027431.04546  22647449.317    22647457.264
       229.000         179.000
  20775482.710   -25077030.29449 -18776906.35047  20775482.013    20775489.756
       243.000         207.000
 02 12 10 23 58  0.0000000  0  6G28G 5G 4G 9G 7G24
  24075697.244    14565666.78049  11352787.26245  24075697.222    24075705.999
       215.000         143.000
  22557035.831   -16647536.52049 -12951501.12246  22557035.359    22557042.709
       230.000         178.000
  20238090.937   -23322831.99549 -18143392.08248  20238091.021    20238096.968
       247.000         215.000
  21311151.083   -21827146.54949 -16971289.43047  21311150.607    21311157.725
       241.000         203.000
  22658411.106    10347983.07249   8072374.71146  22658425.019    22658432.813
       229.000         178.000
  20765942.762   -25127162.63149 -18815970.43047  20765942.347    20765949.978
       243.000         207.000
 02 12 10 23 58 30.0000000  0  6G28G 5G 4G 9G 7G24
  24091318.451    14647756.56649  11416753.28945  24091317.638    24091326.809
       214.000         144.000
  22541398.642   -16729710.29649 -13015532.52646  22541397.195    22541405.507
       229.000         178.000
  20240521.314   -23310060.18949 -18133439.98848  20240521.349    20240527.407
       247.000         215.000
  21312605.043   -21819505.88649 -16965335.65547  21312604.901    21312611.431
       241.000         203.000
  22669393.634    10405696.75549   8117346.41246  22669408.215    22669416.443
       228.000         178.000
  20756499.661   -25176786.13249 -18854638.02047  20756499.245    20756506.670
       243.000         208.000
 02 12 10 23 59  0.0000000  0  6G28G 5G 4G 9G 7G24
  24106980.007    14730058.29549  11480884.47645  24106979.425    24106989.050
       214.000         145.000
  22525782.871   -16811771.45149 -13079476.16146  22525781.996    22525789.411
       230.000         179.000
  20243064.341   -23296696.21049 -18123026.46348  20243064.488    20243070.529
       247.000         215.000
  21314169.856   -21811282.62649 -16958927.90247  21314169.577    21314176.362
       241.000         203.000
  22680382.897    10463445.60849   8162345.51846  22680397.408    22680404.471
       228.000         178.000
  20747153.493   -25225900.24849 -18892908.68447  20747153.065    20747160.419
       243.000         208.000
